     2              OBSERVATION DATA    GPS                 RINEX VERSION / TYPE
ASRINEXO V2.9.7 UX USGS/MENLO_PARK 26-APR-01 16:31          PGM / RUN BY / DATE
                                                            COMMENT
BIT 2 OF LLI (+4) FLAGS DATA COLLECTED UNDER "AS" CONDITION COMMENT
BIT 2 OF LLI (+4) FLAGS DATA COLLECTED UNDER "AS" CONDITION COMMENT
BIT 2 OF LLI (+4) FLAGS DATA COLLECTED UNDER "AS" CONDITION COMMENT
BIT 2 OF LLI (+4) FLAGS DATA COLLECTED UNDER "AS" CONDITION COMMENT
BIT 2 OF LLI (+4) FLAGS DATA COLLECTED UNDER "AS" CONDITION COMMENT
BIT 2 OF LLI (+4) FLAGS DATA COLLECTED UNDER "AS" CONDITION COMMENT
BIT 2 OF LLI (+4) FLAGS DATA COLLECTED UNDER "AS" CONDITION COMMENT
BIT 2 OF LLI (+4) FLAGS DATA COLLECTED UNDER "AS" CONDITION COMMENT
Original Marker Name: oldw Old_Woman_1935_USC&GS            COMMENT
Campaign Name: USGS Profiles                                COMMENT
4-Character Station Name: OLDW                              COMMENT
6-Character Antenna Code: DMRCHT                            COMMENT
Vertical Measurement Point: BCR                             COMMENT
Vertical Offset to Rinex Ref. Point: 0.0348                 COMMENT
Radial Measurement Point: ECF                               COMMENT
Radial Offset to Rinex Ref. Point: 0.1897                   COMMENT
Antenna Height from Field Measurement: 0.6240 m             COMMENT
Additional Antenna Identification Info.:                    COMMENT
Turborogue and Ashtech Choke Ring                           COMMENT
Original XYZ: -2372186.2474 -4705961.7299 3582804.7929      COMMENT
New XYZ position is based on association with SCEC monument COMMENT
E1F2C9L4+0011. Position of that monument is believed to be  COMMENT
valid to within 1 m horizontally; vertical accuracy         COMMENT
should be no worse than 3-times this value.                 COMMENT
                                                            COMMENT
Revised Rinex header created by UCSD GPS archive for        COMMENT
GSAC on 07-Jun-2001 (2001:158) 17:18:36 GMT                 COMMENT
For assistance contact dagnew@ucsd.edu                      COMMENT
or anderson@python.ucsd.edu                                 COMMENT
                                                            COMMENT
OLD WOMAN 1935                                              MARKER NAME
JMS US GEOLOGICAL SURVEY                                    OBSERVER / AGENCY
O4597 ASHTECH Z-XII3 CC00                                   REC # / TYPE / VERS
CR519993703 DORNE-MARGOL. TYPE T                            ANT # / TYPE
 -2372180.5099 -4705937.5443  3582783.5174                  APPROX POSITION XYZ
        0.5597        0.0000        0.0000                  ANTENNA: DELTA H/E/N
     1     1     0                                          WAVELENGTH FACT L1/2
     5    C1    L1    L2    P1    P2                        # / TYPES OF OBSERV
    30                                                      INTERVAL
  2001     4    25     0     0   30.000000                  TIME OF FIRST OBS
  2001     4    25    15    57   30.000000                  TIME OF LAST OBS
                                                            END OF HEADER
 01  4 25  0  0 30.0000000  0 11 17 03 14 23 21 09 06 26 15 18 29
  20885310.260   -24080206.520 9 -18734691.60647  20885309.711    20885318.2174
  22345533.566   -12527354.725 8  -9731157.87146  22345533.189    22345542.8944
  23705646.282    -6556018.787 8  -5088764.06045  23705645.704    23705663.1514
  21076347.727   -19500075.152 9 -13881229.35347  21076347.099    21076354.9164
  21868234.224   -18771275.427 9 -13722897.35647  21868233.637    21868242.9584
  24356111.944    -8457808.136 7  -6578523.12845  24356111.685    24356127.2214
  23825448.341   -10700278.893 8  -8311949.52545  23825448.104    23825465.7474
  23726526.763    -8679292.559 8  -6747937.17945  23726526.747    23726537.1204
  20395161.816   -28242196.153 9 -21427025.44347  20395161.064    20395169.0424
  20489929.031   -25608081.519 9 -17597847.82647  20489928.568    20489935.0064
  23934474.254    -3309379.179 8  -2551083.23445  23934474.049    23934494.6154
 01  4 25  0  1  0.0000000  0 11 17 03 14 23 21 09 06 26 15 18 29
  20889902.970   -24056071.718 9 -18715885.27847  20889902.421    20889910.9274
  22333781.939   -12589109.470 8  -9779278.37846  22333781.555    22333791.2794
  23684467.738    -6667310.458 8  -5175484.27545  23684467.205    23684484.3994
  21082760.372   -19466376.508 9 -13854970.67047  21082759.739    21082767.5384
  21860811.817   -18810279.969 9 -13753290.41747  21860811.246    21860820.5264
  24344371.736    -8519503.190 8  -6626597.02145  24344371.433    24344386.7334
  23846559.098   -10589343.105 8  -8225506.51045  23846558.840    23846576.4694
  23745401.562    -8580105.059 8  -6670648.28245  23745401.610    23745411.9964
  20394858.326   -28243790.805 9 -21428268.01047  20394857.594    20394865.5874
  20493529.223   -25589162.054 9 -17583105.37547  20493528.755    20493535.1924
  23913929.526    -3417339.670 8  -2635207.66445  23913929.242    23913949.7214
 01  4 25  0  1 30.0000000  0 11 17 03 14 23 21 09 06 26 15 18 29
  20894552.304   -24031639.343 9 -18696847.07647  20894551.763    20894560.2694
  22322116.885   -12650409.367 8  -9827044.45446  22322116.500    22322126.2424
  23663312.959    -6778477.400 8  -5262107.31345  23663312.371    23663329.4324
  21089209.935   -19432483.782 9 -13828560.75347  21089209.304    21089217.0904
  21853431.913   -18849061.205 9 -13783509.47047  21853431.344    21853440.5904
  24332677.486    -8580956.757 8  -6674482.75745  24332677.168    24332692.4394
  23867690.765   -10478297.162 8  -8138977.67745  23867690.411    23867708.2084
  23764331.352    -8480628.614 8  -6593134.24245  23764331.376    23764341.7974
  20394611.698   -28245086.749 9 -21429277.81347  20394610.955    20394618.9534
  20497186.853   -25569941.065 9 -17568127.96947  20497186.383    20497192.7984
  23893403.505    -3525201.897 8  -2719255.52145  23893403.292    23893423.4654
 01  4 25  0  2  0.0000000  0 11 17 03 14 23 21 09 06 26 15 18 29
  20899258.559   -24006907.938 9 -18677575.86347  20899258.025    20899266.5224
  22310538.893   -12711251.784 8  -9874454.04846  22310538.526    22310548.2154
  23642182.554    -6889516.325 8  -5348630.61145  23642181.899    23642198.8274
  21095696.305   -19398397.705 9 -13802000.16847  21095695.674    21095703.4654
  21846094.503   -18887619.362 9 -13813554.70347  21846093.924    21846103.1264
  24321029.869    -8642164.797 7  -6722177.14545  24321029.601    24321044.6614
  23888843.100   -10367142.757 8  -8052364.31045  23888842.767    23888860.7524
  23783315.611    -8380865.625 8  -6515396.91245  23783315.663    23783326.1344
  20394422.304   -28246081.983 9 -21430053.29947  20394421.556    20394429.5444
  20500901.758   -25550419.085 9 -17552916.02747  20500901.291    20500907.6794
  23872896.790    -3632962.870 7  -2803224.48245  23872896.588    23872916.5784
 01  4 25  0  2 30.0000000  0 11 17 03 14 23 21 09 06 26 15 18 29
  20904021.820   -23981876.979 9 -18658071.22947  20904021.277    20904029.7514
  22299048.352   -12771634.681 8  -9921505.57046  22299048.020    22299057.6904
  23621076.948    -7000424.963 8  -5435052.39345  23621076.270    23621093.0314
  21102219.165   -19364119.900 9 -13775290.18947  21102218.528    21102226.3444
  21838799.338   -18925955.479 9 -13843426.91647  21838798.774    21838807.9224
  24309429.448    -8703124.759 7  -6769678.22645  24309429.172    24309444.2154
  23910015.578   -10255882.719 8  -7965668.64945  23910015.200    23910033.3024
  23802353.874    -8280819.121 8  -6437438.66045  23802353.943    23802364.4424
  20394290.271   -28246775.899 9 -21430593.99047  20394289.507    20394297.5024
  20504673.631   -25530597.861 9 -17537470.90847  20504673.160    20504679.5424
  23852409.769    -3740620.305 8  -2887112.75745  23852409.512    23852429.3534
 01  4 25  0  3  0.0000000  0 11 17 03 14 23 21 09 06 26 15 18 29
  20908842.251   -23956545.722 9 -18638332.59847  20908841.690    20908850.1524
  22287645.566   -12831556.227 8  -9968197.59846  22287645.234    22287654.9214
  23599996.585    -7111200.782 8  -5521370.67445  23599995.954    23600012.5774
  21108778.138   -19329652.122 9 -13748432.17247  21108777.497    21108785.3364
  21831546.300   -18964070.111 9 -13873126.54647  21831545.735    21831554.8724
  24297876.799    -8763833.646 7  -6816983.65745  24297876.531    24297891.3114
  23931207.605   -10144519.696 7  -7878892.72245  23931207.249    23931225.3664
  23821445.496    -8180492.363 8  -6359262.04745  23821445.596    23821455.9534
  20394215.699   -28247167.716 9 -21430899.27547  20394214.949    20394222.8974
  20508502.159   -25510478.757 9 -17521793.67747  20508501.700    20508508.0764
  23831942.957    -3848171.775 7  -2970918.47345  23831942.750    23831962.2884
 01  4 25  0  3 30.0000000  0 11 17 03 14 23 21 09 06 26 15 18 29
  20913719.976   -23930913.209 9 -18618359.21847  20913719.393    20913727.8784
  22276331.057   -12891014.081 8 -10014528.30446  22276330.717    22276340.4184
  23578942.107    -7221840.611 8  -5607583.00145  23578941.440    23578957.9414
  21115373.098   -19294995.269 9 -13721426.82147  21115372.462    21115380.3164
  21824335.524   -19001962.772 9 -13902653.20547  21824334.967    21824344.0784
  24286372.629    -8824288.109 7  -6864090.84645  24286372.246    24286387.0144
  23952418.842   -10033055.831 8  -7792038.23845  23952418.544    23952436.7254
  23840589.998    -8079887.730 7  -6280868.87945  23840590.033    23840600.4234
  20394198.906   -28247255.852 9 -21430967.92347  20394198.160    20394206.1154
  20512387.178   -25490062.676 9 -17505885.03047  20512386.710    20512393.1144
  23811496.747    -3955614.607 7  -3054639.52445  23811496.485    23811516.0694
 01  4 25  0  4  0.0000000  0 11 17 03 14 23 21 09 06 26 15 18 29
  20918654.980   -23904979.457 9 -18598151.11547  20918654.397    20918662.9044
  22265104.941   -12950007.325 8 -10060496.96646  22265104.619    22265114.2904
  23557913.835    -7332342.902 8  -5693688.16945  23557913.307    23557929.5184
  21122003.601   -19260151.758 9 -13694276.02347  21122002.962    21122010.8214
  21817166.678   -19039634.872 9 -13932008.00547  21817166.110    21817175.2354
  24274917.225    -8884486.018 7  -6910998.12245  24274916.834    24274931.4214
  23973648.544    -9921494.858 7  -7705108.08945  23973648.267    23973666.5344
  23859786.551    -7979009.285 8  -6202262.38445  23859786.543    23859797.0634
  20394239.814   -28247040.634 9 -21430800.19947  20394239.062    20394247.0324
  20516328.226   -25469352.218 9 -17489747.00047  20516327.772    20516334.1674
  23791071.434    -4062947.536 7  -3138274.93645  23791071.195    23791090.7404
 01  4 25  0  4 30.0000000  0 11 17 03 14 23 21 09 06 26 15 18 29
  20923647.654   -23878742.867 9 -18577707.03247  20923647.081    20923655.6044
  22253967.855   -13008532.746 8 -10106101.09046  22253967.539    22253977.1714
  23536912.406    -7442704.163 8  -5779683.44845  23536911.825    23536927.8934
  21128669.536   -19225122.053 9 -13666980.13547  21128668.897    21128676.7484
  21810039.902   -19077086.063 9 -13961190.66947  21810039.344    21810048.4594
  24263511.441    -8944423.064 7  -6957702.10645  24263511.061    24263525.3664
  23994896.425    -9809838.237 8  -7618103.41245  23994896.128    23994914.5604
  23879034.835    -7877859.058 7  -6123444.07045  23879034.868    23879045.3324
  20394338.877   -28246520.054 9 -21430394.53247  20394338.143    20394346.1144
  20520325.271   -25448347.549 9 -17473379.71447  20520324.815    20520331.2004
  23770667.769    -4170166.934 8  -3221821.89145  23770667.520    23770686.9624
 01  4 25  0  5  0.0000000  0 11 17 03 14 23 21 09 06 26 15 18 29
  20928698.107   -23852202.644 9 -18557026.35647  20928697.524    20928706.0504
  22242920.166   -13066588.520 8 -10151339.25846  22242919.837    22242929.4424
  23515938.302    -7552921.809 8  -5865566.82945  23515937.775    23515953.7094
  21135370.622   -19189907.703 9 -13639540.37547  21135369.968    21135377.8044
  21802954.959   -19114317.380 9 -13990202.00947  21802954.389    21802963.4894
  24252155.847    -9004096.354 7  -7004200.58645  24252155.412    24252169.6864
  24016162.104    -9698088.273 8  -7531025.99545  24016161.706    24016180.2764
  23898334.327    -7776439.776 7  -6044416.12345  23898334.357    23898344.9324
  20394496.202   -28245693.266 9 -21429750.26847  20394495.455    20394503.4274
  20524378.053   -25427050.181 9 -17456784.36147  20524377.589    20524383.9404
  23750286.125    -4277270.542 7  -3305278.63245  23750285.930    23750305.2104
 01  4 25  0  5 30.0000000  0 11 17 03 14 23 21 09 06 26 15 18 29
  20933806.509   -23825357.822 9 -18536108.32647  20933805.948    20933814.4474
  22231962.241   -13124172.521 8 -10196209.80046  22231961.923    22231971.4814
  23494992.115    -7662992.951 8  -5951336.05945  23494991.577    23495007.3564
  21142106.600   -19154509.925 9 -13611957.68347  21142105.935    21142113.7604
  21795911.714   -19151329.485 9 -14019042.53047  21795911.165    21795920.2354
  24240850.993    -9063502.855 7  -7050491.17245  24240850.449    24240864.8354
  24037445.040    -9586247.600 8  -7443877.91945  24037444.603    24037463.4514
  23917684.460    -7674754.450 8  -5965180.84645  23917684.432    23917695.0114
  20394712.024   -28244559.079 9 -21428866.46547  20394711.275    20394719.2554
  20528486.302   -25405461.246 9 -17439961.80647  20528485.835    20528492.1654
  23729927.052    -4384255.657 7  -3388643.03645  23729926.874    23729945.9284
 01  4 25  0  6  0.0000000  0 11 17 03 14 23 21 09 06 26 15 18 29
  20938972.937   -23798208.245 9 -18514952.81347  20938972.381    20938980.8494
  22221094.398   -13181283.054 8 -10240711.40446  22221094.067    22221103.6044
  23474074.224    -7772915.484 8  -6036989.49445  23474073.718    23474089.2234
  21148877.093   -19118930.573 9 -13584233.50047  21148876.447    21148884.2594
  21788910.124   -19188122.646 9 -14047712.44247  21788909.592    21788918.6614
  24229597.327    -9122639.936 7  -7096571.82145  24229596.769    24229611.2834
  24058744.706    -9474319.098 8  -7356661.38645  24058744.397    24058763.2454
  23937084.576    -7572806.402 7  -5885740.88245  23937084.532    23937095.1344
  20394986.477   -28243116.763 9 -21427742.56047  20394985.715    20394993.6734
  20532649.627   -25383582.679 9 -17422913.56147  20532649.163    20532655.5094
  23709590.881    -4491120.573 7  -3471913.77745  23709590.803    23709609.5364
 01  4 25  0  6 30.0000000  0 11 17 03 14 23 21 09 06 26 15 18 29
  20944197.499   -23770753.122 9 -18493559.22347  20944196.944    20944205.3954
  22210317.040   -13237918.286 8 -10284842.64846  22210316.698    22210326.1794
  23453185.027    -7882686.812 8  -6122525.13745  23453184.539    23453199.9024
  21155681.930   -19083170.913 9 -13556368.83047  21155681.276    21155689.0824
  21781950.083   -19224697.530 9 -14076212.27347  21781949.540    21781958.5914
  24218395.591    -9181504.408 7  -7142440.06045  24218395.224    24218409.6204
  24080060.620    -9362305.376 8  -7269378.45745  24080060.171    24080079.2304
  23956534.121    -7470598.637 8  -5806098.52745  23956534.146    23956544.6944
  20395319.719   -28241365.496 9 -21426377.92647  20395318.965    20395326.8994
  20536867.895   -25361415.582 9 -17405640.49547  20536867.423    20536873.8044
  23689278.119    -4597862.567 8  -3555088.74545  23689278.016    23689296.6014
 01  4 25  0  7  0.0000000  0 11 17 03 14 23 21 09 06 26 15 18 29
  20949480.342   -23742991.582 9 -18471926.86547  20949479.797    20949488.2364
  22199630.497   -13294076.177 8 -10328601.94446  22199630.146    22199639.5934
  23432325.153    -7992304.203 8  -6207940.81545  23432324.630    23432339.8894
  21162520.830   -19047232.218 9 -13528364.64947  21162520.192    21162527.9914
  21775031.451   -19261054.948 9 -14104542.65147  21775030.900    21775039.9544
  24207246.313    -9240093.066 7  -7188093.36545  24207245.943    24207260.4334
  24101392.224    -9250208.899 8  -7182031.04945  24101391.802    24101410.9434
  23976032.584    -7368133.855 7  -5726255.90445  23976032.578    23976043.2084
  20395711.940   -28239304.280 9 -21424771.76947  20395711.193    20395719.1094
  20541140.748   -25338961.443 9 -17388143.75347  20541140.284    20541146.6704
  23668989.238    -4704479.224 8  -3638166.05545  23668989.051    23669007.6034
 01  4 25  0  7 30.0000000  0 11 17 03 14 23 21 09 06 26 15 18 29
  20954821.655   -23714922.971 9 -18450055.23347  20954821.079    20954829.5584
  22189035.143   -13349754.957 8 -10371987.90846  22189034.791    22189044.1844
  23411495.107    -8101765.027 8  -6293234.52045  23411494.480    23411509.7554
  21169393.536   -19011116.078 9 -13500222.20047  21169392.904    21169400.6924
  21768154.146   -19297195.115 9 -14132703.74247  21768153.581    21768162.6374
  24196150.121    -9298402.873 7  -7233529.39845  24196149.794    24196164.4894
  24122739.115    -9138032.070 8  -7094621.03745  24122738.715    24122757.9534
  23995579.327    -7265415.088 8  -5646215.37645  23995579.247    23995590.0964
  20396163.294   -28236932.260 9 -21422923.43447  20396162.550    20396170.4584
  20545468.009   -25316221.415 9 -17370424.24347  20545467.559    20545473.9274
  23648724.598    -4810968.189 8  -3721143.87445  23648724.440    23648742.8614
 01  4 25  0  8  0.0000000  0 11 17 03 14 23 21 09 06 26 15 18 29
  20960221.571   -23686546.209 9 -18427943.49047  20960220.991    20960229.4994
  22178531.349   -13404952.283 8 -10414998.71246  22178530.973    22178540.3584
  23390695.421    -8211066.390 8  -6378403.96745  23390694.740    23390709.9374
  21176299.824   -18974823.412 9 -13471942.20147  21176299.183    21176306.9274
  21761318.081   -19333118.569 9 -14160695.97047  21761317.514    21761326.5964
  24185107.676    -9356430.580 7  -7278745.59745  24185107.369    24185121.8614
  24144100.918    -9025776.955 7  -7007150.02445  24144100.516    24144120.0804
  24015173.877    -7162445.002 7  -5565979.01045  24015173.801    24015184.6404
  20396674.086   -28234247.997 9 -21420831.79247  20396673.327    20396681.2394
  20549849.472   -25293196.753 9 -17352482.93847  20549848.986    20549855.3714
  23628484.813    -4917326.669 8  -3804020.01245  23628484.592    23628502.8914
 01  4 25  0  8 30.0000000  0 11 17 03 14 23 21 09 06 26 15 18 29
  20965680.176   -23657861.030 9 -18405591.42647  20965679.622    20965688.1294
  22168119.445   -13459666.698 8 -10457633.23646  22168119.061    22168128.4634
  23369926.433    -8320206.283 8  -6463447.59845  23369925.767    23369940.8144
  21183239.359   -18938356.117 9 -13443526.12547  21183238.719    21183246.4294
  21754522.989   -19368826.464 9 -14188520.22747  21754522.418    21754531.5294
  24174119.417    -9414173.678 7  -7323740.02445  24174119.006    24174133.4524
  24165476.982    -8913446.715 7  -6919620.47945  24165476.607    24165496.1314
  24034815.736    -7059226.913 7  -5485549.39945  24034815.673    24034826.3734
  20397244.322   -28231251.396 9 -21418496.77047  20397243.562    20397251.4734
  20554284.777   -25269889.115 9 -17334321.13247  20554284.295    20554290.6614
  23608270.222    -5023552.765 7  -3886793.01045  23608270.006    23608288.1904
 01  4 25  0  9  0.0000000  0 11 17 03 14 23 21 09 06 26 15 18 29
  20971197.641   -23628866.460 9 -18382998.28047  20971197.082    20971205.6184
  22157799.782   -13513896.496 8 -10499890.14046  22157799.405    22157808.7974
  23349188.777    -8429181.496 8  -6548362.93945  23349188.114    23349203.0744
  21190211.857   -18901715.326 9 -13414974.86147  21190211.202    21190218.9354
  21747768.921   -19404318.820 9 -14216176.53747  21747768.373    21747777.4594
  24163185.919    -9471628.836 7  -7368510.09445  24163185.444    24163199.9564
  24186866.985    -8801043.690 7  -6832034.21545  24186866.610    24186886.4434
  24054504.148    -6955763.626 8  -5404928.71145  24054504.134    24054514.8694
  20397874.241   -28227941.120 9 -21415917.32847  20397873.496    20397881.4014
  20558773.635   -25246299.825 9 -17315939.86047  20558773.158    20558779.5114
  23588081.287    -5129643.971 7  -3969460.91145  23588081.042    23588099.1484
 01  4 25  0  9 30.0000000  0 11 17 03 14 23 21 09 06 26 15 18 29
  20976774.140   -23599561.795 9 -18360163.50347  20976773.582    20976782.1204
  22147572.737   -13567639.491 8 -10541767.72446  22147572.355    22147581.7524
  23328482.945    -8537989.682 8  -6633148.11345  23328482.289    23328497.2024
  21197217.099   -18864902.368 9 -13386289.44247  21197216.452    21197224.2194
  21741055.813   -19439596.223 9 -14243665.34947  21741055.251    21741064.3154
  24152307.807    -9528792.979 7  -7413053.38445  24152307.416    24152321.8164
  24208270.353    -8688570.214 7  -6744393.05345  24208269.911    24208289.6114
  24074238.789    -6852057.906 7  -5324119.14545  24074238.660    24074249.5704
  20398564.104   -28224315.764 9 -21413092.36647  20398563.358    20398571.2524
  20563315.942   -25222430.076 9 -17297340.04547  20563315.463    20563321.7794
  23567918.523    -5235597.558 8  -4052021.58745  23567918.291    23567936.1784
 01  4 25  0 10  0.0000000  0 11 17 03 14 23 21 09 06 26 15 18 29
  20982409.773   -23569946.506 9 -18337086.68147  20982409.210    20982417.7044
  22137438.723   -13620893.851 8 -10583264.55646  22137438.350    22137447.7264
  23307809.377    -8646628.106 8  -6717801.01445  23307808.780    23307823.5094
  21204254.777   -18827918.894 9 -13357471.14547  21204254.140    21204261.9234
  21734383.468   -19474659.402 9 -14270987.22947  21734382.910    21734391.9304
  24141485.581    -9585663.425 7  -7457367.83145  24141485.308    24141499.4594
  24229686.596    -8576029.256 7  -6656699.30645  24229686.136    24229706.1104
  24094018.929    -6748112.884 7  -5243123.09345  24094018.938    24094029.8234
  20399314.020   -28220374.896 9 -21410021.55047  20399313.249    20399321.1644
  20567911.276   -25198281.464 9 -17278522.92947  20567910.792    20567917.1244
  23547782.334    -5341411.495 8  -4134473.45045  23547782.131    23547799.8524
 01  4 25  0 10 30.0000000  0 11 17 03 14 23 21 09 06 26 15 18 29
  20988104.679   -23540019.747 9 -18313767.14647  20988104.138    20988112.5924
  22127397.991   -13673657.826 8 -10624379.27546  22127397.622    22127406.9804
  23287168.595    -8755094.292 8  -6802319.70845  23287168.020    23287182.6494
  21211324.743   -18790766.008 9 -13328520.84047  21211324.096    21211331.8974
  21727751.692   -19509509.240 9 -14298142.86747  21727751.131    21727760.1174
  24130719.937    -9642236.914 7  -7501450.88945  24130719.601    24130733.6444
  24251115.239    -8463423.162 8  -6568954.82445  24251114.941    24251134.8494
  24113844.097    -6643931.267 8  -5161942.67245  24113843.973    24113854.9544
  20400124.215   -28216117.295 9 -21406703.92247  20400123.448    20400131.3564
  20572559.435   -25173855.100 9 -17259489.37647  20572558.944    20572565.3034
  23527673.230    -5447083.196 8  -4216814.48645  23527673.032    23527690.5894
 01  4 25  0 11  0.0000000  0 11 17 03 14 23 21 09 06 26 15 18 29
  20993858.978   -23509780.916 9 -18290204.44447  20993858.414    20993866.8154
  22117450.895   -13725929.745 8 -10665110.58846  22117450.518    22117459.8694
  23266561.085    -8863385.591 8  -6886702.13945  23266560.526    23266575.0864
  21218426.652   -18753445.238 9 -13299439.72047  21218425.999    21218433.7984
  21721160.446   -19544146.291 9 -14325132.70447  21721159.904    21721168.8274
  24120011.378    -9698510.566 8  -7545300.30445  24120011.034    24120025.0034
  24272555.727    -8350754.571 7  -6481161.62545  24272555.499    24272575.4934
  24133713.614    -6539516.328 7  -5080580.44145  24133713.577    24133724.6194
  20400994.822   -28211542.120 9 -21403138.83547  20400994.056    20401001.9504
  20577260.114   -25149152.587 9 -17240240.64747  20577259.620    20577265.9984
  23507591.672    -5552610.276 7  -4299042.84345  23507591.464    23507608.9094
 01  4 25  0 11 30.0000000  0 11 17 03 14 23 21 09 06 26 15 18 29
  20999672.771   -23479229.301 9 -18266398.01947  20999672.219    20999680.6164
  22107597.815   -13777707.736 8 -10705457.02246  22107597.459    22107606.7844
  23245987.370    -8971499.443 8  -6970946.29645  23245986.809    23246001.2974
  21225560.290   -18715957.738 9 -13270228.68247  21225559.631    21225567.4374
  21714609.618   -19578570.733 9 -14351956.86747  21714609.069    21714617.9694
  24109360.406    -9754481.506 8  -7588913.83345  24109360.037    24109373.9374
  24294007.668    -8238025.793 7  -6393321.55545  24294007.238    24294027.3844
  24153627.055    -6434870.760 7  -4999038.51845  24153626.882    24153638.0594
  20401926.053   -28206648.490 9 -21399325.60647  20401925.291    20401933.1654
  20582013.187   -25124174.949 9 -17220777.53247  20582012.719    20582019.0794
  23487538.068    -5657990.295 8  -4381156.61645  23487537.887    23487555.2314
 01  4 25  0 12  0.0000000  0 11 17 03 14 23 21 09 06 26 15 18 29
  21005546.235   -23448364.059 9 -18242347.20347  21005545.683    21005554.1134
  22097839.129   -13828989.752 8 -10745416.98947  22097838.745    22097848.0684
  23225447.959    -9079433.196 8  -7055050.11845  23225447.437    23225461.8144
  21232725.417   -18678304.729 9 -13240888.67447  21232724.770    21232732.5364
  21708099.146   -19612783.125 9 -14378615.79047  21708098.616    21708107.4944
  24098767.586    -9810146.499 7  -7632288.95445  24098767.231    24098781.0134
  24315470.573    -8125239.249 7  -6305436.43545  24315470.309    24315490.4474
  24173583.868    -6329997.387 7  -4917319.06745  24173583.727    24173594.8104
  20402918.100   -28201435.262 9 -21395263.33047  20402917.334    20402925.2004
  20586818.340   -25098923.626 9 -17201101.15047  20586817.863    20586824.2084
  23467512.947    -5763220.936 8  -4463154.00445  23467512.720    23467529.9214
 01  4 25  0 12 30.0000000  0 11 17 03 14 23 21 09 06 26 15 18 29
  21011479.490   -23417184.473 9 -18218051.44847  21011478.956    21011487.3984
  22088175.177   -13879774.058 8 -10784989.13647  22088174.805    22088184.0864
  23204943.295    -9187184.191 8  -7139011.53945  23204942.823    23204957.0744
  21239921.814   -18640487.574 9 -13211420.75847  21239921.149    21239928.9374
  21701629.040   -19646783.598 9 -14405109.58547  21701628.495    21701637.3744
  24088233.528    -9865502.581 7  -7675423.37745  24088233.114    24088246.8464
  24336944.033    -8012397.575 7  -6217508.36545  24336943.873    24336963.8114
  24193583.394    -6224899.249 7  -4835424.48645  24193583.300    24193594.5374
  20403971.097   -28195901.532 9 -21390951.31247  20403970.335    20403978.1984
  20591675.355   -25073399.819 9 -17181212.45147  20591674.880    20591681.2044
  23447516.730    -5868299.491 8  -4545032.88845  23447516.534    23447533.5704
 01  4 25  0 13  0.0000000  0 11 17 03 14 23 21 09 06 26 15 18 29
  21017472.655   -23385690.205 9 -18193510.48547  21017472.117    21017480.6214
  22078606.185   -13930059.162 8 -10824172.28647  22078605.829    22078615.0924
  23184473.900    -9294750.033 8  -7222828.68545  23184473.394    23184487.5944
  21247149.098   -18602507.847 9 -13181826.16247  21247148.455    21247156.2034
  21695199.037   -19680573.236 9 -14431439.08847  21695198.487    21695207.3334
  24077758.812    -9920546.861 7  -7718314.83545  24077758.525    24077771.9454
  24358427.505    -7899503.446 7  -6129539.42445  24358427.172    24358447.4214
  24213625.174    -6119579.242 7  -4753357.01845  24213624.996    24213636.4574
  20405085.256   -28190046.549 9 -21386388.96247  20405084.514    20405092.3714
  20596583.891   -25047605.198 9 -17161112.72347  20596583.432    20596589.7514
  23427549.871    -5973223.929 8  -4626791.69245  23427549.656    23427566.5834
 01  4 25  0 13 30.0000000  0 11 17 03 14 23 21 09 06 26 15 18 29
  21023525.857   -23353880.438 9 -18168723.68147  21023525.326    21023533.8344
  22069132.542   -13979843.216 8 -10862965.00247  22069132.178    22069141.4414
  23164040.228    -9402128.013 8  -7306499.43545  23164039.669    23164053.8244
  21254407.132   -18564366.637 9 -13152105.73747  21254406.490    21254414.2324
  21688808.934   -19714153.036 9 -14457605.08247  21688808.381    21688817.2224
  24067343.950    -9975276.323 7  -7760960.98145  24067343.646    24067357.1274
  24379920.504    -7786559.102 7  -6041531.33845  24379920.101    24379940.5364
  24233708.660    -6014040.319 7  -4671118.95445  24233708.452    24233719.7924
  20406260.690   -28183869.509 9 -21381575.65747  20406259.940    20406267.8004
  20601543.707   -25021541.218 9 -17140803.10947  20601543.228    20601549.5474
  23407612.779    -6077991.944 8  -4708428.61445  23407612.578    23407629.3154
 01  4 25  0 14  0.0000000  0 11 17 03 14 23 21 09 06 26 15 18 29
  21029639.311   -23321754.266 9 -18143690.32647  21029638.784    21029647.2934
  22059754.612   -14029124.302 8 -10901365.80247  22059754.250    22059763.4964
  23143642.846    -9509315.241 8  -7390021.55445  23143642.270    23143656.4174
  21261695.672   -18526065.135 9 -13122260.41147  21261695.035    21261702.7704
  21682458.731   -19747523.289 9 -14483607.79247  21682458.177    21682467.0074
  24056989.599   -10029687.885 7  -7803359.41845  24056989.273    24057002.7114
  24401422.577    -7673567.022 7  -5953486.04745  24401422.256    24401442.7994
  24253833.237    -5908285.103 7  -4588712.35745  24253833.070    24253844.4254
  20407497.638   -28177369.205 9 -21376510.46647  20407496.874    20407504.7524
  20606554.600   -24995208.633 9 -17120284.19247  20606554.119    20606560.4214
  23387706.035    -6182600.637 8  -4789941.39945  23387705.819    23387722.3384
 01  4 25  0 14 30.0000000  0 11 17 03 14 23 21 09 06 26 15 18 29
  21035813.058   -23289311.186 9 -18118410.02547  21035812.520    21035821.0434
  22050472.639   -14077901.093 8 -10939373.63647  22050472.296    22050481.5234
  23123282.195    -9616309.388 8  -7473393.22445  23123281.646    23123295.7264
  21269014.405   -18487604.919 9 -13092291.40547  21269013.768    21269021.5164
  21676148.320   -19780684.288 9 -14509447.44647  21676147.775    21676156.5984
  24046696.277   -10083778.787 7  -7845507.99745  24046695.929    24046709.4314
  24422933.186    -7560529.932 7  -5865405.70745  24422932.894    24422953.6054
  24273998.427    -5802316.707 7  -4506139.66145  24273998.260    24274009.4434
  20408796.258   -28170544.911 9 -21371192.81347  20408795.515    20408803.3664
  20611616.312   -24968609.162 9 -17099557.30847  20611615.825    20611622.1394
  23367829.986    -6287047.933 8  -4871328.43845  23367829.799    23367846.2244
 01  4 25  0 15  0.0000000  0 11 17 03 14 23 21 09 06 26 15 18 29
  21042047.211   -23256550.391 9 -18092882.15547  21042046.684    21042055.2114
  22041287.035   -14126171.411 8 -10976986.81847  22041286.705    22041295.8944
  23102958.776    -9723107.860 8  -7556612.42645  23102958.285    23102972.2014
  21276363.111   -18448987.120 9 -13062199.60947  21276362.481    21276370.2064
  21669877.643   -19813636.567 9 -14535124.46447  21669877.106    21669885.9184
  24036464.611   -10137545.758 7  -7887404.15745  24036464.452    24036477.8304
  24444451.959    -7447449.952 7  -5777291.92345  24444451.767    24444472.4154
  24294203.639    -5696137.826 7  -4423402.94245  24294203.473    24294214.5284
  20410156.711   -28163395.635 9 -21365621.92947  20410155.953    20410163.8024
  20616728.531   -24941744.144 9 -17078623.50747  20616728.036    20616734.3564
  23347985.168    -6391331.309 8  -4952587.75245  23347985.017    23348001.2674
 01  4 25  0 15 30.0000000  0 11 17 03 14 23 21 09 06 26 15 18 29
  21048341.878   -23223471.823 9 -18067106.66547  21048341.337    21048349.8814
  22032198.065   -14173934.197 8 -11014204.51547  22032197.717    22032206.9024
  23082673.049    -9829708.473 8  -7639677.44745  23082672.510    23082686.2994
  21283741.457   -18410213.654 9 -13031986.51147  21283740.823    21283748.5264
  21663646.451   -19846381.481 9 -14560639.89647  21663645.920    21663654.7184
  24026294.992   -10190986.562 7  -7929046.15845  24026294.833    24026308.2414
  24465978.326    -7334330.079 8  -5689147.06345  24465978.065    24465998.8304
  24314448.261    -5589751.898 7  -4340504.89545  24314448.208    24314459.0944
  20411579.092   -28155920.921 9 -21359797.45447  20411578.329    20411586.1624
  20621890.925   -24914615.495 9 -17057484.27947  20621890.432    20621896.7554
  23328171.904    -6495448.824 8  -5033717.82445  23328171.764    23328187.8114
 01  4 25  0 16  0.0000000  0 11 17 03 14 23 21 09 06 26 15 18 29
  21054697.170   -23190074.405 9 -18041082.72547  21054696.657    21054705.2014
  22023206.045   -14221187.419 8 -11051025.14247  22023205.682    22023214.8084
  23062425.545    -9936108.257 8  -7722586.00545  23062424.996    23062438.6774
  21291149.308   -18371285.256 9 -13001652.69147  21291148.675    21291156.3534
  21657454.629   -19878919.400 9 -14585994.03947  21657454.097    21657462.8684
  24016188.143   -10244097.844 7  -7970431.41245  24016187.850    24016201.2624
  24487511.806    -7221172.743 8  -5600973.01745  24487511.528    24487532.6814
  24334731.807    -5483161.371 7  -4257447.41845  24334731.616    24334742.6744
  20413063.665   -28148119.376 9 -21353718.30847  20413062.891    20413070.7204
  20627103.361   -24887223.774 9 -17036140.06547  20627102.884    20627109.1994
  23308390.748    -6599397.668 8  -5114716.47545  23308390.618    23308406.5354
 01  4 25  0 16 30.0000000  0 11 17 03 14 23 21 09 06 26 15 18 29
  21061113.236   -23156357.768 9 -18014810.03647  21061112.715    21061121.2424
  22014311.255   -14267929.703 8 -11087447.63947  22014310.890    22014319.9804
  23042216.784   -10042304.523 8  -7805335.95745  23042216.246    23042229.8044
  21298586.331   -18332203.391 9 -12971199.28147  21298585.696    21298593.3584
  21651302.122   -19911250.492 9 -14611187.01347  21651301.596    21651310.3354
  24006144.352   -10296877.236 7  -8011558.04445  24006144.073    24006157.6064
  24509051.990    -7107980.537 7  -5512771.77945  24509051.587    24509072.8284
  24355053.698    -5376369.374 7  -4174232.95545  24355053.527    24355064.7364
  20414610.549   -28139990.121 9 -21347383.80447  20414609.790    20414617.6294
  20632365.554   -24859570.705 9 -17014592.20447  20632365.091    20632371.4014
  23288642.041    -6703175.830 8  -5195582.12845  23288641.879    23288657.6794
 01  4 25  0 17  0.0000000  0 10 17 03 14 23 21 09 26 15 18 29
  21067590.531   -23122319.337 9 -17988286.59647  21067590.001    21067598.5184
  22005514.285   -14314157.779 8 -11123469.44847  22005513.930    22005522.9964
  23022047.540   -10148293.026 8  -7887924.04345  23022047.050    23022060.4654
  21306052.704   -18292967.407 9 -12940625.77647  21306052.067    21306059.7244
  21645189.178   -19943374.028 9 -14636218.25447  21645188.618    21645197.3464
  23996164.660   -10349319.637 7  -8052422.08445  23996164.411    23996177.9964
  24375413.703    -5269377.059 7  -4090862.39645  24375413.522    24375424.7774
  20416220.296   -28131530.773 9 -21340792.09347  20416219.545    20416227.3794
  20637677.600   -24831655.609 9 -16992840.16547  20637677.144    20637683.4384
  23268926.649    -6806779.167 8  -5276311.54845  23268926.478    23268942.2224
 01  4 25  0 17 30.0000000  0 10 17 03 14 23 21 09 26 15 18 29
  21074129.497   -23087957.052 9 -17961510.81147  21074128.974    21074137.4514
  21996815.792   -14359868.445 8 -11159088.08047  21996815.461    21996824.5104
  23001918.628   -10254069.531 8  -7970346.91345  23001918.074    23001931.5044
  21313548.406   -18253577.237 9 -12909932.13447  21313547.778    21313555.4194
  21639115.852   -19975289.236 9 -14661087.16447  21639115.302    21639124.0324
  23986249.984   -10401420.697 7  -8093020.14745  23986249.745    23986263.3234
  24395811.586    -5162185.564 7  -4007336.62945  24395811.351    24395822.6454
  20417893.339   -28122738.846 9 -21333941.22947  20417892.597    20417900.4344
  20643039.645   -24803477.927 9 -16970883.52147  20643039.171    20643045.4684
  23249245.300    -6910203.439 8  -5356901.44545  23249245.104    23249260.7224
 01  4 25  0 18  0.0000000  0 10 17 03 14 23 21 09 26 15 18 29
  21080729.281   -23053275.014 9 -17934485.86147  21080728.745    21080737.2404
  21988215.126   -14405064.859 8 -11194305.99247  21988214.786    21988223.8544
  22981829.616   -10359636.568 8  -8052606.58445  22981829.042    22981842.3774
  21321072.292   -18214038.966 9 -12879123.09047  21321071.659    21321079.3444
  21633081.176   -20007001.323 9 -14685797.79847  21633080.630    21633089.3544
  23976399.895   -10453182.363 7  -8133353.74845  23976399.624    23976413.1744
  24416245.879    -5054802.640 7  -3923661.69845  24416245.794    24416257.0584
  20419628.929   -28113618.188 9 -21326834.21647  20419628.176    20419636.0364
  20648450.349   -24775044.516 9 -16948727.60447  20648449.876    20648456.1614
  23229597.561    -7013451.213 8  -5437353.80445  23229597.345    23229612.8984
 01  4 25  0 18 30.0000000  0 10 17 03 14 23 21 09 26 15 18 29
  21087390.158   -23018272.071 9 -17907210.86247  21087389.624    21087398.1174
  21979712.724   -14449744.893 8 -11229121.52747  21979712.412    21979721.4564
  22961781.024   -10464990.995 8  -8134700.59245  22961780.490    22961793.6854
  21328624.193   -18174353.262 9 -12848199.15847  21328623.551    21328631.2344
  21627085.201   -20038510.155 9 -14710350.05147  21627084.641    21627093.3474
  23966614.997   -10504601.207 7  -8173420.20745  23966614.688    23966628.2484
  24436716.228    -4947230.536 7  -3839839.35445  24436716.143    24436727.5514
  20421427.369   -28104167.232 9 -21319469.82347  20421426.621    20421434.4874
  20653909.561   -24746356.080 9 -16926372.97047  20653909.096    20653915.3724
  23209983.930    -7116519.661 8  -5517666.44445  23209983.734    23209999.2254
 01  4 25  0 19  0.0000000  0 10 17 03 14 23 21 09 26 15 18 29
  21094112.282   -22982947.290 9 -17879685.08447  21094111.740    21094120.2464
  21971309.018   -14493906.496 8 -11263533.09847  21971308.690    21971317.7724
  22941773.521   -10570129.653 8  -8216626.46346  22941772.981    22941786.1084
  21336204.058   -18134520.850 9 -12817160.90547  21336203.434    21336211.1024
  21621127.820   -20069816.116 9 -14734744.21947  21621127.255    21621135.9474
  23956896.092   -10555673.800 7  -8213216.88245  23956895.876    23956909.3114
  24457222.136    -4839471.696 7  -3755871.50645  24457222.147    24457233.3884
  20423288.929   -28094384.733 9 -21311847.08647  20423288.172    20423296.0224
  20659417.147   -24717413.477 9 -16903820.28647  20659416.683    20659422.9404
  23190404.982    -7219405.921 8  -5597837.11345  23190404.767    23190420.2054
 01  4 25  0 19 30.0000000  0 10 17 03 14 23 21 09 26 15 18 29
  21100895.827   -22947299.658 9 -17851907.73147  21100895.274    21100903.8234
  21963004.286   -14537547.933 8 -11297539.33847  21963003.939    21963013.0364
  22921807.619   -10675049.816 8  -8298382.09246  22921807.084    22921820.1224
  21343811.673   -18094542.451 9 -12786008.90647  21343811.047    21343818.7164
  21615208.964   -20100919.629 9 -14758980.64147  21615208.393    21615217.0744
  23947243.724   -10606397.143 7  -8252741.41145  23947243.459    23947256.8504
  24477763.053    -4731528.669 7  -3671760.13245  24477763.068    24477774.4704
  20425213.784   -28084269.615 9 -21303965.17047  20425213.029    20425220.8394
  20664972.922   -24688217.674 9 -16881070.30447  20664972.457    20664978.7044
  23170861.191    -7322107.327 8  -5677863.75045  23170861.018    23170876.2984
 01  4 25  0 20  0.0000000  0 10 17 03 14 23 21 09 26 15 18 29
  21107740.901   -22911328.755 9 -17823878.48447  21107740.335    21107748.9194
  21954798.780   -14580667.900 8 -11331139.25047  21954798.429    21954807.5524
  22901883.744   -10779749.212 8  -8379965.70646  22901883.216    22901896.1164
  21351446.763   -18054419.798 9 -12754744.50547  21351446.131    21351453.8114
  21609328.543   -20131821.202 9 -14783059.70847  21609327.944    21609336.5914
  23937658.316   -10656768.370 8  -8291991.57845  23937657.984    23937671.3644
  24498338.461    -4623404.421 7  -3587507.54345  24498338.413    24498349.7504
  20427202.065   -28073821.047 9 -21295823.42747  20427201.313    20427209.0854
  20670576.611   -24658770.131 9 -16858124.16847  20670576.148    20670582.4044
  23151353.044    -7424621.693 8  -5757744.64545  23151352.862    23151368.0614
 01  4 25  0 20 30.0000000  0 10 17 03 14 23 21 09 26 15 18 29
  21114647.665   -22875033.506 9 -17795596.50347  21114647.104    21114655.7004
  21946692.834   -14623264.589 9 -11364331.40847  21946692.491    21946701.6084
  22882002.468   -10884224.547 8  -8461374.73146  22882001.941    22882014.7514
  21359109.104   -18014153.869 9 -12723368.46247  21359108.457    21359116.1744
  21603486.555   -20162520.775 9 -14806981.37147  21603485.948    21603494.5694
  23928140.562   -10706784.095 8  -8330964.72545  23928140.273    23928153.4414
  24518947.843    -4515101.427 7  -3503115.66645  24518947.815    24518959.2264
  20429254.064   -28063037.764 9 -21287420.86647  20429253.302    20429261.0624
  20676228.064   -24629071.598 9 -16834982.45547  20676227.586    20676233.8464
  23131881.036    -7526946.004 8  -5837477.45045  23131880.833    23131895.9984
 01  4 25  0 21  0.0000000  0 10 17 03 14 23 21 09 31 15 18 29
  21121616.434   -22838412.391 9 -17767060.59447  21121615.870    21121624.4884
  21938687.016   -14665335.163 8 -11397113.61447  21938686.683    21938695.7694
  22862164.493   -10988472.422 8  -8542606.51146  22862163.994    22862176.6834
  21366798.712   -17973744.697 9 -12691880.80047  21366798.074    21366805.8124
  21597683.043   -20193018.089 9 -14830745.43147  21597682.456    21597691.0484
  23918691.206   -10756440.308 8  -8369657.73545  23918690.845    23918703.9124
  24469688.055    -1891735.914 7  -1450387.76045  24469687.308    24469700.3784
  20431370.090   -28051918.050 9 -21278756.14847  20431369.317    20431377.0524
  20681927.159   -24599122.506 9 -16811645.50247  20681926.690    20681932.9244
  23112445.798    -7629077.201 8  -5917059.78845  23112445.598    23112460.6954
 01  4 25  0 21 30.0000000  0 10 17 03 14 23 21 09 31 15 18 29
  21128646.199   -22801470.806 9 -17738274.97247  21128645.643    21128654.2664
  21930780.452   -14706884.283 8 -11429489.49147  21930780.107    21930789.1874
  22842369.188   -11092496.178 8  -8623663.66146  22842368.697    22842381.3104
  21374514.269   -17933199.267 9 -12660286.96347  21374513.632    21374521.3794
  21591916.736   -20223319.802 9 -14854357.07847  21591916.178    21591924.7424
  23909309.586   -10805740.391 8  -8408073.24445  23909309.320    23909322.3114
  24452538.130    -1981859.191 7  -1520613.59345  24452537.441    24452550.4914
  20433549.180   -28040466.796 9 -21269833.09247  20433548.419    20433556.1234
  20687672.620   -24568930.001 9 -16788118.87747  20687672.162    20687678.3624
  23093046.604    -7731018.922 8  -5996494.49745  23093046.398    23093061.3704
 01  4 25  0 22  0.0000000  0 10 17 03 14 23 21 09 31 15 18 29
  21135738.323   -22764201.448 9 -17709233.93847  21135737.763    21135746.3944
  21922974.652   -14747903.762 9 -11461452.66147  21922974.321    21922983.3704
  22822618.278   -11196286.517 8  -8704538.92546  22822617.791    22822630.3264
  21382256.739   -17892512.286 9 -12628582.82547  21382256.112    21382263.8544
  21586188.774   -20253419.986 9 -14877811.68947  21586188.213    21586196.7614
  23899997.532   -10854675.183 8  -8446204.10245  23899997.206    23900010.1794
  24435445.830    -2071679.596 7  -1590603.41445  24435445.094    24435458.0644
  20435792.783   -28028676.534 9 -21260645.87947  20435792.026    20435799.7644
  20693465.358   -24538489.028 9 -16764398.63847  20693464.892    20693471.0814
  23073685.207    -7832762.007 8  -6075774.41545  23073685.001    23073699.9544
 01  4 25  0 22 30.0000000  0 10 17 03 14 23 21 09 31 15 18 29
  21142892.759   -22726604.695 9 -17679937.78847  21142892.210    21142900.8144
  21915269.779   -14788393.064 9 -11493002.71347  21915269.435    21915278.4654
  22802912.135   -11299841.741 8  -8785230.98746  22802911.644    22802924.1284
  21390025.711   -17851685.983 9 -12596770.13247  21390025.084    21390032.8584
  21580498.933   -20283319.998 9 -14901110.32647  21580498.362    21580506.9024
  23890755.380   -10903242.700 8  -8484048.78545  23890755.034    23890767.9984
  24418411.443    -2161195.584 7  -1660356.01345  24418410.766    24418423.6134
  20438100.908   -28016547.186 9 -21251194.44047  20438100.158    20438107.8864
  20699304.956   -24507801.640 9 -16740486.38947  20699304.500    20699310.7074
  23054361.881    -7934304.913 8  -6154898.36845  23054361.668    23054376.5664
 01  4 25  0 23  0.0000000  0 10 17 03 14 23 21 09 31 15 18 29
  21150109.626   -22688679.984 9 -17650386.08947  21150109.084    21150117.6614
  21907666.028   -14828350.900 9 -11524138.63647  21907665.679    21907674.6764
  22783251.182   -11403159.341 8  -8865737.89046  22783250.684    22783263.1104
  21397821.037   -17810721.078 9 -12564849.43447  21397820.407    21397828.2334
  21574847.016   -20313020.660 9 -14924253.63047  21574846.435    21574854.9514
  23881583.639   -10951440.094 8  -8521605.06145  23881583.284    23881596.3114
  24401435.441    -2250404.626 7  -1729869.44545  24401434.808    24401447.5524
  20440473.722   -28004077.966 9 -21241478.16947  20440472.975    20440480.7214
  20705191.246   -24476868.829 9 -16716382.90147  20705190.785    20705197.0304
  23035077.080    -8035645.380 8  -6233864.57945  23035076.899    23035091.7114
 01  4 25  0 23 30.0000000  0 10 17 03 14 23 21 09 31 15 18 29
  21157388.829   -22650427.711 9 -17620579.14847  21157388.275    21157396.8574
  21900163.507   -14867776.758 8 -11554860.02747  21900163.143    21900172.1604
  22763635.822   -11506237.447 8  -8946058.16246  22763635.334    22763647.7144
  21405642.426   -17769619.453 9 -12532822.20247  21405641.793    21405649.6334
  21569232.790   -20342523.361 9 -14947242.67747  21569232.191    21569240.7044
  23872482.724   -10999265.271 8  -8558871.29045  23872482.364    23872495.3024
  24384518.150    -2339305.146 7  -1799142.46545  24384517.540    24384530.2254
  20442911.249   -27991268.748 9 -21231496.96347  20442910.507    20442918.2524
  20711123.814   -24445692.907 9 -16692089.97847  20711123.368    20711129.6474
  23015831.165    -8136781.819 8  -6312671.80345  23015830.933    23015845.6874
 01  4 25  0 24  0.0000000  0 10 17 03 14 23 21 09 31 15 18 29
  21164730.528   -22611847.147 9 -17590516.39547  21164729.972    21164738.5584
  21892762.460   -14906669.215 8 -11585165.78747  21892762.076    21892771.1164
  22744066.449   -11609073.717 8  -9026190.00146  22744065.971    22744078.2824
  21413489.541   -17728382.630 9 -12500689.62147  21413488.890    21413496.7614
  21563656.157   -20371828.481 9 -14970077.76947  21563655.562    21563664.0644
  23863453.147   -11046715.417 8  -8595845.29545  23863452.876    23863465.6664
  24367660.160    -2427894.318 7  -1868172.85845  24367659.510    24367672.2054
  20445413.615   -27978118.674 9 -21221250.15047  20445412.865    20445420.6104
  20717102.420   -24414275.144 9 -16667608.60547  20717101.959    20717108.2374
  22996624.489    -8237712.064 8  -6391318.37645  22996624.269    22996638.9314
 01  4 25  0 24 30.0000000  0 10 17 03 14 23 21 09 31 15 18 29
  21172134.784   -22572937.617 9 -17560197.31247  21172134.226    21172142.8204
  21885463.179   -14945026.893 9 -11615054.83147  21885462.809    21885471.8344
  22724543.613   -11711665.637 8  -9106131.43646  22724543.117    22724555.3424
  21421362.164   -17687011.880 9 -12468452.68847  21421361.500    21421369.3994
  21558117.012   -20400936.545 9 -14992759.31247  21558116.417    21558124.9184
  23854495.484   -11093787.772 8  -8632524.90145  23854495.176    23854507.9494
  24350861.874    -2516169.758 7  -1936958.79345  24350861.160    24350873.9004
  20447981.036   -27964626.817 9 -21210737.01547  20447980.278    20447988.0254
  20723126.851   -24382616.768 9 -16642939.74447  20723126.368    20723132.6314
  22977457.550    -8338433.543 8  -6469802.27645  22977457.328    22977471.8524
 01  4 25  0 25  0.0000000  0 10 17 03 14 23 21 09 31 15 18 29
  21179601.747   -22533698.655 9 -17529621.53047  21179601.177    21179609.7974
  21878265.959   -14982848.223 9 -11644525.94847  21878265.572    21878274.6074
  22705067.813   -11814010.388 8  -9185880.28246  22705067.310    22705079.4934
  21429260.114   -17645508.056 9 -12436112.05147  21429259.443    21429267.3254
  21552615.212   -20429848.233 9 -15015287.83147  21552614.625    21552623.1484
  23845610.255   -11140479.363 8  -8668907.81745  23845609.958    23845622.7974
  24334123.743    -2604128.557 7  -2005497.98945  24334122.997    24334135.7604
  20450613.607   -27950792.546 9 -21199957.06347  20450612.835    20450620.6084
  20729196.844   -24350718.920 9 -16618084.27547  20729196.356    20729202.5974
  22958330.809    -8438943.782 8  -6548121.56745  22958330.589    22958345.0334
 01  4 25  0 25 30.0000000  0 10 17 03 14 23 21 09 31 15 18 29
  21187131.406   -22494130.201 9 -17498788.99747  21187130.844    21187139.4994
  21871171.006   -15020132.265 9 -11673578.39247  21871170.624    21871179.6494
  22685639.425   -11916105.951 8  -9265434.95246  22685638.940    22685651.0424
  21437183.050   -17603872.664 9 -12403668.89447  21437182.397    21437190.2724
  21547150.589   -20458564.610 9 -15037664.16347  21547150.009    21547158.5384
  23836797.811   -11186788.057 8  -8704992.36845  23836797.579    23836810.3384
  24317446.302    -2691768.763 7  -2073788.92245  24317445.603    24317458.4524
  20453311.427   -27936615.435 9 -21188909.95947  20453310.648    20453318.4474
  20735312.026   -24318583.494 9 -16593043.67747  20735311.523    20735317.7624
  22939244.548    -8539241.070 8  -6626274.92845  22939244.362    22939258.7084
 01  4 25  0 26  0.0000000  0 10 17 03 14 23 21 09 31 15 18 29
  21194723.874   -22454231.415 9 -17467699.06947  21194723.318    21194732.0314
  21864178.530   -15056877.621 8 -11702211.08447  21864178.164    21864187.1604
  22666259.007   -12017949.502 8  -9344793.24646  22666258.496    22666270.5224
  21445130.866   -17562106.615 9 -12371123.92747  21445130.195    21445138.0884
  21541723.058   -20487086.240 9 -15059888.74947  21541722.466    21541730.9914
  23828058.871   -11232711.035 8  -8740776.35845  23828058.648    23828071.4024
  24300830.011    -2779087.363 7  -2141829.25145  24300829.307    24300842.1924
  20456074.694   -27922094.227 9 -21177594.73047  20456073.925    20456081.7504
  20741472.183   -24286211.468 9 -16567818.72047  20741471.698    20741477.9304
  22920199.322    -8639323.009 8  -6704260.48645  22920199.117    22920213.4044
 01  4 25  0 26 30.0000000  0 10 17 03 14 23 21 09 31 15 18 29
  21202379.244   -22414002.222 9 -17436351.67747  21202378.689    21202387.4354
  21857288.704   -15093083.556 9 -11730423.44747  21857288.364    21857297.3504
  22646926.903   -12119539.175 8  -9423953.73046  22646926.349    22646938.3754
  21453103.268   -17520211.527 9 -12338478.40947  21453102.596    21453110.4884
  21536332.399   -20515414.082 9 -15081962.33247  21536331.808    21536340.3094
  23819393.847   -11278245.677 8  -8776257.75945  23819393.657    23819406.2944
  24284275.344    -2866082.072 7  -2209617.16145  24284274.707    24284287.4594
  20458903.494   -27907228.688 9 -21166011.19447  20458902.736    20458910.5784
  20747677.117   -24253604.288 9 -16542410.52647  20747676.622    20747682.8844
  22901195.535    -8739187.367 8  -6782076.48546  22901195.303    22901209.5094
 01  4 25  0 27  0.0000000  0 10 17 03 14 23 21 09 31 15 18 29
  21210097.642   -22373441.893 9 -17404746.25347  21210097.075    21210105.8644
  21850501.856   -15128748.420 9 -11758214.19347  21850501.513    21850510.5154
  22627643.675   -12220871.991 8  -9502914.05446  22627643.109    22627655.0894
  21461100.050   -17478188.258 9 -12305733.01247  21461099.380    21461107.2434
  21530978.637   -20543548.117 9 -15103884.89847  21530978.054    21530986.5194
  23810803.272   -11323389.132 7  -8811434.32445  23810802.895    23810815.6844
  24267782.825    -2952750.115 7  -2277150.54445  24267782.164    24267795.0674
  20461798.117   -27892017.389 9 -21154158.23447  20461797.362    20461805.2224
  20753926.570   -24220763.113 9 -16516819.99747  20753926.096    20753932.3604
  22882233.557    -8838831.738 8  -6859721.08146  22882233.320    22882247.4634
 01  4 25  0 27 30.0000000  0 10 17 03 14 23 21 09 31 15 18 29
  21217879.115   -22332550.078 9 -17372882.53147  21217878.538    21217887.3194
  21843818.138   -15163871.293 9 -11785582.60747  21843817.790    21843826.8204
  22608409.744   -12321945.657 8  -9581672.45546  22608409.195    22608421.0894
  21469120.994   -17436037.873 9 -12272888.56547  21469120.337    21469128.1864
  21525661.560   -20571489.356 9 -15125657.23547  21525660.965    21525669.4084
  23802287.555   -11368138.859 7  -8846304.09345  23802287.240    23802299.9454
  24251352.916    -3039089.215 7  -2344427.57545  24251352.438    24251365.1294
  20464758.630   -27876459.727 9 -21142035.37247  20464757.883    20464765.7294
  20760220.299   -24187689.444 9 -16491048.29847  20760219.829    20760226.0504
  22863313.880    -8938253.896 8  -6937192.52446  22863313.648    22863327.6764
 01  4 25  0 28  0.0000000  0 10 17 03 14 23 21 09 31 15 18 29
  21225723.826   -22291325.938 9 -17340759.85847  21225723.248    21225731.9984
  21837237.884   -15198450.546 9 -11812527.42247  21837237.535    21837246.5514
  22589225.720   -12422757.234 8  -9660226.64646  22589225.175    22589236.9904
  21477165.915   -17393761.628 9 -12239946.04547  21477165.248    21477173.0854
  21520381.213   -20599237.773 9 -15147279.32247  21520380.611    21520389.0234
  23793847.311   -11412491.762 7  -8880864.64245  23793847.023    23793859.6394
  24234986.130    -3125096.522 7  -2411446.07945  24234985.749    24234998.3644
  20467785.289   -27860554.696 9 -21129641.83447  20467784.518    20467792.3474
  20766558.099   -24154384.278 9 -16465096.21747  20766557.611    20766563.8284
  22844437.010    -9037451.197 8  -7014488.75946  22844436.756    22844450.6614
 01  4 25  0 28 30.0000000  0 10 17 03 14 23 21 09 31 15 18 29
  21233631.881   -22249769.128 8 -17308377.96547  21233631.303    21233640.0334
  21830761.245   -15232485.255 8 -11839047.92047  21830760.909    21830769.8784
  22570091.994   -12523304.416 8  -9738574.80746  22570091.452    22570103.1784
  21485234.531   -17351360.652 9 -12206906.32847  21485233.872    21485241.7024
  21515137.417   -20626793.944 9 -15168751.60847  21515136.831    21515145.1994
  23785483.093   -11456445.459 8  -8915114.10345  23785482.753    23785495.3394
  24218683.103    -3210769.217 7  -2478203.83345  24218682.656    24218695.2744
  20470878.147   -27844301.703 9 -21116977.15647  20470877.386    20470885.1964
  20772939.702   -24120848.709 9 -16438964.60247  20772939.213    20772945.3954
  22825603.289    -9136421.667 8  -7091608.24346  22825603.004    22825616.7844
 01  4 25  0 29  0.0000000  0 10 17 03 14 23 21 09 31 15 18 29
  21241603.214   -22207879.505 9 -17275736.72947  21241602.654    21241611.3744
  21824388.413   -15265974.548 8 -11865143.41647  21824388.061    21824397.0374
  22551008.977   -12623585.139 8  -9816715.35646  22551008.432    22551020.0884
  21493326.629   -17308836.270 9 -12173770.45047  21493325.970    21493333.8224
  21509929.900   -20654159.378 9 -15190075.26347  21509929.306    21509937.6624
  23777195.264   -11499997.502 8  -8949050.59945  23777194.940    23777207.5674
  24202444.084    -3296105.401 7  -2544699.38045  24202443.587    24202456.1514
  20474037.249   -27827700.527 9 -21104041.16647  20474036.489    20474044.2834
  20779364.782   -24087084.547 9 -16412654.86047  20779364.296    20779370.4994
  22806813.105    -9235163.178 8  -7168549.31646  22806812.833    22806826.4334
 01  4 25  0 29 30.0000000  0 10 17 03 14 23 21 09 31 15 18 29
  21249638.047   -22165656.470 9 -17242835.69847  21249637.482    21249646.2064
  21818119.623   -15298916.969 9 -11890812.78247  21818119.271    21818128.2304
  22531977.204   -12723596.595 8  -9894646.08446  22531976.678    22531988.2444
  21501442.020   -17266189.688 9 -12140539.35847  21501441.352    21501449.2164
  21504758.643   -20681334.284 9 -15211250.46547  21504758.036    21504766.3814
  23768984.368   -11543145.323 8  -8982672.12545  23768984.065    23768996.5854
  24186269.595    -3381102.177 7  -2610930.44445  24186269.234    24186281.6884
  20477262.833   -27810749.939 9 -21090832.90747  20477262.066    20477269.8664
  20785833.188   -24053092.814 9 -16386167.79047  20785832.727    20785838.9474
  22788066.998    -9333673.208 8  -7245310.02346  22788066.741    22788080.2254
 01  4 25  0 30  0.0000000  0 10 17 03 14 23 21 09 31 15 18 29
  21257736.316   -22123099.793 8 -17209674.68347  21257735.756    21257744.4944
  21811955.083   -15331311.772 9 -11916055.43147  21811954.718    21811963.6444
  22512997.096   -12823336.495 8  -9972365.22446  22512996.597    22513008.0704
  21509580.488   -17223421.732 9 -12107213.68647  21509579.838    21509587.6604
  21499623.494   -20708319.338 9 -15232277.72247  21499622.901    21499631.2464
  23760850.907   -11585886.344 8  -9015976.65645  23760850.586    23760862.9644
  24170160.201    -3465757.376 7  -2676895.35745  24170159.847    24170172.1374
  20480555.028   -27793449.312 9 -21077351.88847  20480554.277    20480562.0624
  20792344.625   -24018874.931 9 -16359504.49547  20792344.140    20792350.3864
  22769365.297    -9431949.837 8  -7321888.85646  22769365.007    22769378.3804
 01  4 25  0 30 30.0000000  0 10 17 03 14 23 21 09 31 15 18 29
  21265898.212   -22080208.879 8 -17176253.22947  21265897.635    21265906.3934
  21805895.002   -15363157.620 8 -11940870.32847  21805894.623    21805903.5244
  22494069.166   -12922802.342 8 -10049870.81346  22494068.671    22494080.0304
  21517741.852   -17180533.394 9 -12073794.21347  21517741.188    21517749.0164
  21494524.369   -20735115.130 9 -15253157.50947  21494523.791    21494532.1214
  23752795.345   -11628217.937 8  -9048962.14145  23752794.932    23752807.2754
  24154116.174    -3550068.459 7  -2742592.14045  24154115.744    24154128.0474
  20483914.031   -27775797.679 9 -21063597.36247  20483913.262    20483921.0464
  20798898.919   -23984431.872 9 -16332665.74347  20798898.422    20798904.6874
  22750708.523    -9529990.606 8  -7398283.92246  22750708.233    22750721.5164
 01  4 25  0 31  0.0000000  0 10 17 03 14 23 21 09 31 15 18 29
  21274123.860   -22036983.019 9 -17142570.77447  21274123.291    21274132.0574
  21799939.571   -15394453.348 9 -11965256.55347  21799939.186    21799948.0674
  22475193.883   -13021991.620 8 -10127160.89946  22475193.368    22475204.6524
  21525925.960   -17137525.492 9 -12040281.56847  21525925.322    21525933.1654
  21489461.146   -20761722.220 9 -15273890.25047  21489460.576    21489468.8854
  23744818.290   -11670137.193 8  -9081626.35045  23744817.895    23744830.1404
  24138138.145    -3634032.694 7  -2808018.65545  24138137.675    24138150.0634
  20487339.999   -27757794.174 9 -21049568.64247  20487339.210    20487346.9964
  20805495.791   -23949764.959 9 -16305652.55647  20805495.295    20805501.5704
  22732097.064    -9627793.039 8  -7474493.27246  22732096.778    22732109.9714
 01  4 25  0 31 30.0000000  0 10 17 03 14 23 21 09 31 15 18 29
  21282413.267   -21993421.987 8 -17108627.14847  21282412.682    21282421.4444
  21794089.047   -15425197.874 9 -11989213.28747  21794088.657    21794097.5084
  22456371.702   -13120901.695 8 -10204233.42846  22456371.198    22456382.4224
  21534132.545   -17094399.460 9 -12006676.88347  21534131.921    21534139.7884
  21484433.736   -20788141.298 9 -15294476.49347  21484433.167    21484441.4504
  23736920.194   -11711641.590 8  -9113967.28445  23736919.802    23736931.9564
  24122226.606    -3717647.621 7  -2873172.97645  24122226.190    24122238.5884
  20490833.030   -27739438.133 9 -21035265.22747  20490832.252    20490840.0314
  20812135.080   -23914875.268 9 -16278465.78447  20812134.589    20812140.8694
  22713531.376    -9725355.085 8  -7550515.31946  22713531.110    22713544.1644
 01  4 25  0 32  0.0000000  0 10 17 03 14 23 21 09 31 15 18 29
  21290766.510   -21949525.583 9 -17074422.19447  21290765.949    21290774.7144
  21788343.568   -15455390.438 9 -12012739.91947  21788343.174    21788352.0034
  22437603.108   -13219530.264 8 -10281086.61146  22437602.572    22437613.7314
  21542361.437   -17051156.481 9 -11972981.06847  21542360.814    21542368.6844
  21479441.979   -20814372.964 9 -15314916.70047  21479441.412    21479449.6584
  23729101.499   -11752728.786 8  -9145983.12245  23729101.056    23729113.1044
  24106381.982    -3800910.623 8  -2938053.09045  24106381.630    24106394.0054
  20494393.239   -27720728.996 9 -21020686.66547  20494392.467    20494400.2404
  20818816.421   -23879764.527 9 -16251106.76147  20818815.944    20818822.1944
  22695011.822    -9822674.567 8  -7626348.35346  22695011.561    22695024.4624
 01  4 25  0 32 30.0000000  0 10 17 03 14 23 21 09 31 15 18 29
  21299183.673   -21905293.181 8 -17039955.41647  21299183.092    21299191.8564
  21782703.330   -15485029.932 9 -12035835.57947  21782702.949    21782711.7584
  22418888.496   -13317875.030 8 -10357718.63746  22418887.967    22418899.0504
  21550612.435   -17007797.347 9 -11939194.73747  21550611.792    21550619.6144
  21474485.755   -20840417.894 9 -15335211.39447  21474485.183    21474493.4184
  23721362.604   -11793396.239 8  -9177671.88645  23721362.263    23721374.2834
  24090604.864    -3883819.082 8  -3002656.91145  24090604.363    24090616.9194
  20498020.861   -27701665.679 9 -21005832.12047  20498020.096    20498027.8764
  20825539.636   -23844433.797 9 -16223576.31847  20825539.169    20825545.3814
  22676538.893    -9919749.113 8  -7701990.54146  22676538.670    22676551.3944
 01  4 25  0 33  0.0000000  0 10 17 03 14 23 21 09 31 15 18 29
  21307664.811   -21860724.650 8 -17005226.72047  21307664.231    21307672.9814
  21777168.504   -15514115.440 8 -12058499.57347  21777168.150    21777176.9174
  22400228.413   -13415933.475 8 -10434127.56746  22400227.875    22400238.8404
  21558885.283   -16964323.402 9 -11905318.94947  21558884.635    21558892.4114
  21469564.859   -20866277.033 9 -15355361.32147  21469564.280    21469572.5144
  23713704.059   -11833641.516 8  -9209031.68945  23713703.704    23713715.6414
  24074895.597    -3966370.990 8  -3066982.91445  24074894.988    24074907.7464
  20501715.945   -27682247.853 9 -20990701.34147  20501715.168    20501722.9614
  20832304.529   -23808884.188 9 -16195875.32747  20832304.046    20832310.2394
  22658112.977   -10016576.693 8  -7777440.29946  22658112.795    22658125.3684
 01  4 25  0 33 30.0000000  0 10 17 03 14 23 21 09 31 15 18 29
  21316209.960   -21815819.687 8 -16970235.86047  21316209.376    21316218.1424
  21771739.271   -15542645.947 9 -12080731.09347  21771738.909    21771747.6834
  22381623.229   -13513703.392 8 -10510311.67846  22381622.686    22381633.5794
  21567179.755   -16920735.704 9 -11871354.52047  21567179.103    21567186.8774
  21464679.307   -20891950.413 9 -15375366.50247  21464678.732    21464686.9584
  23706126.295   -11873462.335 8  -9240060.75445  23706125.971    23706137.8494
  24059254.718    -4048563.826 8  -3131029.10045  24059254.095    24059266.7484
  20505478.565   -27662475.063 9 -20975293.96847  20505477.803    20505485.5744
  20839110.726   -23773117.238 9 -16168004.97647  20839110.244    20839116.4324
  22639734.490   -10113155.300 8  -7852696.05846  22639734.289    22639746.7484
 01  4 25  0 34  0.0000000  0 10 17 03 14 23 21 09 31 15 18 29
  21324819.216   -21770577.900 8 -16934982.54847  21324818.635    21324827.4204
  21766415.836   -15570620.666 8 -12102529.54147  21766415.494    21766424.2234
  22363073.368   -13611182.523 8 -10586269.19446  22363072.827    22363083.6134
  21575495.689   -16877035.306 9 -11837302.27247  21575495.036    21575502.7894
  21459828.901   -20917439.251 9 -15395227.88547  21459828.330    21459836.5234
  23698629.750   -11912856.116 8  -9270757.06045  23698629.450    23698641.2634
  24043682.627    -4130395.103 8  -3194793.55545  24043681.936    24043694.5414
  20509308.865   -27642346.641 9 -20959609.48447  20509308.111    20509315.8544
  20845958.106   -23737134.095 9 -16139966.16747  20845957.624    20845963.8084
  22621403.752   -10209482.675 8  -7927756.06046  22621403.518    22621415.9104
 01  4 25  0 34 30.0000000  0 10 17 03 14 23 21 09 31 15 18 29
  21333492.674   -21724998.536 8 -16899466.19047  21333492.081    21333500.9024
  21761198.417   -15598038.254 9 -12123893.85747  21761198.076    21761206.7734
  22344579.440   -13708367.792 8 -10661997.73446  22344578.870    22344589.5974
  21583832.907   -16833222.862 9 -11803162.72047  21583832.254    21583840.0354
  21455013.617   -20942743.669 9 -15414945.56547  21455013.064    21455021.2134
  23691215.072   -11951819.819 8  -9301118.24345  23691214.723    23691226.4744
  24028179.938    -4211861.810 7  -3258273.91345  24028179.248    24028191.7964
  20513207.136   -27621861.161 9 -20943646.77047  20513206.363    20513214.0804
  20852846.408   -23700935.742 9 -16111759.66447  20852845.925    20852852.0944
  22603121.425   -10305555.972 8  -8002618.08546  22603121.195    22603133.4834
 01  4 25  0 35  0.0000000  0 10 17 03 14 23 21 09 31 15 18 29
  21342230.386   -21679081.688 8 -16863686.85647  21342229.802    21342238.6184
  21756087.067   -15624898.300 8 -12144823.72247  21756086.725    21756095.4104
  22326141.782   -13805257.339 8 -10737495.82746  22326141.265    22326151.9004
  21592191.210   -16789299.749 9 -11768936.92547  21592190.548    21592198.3534
  21450233.235   -20967864.598 9 -15434520.25447  21450232.673    21450240.7984
  23683882.532   -11990351.641 7  -9331142.90045  23683882.231    23683893.8544
  24012747.006    -4292961.924 7  -3321468.62045  24012746.312    24012758.6514
  20517173.336   -27601018.484 9 -20927405.71447  20517172.577    20517180.2724
  20859775.370   -23664523.773 9 -16083386.69947  20859774.908    20859781.0534
  22584887.669   -10401373.709 8  -8077280.97646  22584887.458    22584899.6714
 01  4 25  0 35 30.0000000  0 10 17 03 14 23 21 09 31 15 18 29
  21351032.439   -21632826.663 8 -16827644.02347  21351031.858    21351040.6964
  21751082.018   -15651199.897 9 -12165318.44147  21751081.679    21751090.3444
  22307760.939   -13901848.320 8 -10812761.28446  22307760.439    22307771.0124
  21600570.451   -16745266.671 9 -11734625.44947  21600569.777    21600577.5854
  21445487.686   -20992802.639 9 -15453952.44547  21445487.108    21445495.2174
  23676632.784   -12028448.614 8  -9360828.72445  23676632.448    23676644.0574
  23997384.327    -4373692.727 8  -3384375.55045  23997383.598    23997395.9224
  20521207.774   -27579817.466 9 -20910885.44847  20521207.004    20521214.7034
  20866744.872   -23627898.818 9 -16054847.78247  20866744.423    20866750.5644
  22566703.089   -10496933.140 8  -8151742.58846  22566702.907    22566715.0024
 01  4 25  0 36  0.0000000  0 10 17 03 14 23 21 09 31 15 18 29
  21359898.842   -21586233.453 8 -16791337.66047  21359898.250    21359907.1224
  21746183.403   -15676942.247 9 -12185377.38447  21746183.041    21746191.7014
  22289437.279   -13998138.750 8 -10887792.54546  22289436.834    22289447.3084
  21608970.375   -16701124.832 9 -11700229.21747  21608969.712    21608977.5094
  21440776.797   -21017558.299 9 -15473242.51547  21440776.210    21440784.3054
  23669466.205   -12066108.650 8  -9390174.08145  23669465.880    23669477.4464
  23982092.249    -4454052.279 8  -3446993.18045  23982091.494    23982103.6914
  20525310.450   -27558257.686 9 -20894085.61747  20525309.684    20525317.3644
  20873754.575   -23591062.596 9 -16026144.23947  20873754.111    20873760.2444
  22548568.054   -10592232.497 8  -8226001.54446  22548567.822    22548579.9214
 01  4 25  0 36 30.0000000  0 10 17 03 14 23 21 09 31 15 18 29
  21368829.695   -21539301.507 8 -16754767.35047  21368829.107    21368837.9974
  21741391.401   -15702124.372 9 -12204999.78547  21741391.038    21741399.6694
  22271171.318   -14094126.043 8 -10962587.59246  22271170.860    22271181.2824
  21617390.809   -16656875.177 9 -11665748.97447  21617390.142    21617397.9284
  21436100.556   -21042131.885 9 -15492390.70847  21436099.967    21436108.0624
  23662383.290   -12103329.317 8  -9419177.06545  23662382.884    23662394.5394
  23966871.398    -4534037.734 8  -3509319.32245  23966870.631    23966882.8074
  20529481.534   -27536338.499 9 -20877005.73447  20529480.776    20529488.4794
  20880804.308   -23554016.061 9 -15997276.81747  20880803.840    20880809.9924
  22530482.961   -10687269.387 8  -8300055.98846  22530482.712    22530494.7324
 01  4 25  0 37  0.0000000  0 10 17 03 14 23 21 09 31 15 18 29
  21377825.063   -21492030.693 8 -16717932.98847  21377824.500    21377833.3764
  21736706.100   -15726745.662 9 -12224185.17147  21736705.732    21736714.3744
  22252963.441   -14189808.099 8 -11037144.79646  22252962.955    22252973.3544
  21625831.513   -16612518.942 9 -11631185.68047  21625830.849    21625838.6314
  21431458.815   -21066524.179 9 -15511397.63647  21431458.220    21431466.3424
  23655384.435   -12140107.958 8  -9447835.61845  23655384.060    23655395.7814
  23951722.127    -4613647.030 8  -3571352.36745  23951721.439    23951733.3964
  20533721.138   -27514059.320 9 -20859645.33547  20533720.381    20533728.0994
  20887893.800   -23516760.652 9 -15968246.63647  20887893.322    20887899.4534
  22512448.146   -10782041.921 8  -8373904.43846  22512447.888    22512459.8184
 01  4 25  0 37 30.0000000  0 10 17 03 14 23 21 09 31 15 18 29
  21386885.038   -21444420.431 8 -16680834.13047  21386884.458    21386893.3604
  21732127.732   -15750804.922 9 -12242932.62047  21732127.351    21732136.0114
  22234814.216   -14285182.199 8 -11111462.03746  22234813.709    22234824.0624
  21634292.412   -16568056.719 9 -11596539.79847  21634291.722    21634299.5314
  21426851.519   -21090735.569 9 -15530263.59847  21426850.920    21426859.0274
  23648470.134   -12176442.295 7  -9476147.95545  23648469.725    23648481.3194
  23936644.932    -4692877.240 8  -3633090.02745  23936644.226    23936656.1954
  20538029.410   -27491419.122 9 -20842003.62447  20538028.639    20538036.3824
  20895022.843   -23479297.380 9 -15939054.48447  20895022.357    20895028.4794
  22494464.153   -10876547.444 8  -8447544.84046  22494463.907    22494475.7574
 01  4 25  0 38  0.0000000  0 10 17 03 14 23 21 09 31 15 18 29
  21396009.608   -21396470.568 8 -16643470.63747  21396009.041    21396017.9774
  21727656.348   -15774301.862 9 -12261241.89747  21727655.977    21727664.6454
  22216723.963   -14380246.145 8 -11185537.61446  22216723.443    22216733.7084
  21642773.248   -16523489.674 9 -11561812.23747  21642772.560    21642780.3834
  21422278.333   -21114767.468 9 -15548989.69847  21422277.756    21422285.8374
  23641640.791   -12212330.070 8  -9504112.32945  23641640.553    23641651.9514
  23921640.283    -4771726.252 8  -3694530.65045  23921639.644    23921651.6334
  20542406.517   -27468417.273 9 -20824080.11547  20542405.738    20542413.4964
  20902191.244   -23441627.329 9 -15909701.20147  20902190.745    20902196.8774
  22476531.335   -10970784.052 8  -8520975.68846  22476531.092    22476542.8274
 01  4 25  0 38 30.0000000  0 10 17 03 14 23 21 09 31 15 18 29
  21405198.836   -21348180.905 8 -16605842.37847  21405198.299    21405207.2544
  21723292.230   -15797235.436 9 -12279112.18947  21723291.888    21723300.5124
  22198693.200   -14474997.577 8 -11259369.66046  22198692.685    22198702.9324
  21651273.856   -16478818.780 9 -11527003.75347  21651273.185    21651280.9914
  21417739.279   -21138620.138 9 -15567576.13847  21417738.698    21417746.7784
  23634896.931   -12247768.849 8  -9531726.84045  23634896.711    23634908.1384
  23906708.720    -4850191.452 8  -3755672.22645  23906707.991    23906720.0294
  20546852.509   -27445053.269 9 -20805874.40647  20546851.741    20546859.5244
  20909398.751   -23403751.650 9 -15880187.69147  20909398.265    20909404.3974
  22458650.063   -11064749.522 8  -8594195.25546  22458649.831    22458661.5304
 01  4 25  0 39  0.0000000  0 10 17 03 14 23 21 09 31 15 18 29
  21414452.746   -21299551.343 8 -16567949.25347  21414452.183    21414461.1834
  21719035.338   -15819605.445 9 -12296543.34047  21719034.975    21719043.5944
  22180722.287   -14569434.342 8 -11332956.52546  22180721.756    22180731.9144
  21659793.953   -16434045.273 9 -11492115.31347  21659793.287    21659801.0684
  21413234.187   -21162294.252 9 -15586023.44347  21413233.607    21413241.6884
  23628238.825   -12282756.721 8  -9558989.98445  23628238.542    23628250.0194
  23891850.655    -4928270.698 8  -3816513.05845  23891849.966    23891861.8674
  20551367.537   -27421326.712 9 -20787386.19247  20551366.775    20551374.5454
  20916645.044   -23365671.874 9 -15850515.14447  20916644.548    20916650.7184
  22440820.773   -11158442.045 8  -8667202.14046  22440820.543    22440832.1674
 01  4 25  0 39 30.0000000  0 10 17 03 14 23 21 09 31 15 18 29
  21423771.459   -21250581.305 8 -16529790.82847  21423770.902    21423779.9294
  21714885.870   -15841410.888 9 -12313534.57747  21714885.527    21714894.1124
  22162811.795   -14663553.833 8 -11406296.16346  22162811.245    22162821.3554
  21668333.502   -16389169.606 9 -11457147.27047  21668332.845    21668340.6344
  21408763.100   -21185789.837 9 -15604331.63947  21408762.522    21408770.5694
  23621667.096   -12317290.793 8  -9585899.52145  23621666.830    23621678.3504
  23877066.485    -5005961.499 8  -3877051.21545  23877065.841    23877077.5654
  20555951.736   -27397236.534 9 -20768614.63047  20555950.951    20555958.7444
  20923930.057   -23327388.863 9 -15820684.23447  20923929.555    20923935.7444
  22423043.893   -11251859.109 8  -8739994.39946  22423043.640    22423055.1994
 01  4 25  0 40  0.0000000  0 10 17 03 14 23 21 09 31 15 18 29
  21433154.988   -21201270.633 8 -16491366.96847  21433154.456    21433163.4844
  21710843.942   -15862651.190 9 -12330085.43847  21710843.596    21710852.1504
  22144962.081   -14757353.618 8 -11479386.68246  22144961.543    22144971.6254
  21676892.281   -16344192.876 9 -11422100.47647  21676891.630    21676899.4074
  21404325.813   -21209107.664 9 -15622501.32147  21404325.234    21404333.2604
  23615182.136   -12351369.086 8  -9612453.90745  23615181.890    23615193.4414
  23862356.710    -5083261.417 8  -3937284.80345  23862356.105    23862367.7184
  20560605.207   -27372782.286 9 -20749559.37847  20560604.440    20560612.2054
  20931253.472   -23288903.934 9 -15790695.98147  20931252.985    20931259.1864
  22405319.853   -11344998.689 8  -8812570.42546  22405319.561    22405331.0594
 01  4 25  0 40 30.0000000  0 10 17 03 14 23 21 09 31 15 18 29
  21442603.465   -21151618.910 8 -16452677.34947  21442602.915    21442611.9444
  21706909.722   -15883325.657 9 -12346195.39647  21706909.389    21706917.8924
  22127173.603   -14850831.614 8 -11552226.45946  22127173.077    22127183.1004
  21685470.169   -16299115.976 9 -11386975.62547  21685469.502    21685477.2594
  21399922.131   -21232249.049 9 -15640533.52347  21399921.543    21399929.5314
  23608784.291   -12384989.140 8  -9638651.23245  23608784.040    23608795.5714
  23847721.780    -5160168.101 8  -3997211.97245  23847721.146    23847732.7564
  20565328.106   -27347963.372 9 -20730219.97047  20565327.350    20565335.0894
  20938615.091   -23250218.304 9 -15760551.33847  20938614.619    20938620.8274
  22387649.005   -11437858.557 8  -8884928.49146  22387648.724    22387660.1204
 01  4 25  0 41  0.0000000  0 10 17 03 14 23 21 09 31 15 18 29
  21452116.776   -21101626.274 8 -16413722.08647  21452116.229    21452125.2584
  21703083.238   -15903433.946 9 -12361864.17547  21703082.888    21703091.3944
  22109446.763   -14943985.801 8 -11624813.92046  22109446.229    22109456.2524
  21694066.832   -16253940.226 9 -11351773.75047  21694066.171    21694073.9144
  21395551.883   -21255214.600 9 -15658428.70747  21395551.288    21395559.2784
  23602474.126   -12418149.021 7  -9664489.95945  23602473.728    23602485.3334
  23833162.114    -5236679.217 8  -4056830.90745  23833161.536    23833173.0564
  20570120.447   -27322779.531 9 -20710596.20547  20570119.682    20570127.4024
  20946014.680   -23211333.229 9 -15730251.28447  20946014.186    20946020.4314
  22370031.721   -11530436.945 8  -8957067.23546  22370031.460    22370042.7874
 01  4 25  0 41 30.0000000  0 10 17 03 14 23 21 09 31 15 18 29
  21461695.027   -21051292.383 8 -16374500.90647  21461694.478    21461703.5114
  21699364.615   -15922975.246 9 -12377091.15547  21699364.273    21699372.7794
  22091782.053   -15036813.490 8 -11697146.97446  22091781.528    22091791.4914
  21702682.151   -16208666.480 9 -11316495.51547  21702681.496    21702689.2454
  21391215.028   -21278004.660 9 -15676187.15447  21391214.431    21391222.4214
  23596251.907   -12450846.307 8  -9689968.24645  23596251.594    23596263.0494
  23818678.190    -5312792.252 8  -4116139.66145  23818677.592    23818689.0774
  20574982.382   -27297230.000 9 -20690687.48147  20574981.607    20574989.3224
  20953451.988   -23172249.710 9 -15699796.59847  20953451.507    20953457.7704
  22352468.415   -11622731.661 8  -9028984.94346  22352468.129    22352479.3934
 01  4 25  0 42  0.0000000  0 10 17 03 14 23 21 09 31 15 18 29
  21471338.211   -21000617.223 8 -16335013.80447  21471337.652    21471346.6964
  21695754.027   -15941948.875 9 -12391875.78447  21695753.672    21695762.1604
  22074179.862   -15129312.793 8 -11769224.15046  22074179.374    22074189.2344
  21711315.925   -16163295.737 9 -11281141.69747  21711315.269    21711323.0384
  21386911.496   -21300619.571 9 -15693809.12047  21386910.900    21386918.8814
  23590118.180   -12483079.000 8  -9715084.50945  23590117.862    23590129.2884
  23804270.377    -5388505.182 8  -4175136.63245  23804269.838    23804281.2134
  20579913.980   -27271314.402 9 -20670493.51247  20579913.203    20579920.9074
  20960926.815   -23132969.242 9 -15669188.44647  20960926.353    20960932.5974
  22334959.464   -11714740.709 8  -9100680.04246  22334959.200    22334970.4024
 01  4 25  0 42 30.0000000  0 10 17 03 14 23 21 09 31 15 18 29
  21481046.428   -20949600.356 8 -16295260.43847  21481045.871    21481054.9254
  21692251.566   -15960354.473 9 -12406217.79547  21692251.207    21692259.6664
  22056640.623   -15221481.296 8 -11841043.56046  22056640.146    22056649.9424
  21719967.992   -16117828.723 9 -11245712.87447  21719967.330    21719975.1174
  21382641.154   -21323060.024 9 -15711295.14447  21382640.556    21382648.5304
  23584073.274   -12514844.556 8  -9739836.77445  23584072.886    23584084.4294
  23789939.132    -5463815.579 8  -4233819.94645  23789938.629    23789949.9464
  20584915.376   -27245031.839 9 -20650013.60347  20584914.600    20584922.3114
  20968439.006   -23093492.630 9 -15638427.45547  20968438.522    20968444.7594
  22317505.301   -11806461.814 8  -9172150.78846  22317505.023    22317516.1734
 01  4 25  0 43  0.0000000  0 10 17 03 14 23 21 09 31 15 18 29
  21490819.691   -20898241.606 8 -16255240.67347  21490819.125    21490828.2014
  21688857.280   -15978191.393 9 -12420116.68447  21688856.927    21688865.3494
  22039164.799   -15313316.532 8 -11912603.28346  22039164.325    22039174.0944
  21728638.241   -16072266.183 9 -11210209.60647  21728637.597    21728645.3854
  21378403.994   -21345326.273 9 -15728645.42947  21378403.399    21378411.3554
  23578117.704   -12546141.158 8  -9764223.59845  23578117.369    23578128.7704
  23775684.955    -5538721.097 8  -4292187.75745  23775684.397    23775695.9324
  20589986.722   -27218381.704 9 -20629247.27747  20589985.939    20589993.7034
  20975988.238   -23053821.119 9 -15607514.58847  20975987.766    20975993.9804
  22300106.296   -11897893.010 8  -9243395.63446  22300106.089    22300117.1524
 01  4 25  0 43 30.0000000  0 10 17 03 14 23 21 09 31 15 18 29
  21500658.021   -20846540.777 8 -16214954.35447  21500657.464    21500666.5444
  21685571.302   -15995459.361 9 -12433572.22747  21685570.942    21685579.3644
  22021752.817   -15404816.340 8 -11983901.64146  22021752.318    22021762.0504
  21737326.547   -16026609.017 9 -11174632.60247  21737325.902    21737333.7104
  21374199.784   -21367419.488 9 -15745860.88347  21374199.200    21374207.1134
  23572251.790   -12576966.306 8  -9788243.08745  23572251.470    23572262.7704
  23761508.256    -5613219.469 8  -4350238.31145  23761507.681    23761519.2364
  20595128.096   -27191363.483 9 -20608194.12647  20595127.310    20595135.0944
  20983574.368   -23013955.776 9 -15576450.67947  20983573.884    20983580.1114
  22282762.867   -11989032.109 8  -9314412.87246  22282762.665    22282773.6834
 01  4 25  0 44  0.0000000  0 10 17 03 14 23 21 09 31 15 18 29
  21510561.498   -20794497.770 8 -16174401.39847  21510560.948    21510570.0264
  21682393.617   -16012158.059 9 -12446584.18747  21682393.242    21682401.6714
  22004405.084   -15495978.459 8 -12054936.86546  22004404.578    22004414.2364
  21746032.634   -15980858.169 9 -11138982.60547  21746031.985    21746039.8154
  21370028.415   -21389340.234 9 -15762941.94547  21370027.838    21370035.6914
  23566475.981   -12607317.851 8  -9811893.52245  23566475.619    23566486.9354
  23747409.497    -5687308.337 8  -4407969.77045  23747408.901    23747420.4894
  20600339.594   -27163976.778 9 -20586853.84447  20600338.832    20600346.6214
  20991197.197   -22973897.556 9 -15545236.48147  20991196.697    20991202.9654
  22265475.426   -12079877.157 8  -9385200.98646  22265475.222    22265486.2464
 01  4 25  0 44 30.0000000  0 10 17 03 14 23 21 09 31 15 18 29
  21520530.133   -20742112.308 8 -16133581.60546  21520529.597    21520538.6484
  21679324.461   -16028286.543 9 -12459151.81947  21679324.086    21679332.5204
  21987122.061   -15586800.572 8 -12125707.14546  21987121.553    21987131.1624
  21754756.403   -15935014.475 9 -11103260.25947  21754755.756    21754763.6024
  21365889.760   -21411088.953 9 -15779888.96047  21365889.173    21365896.9964
  23560790.663   -12637193.678 8  -9835173.27345  23560790.325    23560801.7984
  23733389.138    -5760985.242 8  -4465380.20045  23733388.567    23733400.1004
  20605621.391   -27136220.841 9 -20565225.84447  20605620.626    20605628.3854
  20998856.492   -22933647.639 9 -15513872.91447  20998855.985    20998862.2354
  22248244.349   -12170425.886 8  -9455758.22546  22248244.161    22248255.1264
 01  4 25  0 45  0.0000000  0 10 17 03 14 23 21 09 31 15 18 29
  21530564.024   -20689384.126 8 -16092494.76146  21530563.471    21530572.4974
  21676363.799   -16043844.750 9 -12471275.08647  21676363.426    21676371.8574
  21969904.191   -15677280.468 8 -12196210.76346  21969903.652    21969913.2194
  21763497.703   -15889078.804 9 -11067466.25047  21763497.064    21763504.9254
  21361783.752   -21432665.924 9 -15796702.14847  21361783.175    21361790.9654
  23555196.267   -12666591.798 8  -9858080.78445  23555195.977    23555207.4314
  23719447.658    -5834247.764 8  -4522467.73545  23719447.028    23719458.5984
  20610973.565   -27108095.062 9 -20543309.66047  20610972.810    20610980.5264
  21006552.044   -22893207.234 9 -15482360.91247  21006551.557    21006557.7854
  22231070.051   -12260676.428 8  -9526083.09446  22231069.851    22231080.7964
 01  4 25  0 45 30.0000000  0 10 17 03 14 23 21 09 31 15 18 29
  21540662.989   -20636313.832 8 -16051141.32846  21540662.440    21540671.4294
  21673511.735   -16058832.511 9 -12482953.84047  21673511.360    21673519.8004
  21952751.765   -15767416.355 8 -12266446.32146  21952751.227    21952760.7354
  21772256.205   -15843052.547 9 -11031601.64447  21772255.551    21772263.4374
  21357710.173   -21454072.479 9 -15813382.54047  21357709.595    21357717.3904
  23549693.117   -12695510.518 8  -9880614.72345  23549692.867    23549704.2654
  23705585.309    -5907094.362 8  -4579231.17245  23705584.715    23705596.2574
  20616396.135   -27079599.439 9 -20521105.27947  20616395.357    20616403.0904
  21014283.503   -22852578.141 9 -15450701.87847  21014283.005    21014289.2374
  22213952.791   -12350627.141 8  -9596174.33446  22213952.601    22213963.4714
 01  4 25  0 46  0.0000000  0 10 17 03 14 23 21 09 31 15 18 29
  21550827.260   -20582900.543 8 -16009520.63746  21550826.703    21550835.7074
  21670768.408   -16073248.898 9 -12494187.36647  21670768.039    21670776.4274
  21935665.309   -15857205.613 8 -12336411.78446  21935664.786    21935674.2094
  21781031.941   -15796935.871 9 -10995666.58847  21781031.256    21781039.1584
  21353669.078   -21475308.442 9 -15829930.00747  21353668.503    21353676.2834
  23544281.736   -12723947.161 8  -9902773.03345  23544281.493    23544292.8464
  23691802.671    -5979522.055 8  -4635668.19445  23691802.047    23691813.5844
  20621889.263   -27050732.771 9 -20498611.78347  20621888.474    20621896.2204
  21022050.843   -22811760.629 9 -15418896.02647  21022050.347    21022056.5934
  22196893.100   -12440275.470 8  -9666029.95346  22196892.921    22196903.7394
 01  4 25  0 46 30.0000000  0 10 17 03 14 23 21 09 31 15 18 29
  21561056.715   -20529144.536 8 -15967632.88646  21561056.151    21561065.1664
  21668133.737   -16087094.127 9 -12504975.83447  21668133.363    21668141.7514
  21918645.189   -15946646.259 8 -12406105.60046  21918644.668    21918654.0474
  21789824.614   -15750730.077 9 -10959662.09547  21789823.939    21789831.8114
  21349660.203   -21496375.073 9 -15846345.52947  21349659.628    21349667.3864
  23538962.393   -12751900.163 8  -9924554.47045  23538962.096    23538973.4284
  23678100.104    -6051528.977 8  -4691777.33645  23678099.503    23678111.0444
  20627453.016   -27021495.016 9 -20475829.13047  20627452.222    20627459.9804
  21029853.720   -22770756.341 9 -15386944.64447  21029853.196    21029859.4764
  22179891.312   -12529619.625 8  -9735648.56246  22179891.111    22179901.9014
 01  4 25  0 47  0.0000000  0 10 17 03 14 23 21 09 31 15 18 29
  21571351.472   -20475045.464 8 -15925477.82346  21571350.924    21571359.9254
  21665607.917   -16100367.453 9 -12515318.65847  21665607.542    21665615.9034
  21901691.845   -16035735.947 8 -12475525.93146  21901691.315    21901700.6274
  21798634.089   -15704435.851 9 -10923588.69047  21798633.420    21798641.2924
  21345683.462   -21517272.915 9 -15862629.52347  21345682.891    21345690.6214
  23533735.500   -12779367.271 8  -9945957.27945  23533735.144    23533746.5354
  23664478.014    -6123112.887 8  -4747556.85445  23664477.453    23664488.9804
  20633087.482   -26991885.658 9 -20452756.91347  20633086.691    20633094.4694
  21037691.975   -22729565.972 9 -15354848.26147  21037691.459    21037697.7334
  22162947.766   -12618657.664 8  -9805028.63746  22162947.561    22162958.2824
 01  4 25  0 47 30.0000000  0 10 17 03 14 23 21 09 31 15 18 29
  21581711.540   -20420603.323 8 -15883055.43246  21581710.972    21581719.9444
  21663190.883   -16113068.905 9 -12525215.86647  21663190.505    21663198.8614
  21884805.695   -16124472.530 8 -12544671.12546  21884805.175    21884814.4474
  21807460.298   -15658053.962 9 -10887446.97747  21807459.630    21807467.5034
  21341738.810   -21538002.129 9 -15878782.11947  21341738.222    21341745.9744
  23528601.459   -12806346.350 8  -9966979.81245  23528601.050    23528612.5294
  23650936.861    -6194271.517 8  -4803004.99245  23650936.248    23650947.7714
  20638792.769   -26961904.197 9 -20429394.74147  20638791.982    20638799.7714
  21045565.411   -22688190.729 9 -15322607.82247  21045564.919    21045571.1464
  22146062.871   -12707387.378 8  -9874168.45146  22146062.660    22146073.3364
 01  4 25  0 48  0.0000000  0 10 17 03 14 23 21 09 31 15 18 29
  21592136.883   -20365817.938 8 -15840365.58446  21592136.305    21592145.3174
  21660882.765   -16125198.147 9 -12534667.19847  21660882.403    21660890.7474
  21867987.151   -16212853.759 8 -12613539.42146  21867986.638    21867995.8554
  21816303.026   -15611585.207 9 -10851237.57847  21816302.358    21816310.2494
  21337826.108   -21558563.312 9 -15894803.77847  21337825.541    21337833.2554
  23523560.620   -12832835.520 8  -9987620.59945  23523560.248    23523571.6724
  23637477.071    -6265002.655 8  -4858120.01245  23637476.476    23637487.9924
  20644568.983   -26931549.922 9 -20405742.06747  20644568.203    20644576.0094
  21053473.861   -22646631.714 9 -15290224.18047  21053473.354    21053479.5444
  22129237.024   -12795806.870 8  -9943066.52546  22129236.819    22129247.4134
 01  4 25  0 48 30.0000000  0 10 17 03 14 23 21 09 31 15 18 29
  21602627.522   -20310689.350 8 -15797408.30146  21602626.973    21602635.9844
  21658683.493   -16136755.071 9 -12543672.56447  21658683.136    21658691.5034
  21851236.637   -16300877.623 8 -12682129.25147  21851236.094    21851245.2594
  21825162.075   -15565030.681 9 -10814961.34347  21825161.415    21825169.2974
  21333945.315   -21578956.896 9 -15910694.84447  21333944.748    21333952.4434
  23518613.427   -12858833.043 8 -10007878.27345  23518613.053    23518624.3894
  23624099.007    -6335304.112 8  -4912900.23545  23624098.437    23624109.9034
  20650416.204   -26900822.510 9 -20381798.63947  20650415.435    20650423.2504
  21061417.084   -22604889.927 9 -15257698.11947  21061416.565    21061422.7394
  22112470.607   -12883914.166 8 -10011721.34646  22112470.386    22112480.9614
 01  4 25  0 49  0.0000000  0 10 17 03 14 23 21 09 31 15 18 29
  21613183.564   -20255217.145 8 -15754183.26746  21613183.004    21613192.0654
  21656593.335   -16147739.007 9 -12552231.44647  21656592.953    21656601.3344
  21834554.600   -16388541.606 8 -12750438.65547  21834554.033    21834563.1754
  21834037.370   -15518390.708 9 -10778618.52747  21834036.721    21834044.6134
  21330096.309   -21599183.424 9 -15926455.73347  21330095.722    21330103.4354
  23513760.251   -12884336.579 8 -10027751.03045  23513759.843    23513771.1594
  23610803.232    -6405173.168 8  -4967343.50045  23610802.642    23610814.1014
  20656334.574   -26869721.288 9 -20357563.93647  20656333.808    20656341.6174
  21069394.891   -22562966.212 9 -15225030.30247  21069394.382    21069400.5834
  22095764.028   -12971706.969 8 -10080131.10046  22095763.801    22095774.3294
 01  4 25  0 49 30.0000000  0 10 17 03 14 23 21 09 31 15 18 29
  21623804.921   -20199401.761 8 -15710690.82346  21623804.372    21623813.4534
  21654612.149   -16158150.075 9 -12560343.94047  21654611.774    21654620.1424
  21817941.297   -16475844.239 8 -12818466.49247  21817940.744    21817949.8164
  21842928.708   -15471666.421 9 -10742210.02047  21842928.076    21842935.9664
  21326278.956   -21619243.656 9 -15942087.04347  21326278.375    21326286.0724
  23509001.377   -12909344.363 8 -10047237.48845  23509000.908    23509012.2584
  23597590.097    -6474608.217 8  -5021448.57745  23597589.499    23597600.9294
  20662324.123   -26838246.049 9 -20333037.78647  20662323.361    20662331.1754
  21077406.986   -22520862.286 9 -15192222.06247  21077406.495    21077412.7004
  22079117.591   -13059183.860 8 -10148294.69046  22079117.365    22079127.8344
 01  4 25  0 50  0.0000000  0 10 17 03 14 23 21 09 31 15 18 29
  21634491.702   -20143242.727 8 -15666930.60146  21634491.143    21634500.2584
  21652740.034   -16167987.947 9 -12568009.78847  21652739.640    21652747.9974
  21801397.279   -16562782.923 9 -12886210.73647  21801396.727    21801405.7364
  21851835.985   -15424858.358 9 -10705736.23047  21851835.349    21851843.2664
  21322493.101   -21639138.271 9 -15957589.29747  21322492.516    21322500.2254
  23504337.151   -12933854.329 8 -10066336.04345  23504336.657    23504348.0344
  23584459.991    -6543607.119 8  -5075213.80545  23584459.309    23584470.7494
  20668384.977   -26806396.188 9 -20308219.72847  20668384.215    20668392.0184
  21085453.253   -22478578.885 9 -15159273.97647  21085452.765    21085458.9764
  22062531.653   -13146342.642 8 -10216210.39646  22062531.378    22062541.8274
 01  4 25  0 50 30.0000000  0 10 17 03 14 23 21 09 31 15 18 29
  21645243.813   -20086740.271 8 -15622902.77346  21645243.250    21645252.3894
  21650977.074   -16177252.343 9 -12575228.77547  21650976.691    21650985.0494
  21784922.940   -16649355.470 9 -12953669.67447  21784922.382    21784931.3404
  21860759.062   -15377967.483 9 -10669197.91647  21860758.412    21860766.3194
  21318738.625   -21658867.861 9 -15972962.96447  21318738.045    21318745.7674
  23499768.019   -12957864.833 8 -10085045.41345  23499767.569    23499778.8784
  23571413.255    -6612167.557 8  -5128637.37045  23571412.601    23571423.9814
  20674517.169   -26774171.405 9 -20283109.53047  20674516.390    20674524.2144
  21093533.508   -22436116.977 9 -15126186.79447  21093532.991    21093539.2114
  22046006.640   -13233181.427 8 -10283876.76146  22046006.368    22046016.7484
 01  4 25  0 51  0.0000000  0 10 17 03 14 23 21 09 31 15 18 29
  21656061.314   -20029894.249 8 -15578607.22946  21656060.741    21656069.8944
  21649323.203   -16185943.194 9 -12582000.84447  21649322.826    21649331.1924
  21768518.652   -16735559.929 9 -13020841.79847  21768518.099    21768526.9954
  21869697.779   -15330994.463 9 -10632595.58647  21869697.104    21869705.0344
  21315015.467   -21678433.036 9 -15988208.51347  21315014.892    21315022.6284
  23495294.305   -12981373.749 8 -10103363.93345  23495293.837    23495305.1204
  23558450.369    -6680287.487 8  -5181717.67445  23558449.775    23558461.0254
  20680720.823   -26741571.099 9 -20257706.70947  20680720.055    20680727.8634
  21101647.520   -22393477.695 9 -15092961.39047  21101647.014    21101653.2224
  22029542.892   -13319698.117 8 -10351292.14846  22029542.625    22029552.9454
 01  4 25  0 51 30.0000000  0 10 17 03 14 23 21 09 31 15 18 29
  21666944.157   -19972704.854 8 -15534044.12546  21666943.567    21666952.7334
  21647778.469   -16194060.705 9 -12588326.15547  21647778.085    21647786.4864
  21752184.761   -16821394.409 9 -13087725.63447  21752184.197    21752193.0514
  21878651.920   -15283940.281 9 -10595930.01847  21878651.245    21878659.2004
  21311323.518   -21697834.051 9 -16003326.14947  21311322.948    21311330.7034
  23490916.344   -13004379.388 8 -10121290.29745  23490915.908    23490927.1814
  23545571.697    -6747964.794 8  -5234453.07745  23545571.071    23545582.3314
  20686995.969   -26708595.181 9 -20232011.20947  20686995.191    20687003.0194
  21109795.061   -22350662.092 9 -15059598.60047  21109794.573    21109800.7694
  22013140.766   -13405891.078 8 -10418455.27946  22013140.510    22013150.7674
 01  4 25  0 52  0.0000000  0 10 17 03 14 23 21 09 31 15 18 29
  21677891.650   -19915175.576 8 -15489216.17646  21677891.048    21677900.2454
  21646342.123   -16201608.511 9 -12594207.54547  21646341.720    21646350.1574
  21735921.061   -16906860.231 9 -13154322.20247  21735920.486    21735929.2734
  21887620.649   -15236809.330 8 -10559204.62347  21887619.976    21887627.9734
  21307661.946   -21717075.429 9 -16018319.39147  21307661.373    21307669.1184
  23486633.818   -13026883.724 8 -10138826.03445  23486633.412    23486644.6094
  23532777.020    -6815200.982 8  -5286844.75545  23532776.388    23532787.5664
  20693341.958   -26675246.764 9 -20206025.44647  20693341.168    20693349.0104
  21117975.258   -22307674.955 9 -15026102.14747  21117974.750    21117980.9874
  21996799.937   -13491761.953 8 -10485367.43746  21996799.663    21996809.8894
 01  4 25  0 52 30.0000000  0 10 17 03 14 23 21 09 31 15 18 29
  21688904.735   -19857301.795 8 -15444119.78646  21688904.124    21688913.2854
  21645015.144   -16208581.791 9 -12599641.24247  21645014.738    21645023.2144
  21719728.737   -16991950.771 9 -13220626.34247  21719728.145    21719736.9184
  21896604.771   -15189597.520 8 -10522416.22047  21896604.136    21896612.1344
  21304031.523   -21736153.437 9 -16033185.33247  21304030.946    21304038.6924
  23482447.934   -13048880.223 8 -10155966.05945  23482447.570    23482458.7114
  23520067.563    -6881989.072 8  -5338887.26445  23520066.897    23520078.0314
  20699759.785   -26641520.871 9 -20179745.54747  20699759.005    20699766.8594
  21126188.813   -22264512.410 9 -14992469.01047  21126188.314    21126194.5704
  21980521.601   -13577304.236 8 -10552023.54746  21980521.342    21980531.4934
 01  4 25  0 53  0.0000000  0 10 17 03 14 23 21 09 31 15 18 29
  21699983.403   -19799083.374 8 -15398754.84846  21699982.804    21699991.9594
  21643797.496   -16214980.585 9 -12604627.30547  21643797.071    21643805.5594
  21703608.258   -17076663.760 9 -13286636.29947  21703607.685    21703616.3904
  21905604.185   -15142305.459 9 -10485565.29547  21905603.536    21905611.5404
  21300432.241   -21755067.788 9 -16047923.75647  21300431.648    21300439.3654
  23478359.075   -13070366.871 8 -10172708.81845  23478358.671    23478369.9074
  23507443.828    -6948326.893 8  -5390578.90645  23507443.126    23507454.1674
  20706249.547   -26607416.861 9 -20153171.01747  20706248.782    20706256.6464
  21134435.550   -22221175.620 9 -14958700.10347  21134435.045    21134441.3254
  21964306.237   -13662515.751 8 -10618421.92846  21964305.968    21964316.0534
 01  4 25  0 53 30.0000000  0 10 17 03 14 23 21 09 31 15 18 29
  21711127.464   -19740521.356 8 -15353122.17246  21711126.869    21711136.0194
  21642688.982   -16220805.787 9 -12609166.40247  21642688.568    21642697.0424
  21687559.785   -17160998.444 9 -13352351.46547  21687559.215    21687567.8594
  21914618.567   -15094934.766 8 -10448653.09147  21914617.916    21914625.9164
  21296863.758   -21773820.082 9 -16062535.89947  21296863.149    21296870.8534
  23474367.420   -13091342.794 8 -10189053.59845  23474367.014    23474378.1994
  23494905.988    -7014213.345 8  -5441918.84945  23494905.315    23494916.1744
  20712811.148   -26572935.444 9 -20126302.40047  20712810.360    20712818.2354
  21142715.076   -22177666.493 9 -14924796.90547  21142714.553    21142720.8394
  21948153.937   -13747395.786 8 -10684562.01246  21948153.680    21948163.7424
 01  4 25  0 54  0.0000000  0 10 17 03 14 23 21 09 31 15 18 29
  21722336.919   -19681615.446 8 -15307221.51846  21722336.319    21722345.5034
  21641689.690   -16226056.890 9 -12613258.15547  21641689.270    21641697.7694
  21671583.760   -17244952.168 9 -13417769.79047  21671583.215    21671591.8094
  21923647.806   -15047485.923 9 -10411679.98747  21923647.145    21923655.1444
  21293326.100   -21792410.401 9 -16077021.83247  21293325.488    21293333.1914
  23470473.319   -13111806.028 8 -10204998.88045  23470472.899    23470484.1024
  23482454.392    -7079646.134 8  -5492905.29445  23482453.705    23482464.5234
  20719444.739   -26538075.827 9 -20099139.07847  20719443.947    20719451.8394
  21151027.255   -22133985.859 9 -14890760.06247  21151026.739    21151032.9794
  21932065.151   -13831942.137 8 -10750442.08846  21932064.868    21932074.9214
 01  4 25  0 54 30.0000000  0 10 17 03 14 23 21 09 31 15 18 29
  21733611.797   -19622365.897 8 -15261053.10046  21733611.204    21733620.4064
  21640799.588   -16230734.264 9 -12616902.85147  21640799.186    21640807.6824
  21655680.603   -17328523.141 9 -13482889.85947  21655680.055    21655688.6334
  21932691.730   -14999959.922 9 -10374646.75747  21932691.064    21932699.0774
  21289819.059   -21810839.863 9 -16091382.42047  21289818.455    21289826.1674
  23466677.028   -13131755.225 8 -10220543.61645  23466676.578    23466687.8004
  23470089.475    -7144623.749 8  -5543537.05345  23470088.786    23470099.5184
  20726150.302   -26502837.854 9 -20071680.93047  20726149.515    20726157.4074
  21159371.874   -22090134.541 9 -14856590.21347  21159371.372    21159377.6074
  21916040.194   -13916152.989 8 -10816060.73946  21916039.912    21916049.9264
 01  4 25  0 55  0.0000000  0 10 17 03 14 23 21 09 31 15 18 29
  21744951.929   -19562773.027 8 -15214617.17046  21744951.363    21744960.5994
  21640018.529   -16234838.382 9 -12620100.86047  21640018.147    21640026.6474
  21639850.607   -17411709.499 9 -13547710.24447  21639850.044    21639858.5944
  21941750.192   -14952357.668 8 -10337554.11247  21941749.513    21941757.5364
  21286342.454   -21829109.269 9 -16105618.29447  21286341.862    21286349.5734
  23462978.811   -13151188.786 8 -10235686.56445  23462978.468    23462989.6244
  23457811.536    -7209144.066 8  -5593812.48045  23457810.857    23457821.4804
  20732927.973   -26467221.081 9 -20043927.61747  20732927.203    20732935.0814
  21167748.682   -22046114.060 9 -14822288.55547  21167748.183    21167754.4194
  21900079.336   -14000026.944 8 -10881416.88346  21900079.051    21900089.0404
 01  4 25  0 55 30.0000000  0 10 17 03 14 23 21 09 31 15 18 29
  21756357.492   -19502836.541 8 -15167913.47046  21756356.927    21756366.2094
  21639346.689   -16238368.717 9 -12622851.76047  21639346.302    21639354.8164
  21624094.241   -17494508.985 9 -13612229.15947  21624093.682    21624102.1824
  21950823.087   -14904679.422 8 -10300402.25447  21950822.402    21950830.4104
  21282896.441   -21847218.209 9 -16119729.12747  21282895.838    21282903.5484
  23459379.106   -13170104.729 8 -10250426.16945  23459378.800    23459389.8414
  23445621.057    -7273204.542 8  -5643729.60045  23445620.385    23445631.0744
  20739777.795   -26431225.092 9 -20015878.81547  20739777.021    20739784.9164
  21176157.594   -22001924.785 9 -14787855.36847  21176157.121    21176163.3834
  21884183.080   -14083561.594 8 -10946508.62446  21884182.806    21884192.7414
 01  4 25  0 56  0.0000000  0 10 17 03 14 23 21 09 31 15 18 29
  21767828.393   -19442556.771 8 -15120942.28346  21767827.816    21767837.1004
  21638783.955   -16241325.769 9 -12625155.95047  21638783.562    21638792.0904
  21608411.840   -17576919.907 9 -13676445.30047  21608411.288    21608419.7574
  21959910.188   -14856926.325 8 -10263192.06847  21959909.511    21959917.5074
  21279480.671   -21865168.038 9 -16133715.97747  21279480.073    21279487.7744
  23455878.226   -13188501.756 8 -10264761.43145  23455877.904    23455888.9024
  23433518.436    -7336803.537 8  -5693287.13445  23433517.794    23433528.4044
  20746699.740   -26394849.962 9 -19987534.57147  20746698.959    20746706.8684
  21184598.378   -21957568.307 9 -14753291.89647  21184597.888    21184604.1474
  21868351.648   -14166755.463 8 -11011334.83046  21868351.376    21868361.2864
 01  4 25  0 56 30.0000000  0 10 17 03 14 23 21 09 31 15 18 29
  21779364.593   -19381934.084 8 -15073703.89246  21779364.000    21779373.2904
  21638330.238   -16243710.042 9 -12627013.81947  21638329.826    21638338.3594
  21592803.696   -17658940.453 9 -13740357.25547  21592803.144    21592811.5804
  21969011.429   -14809099.116 8 -10225924.14147  21969010.760    21969018.7454
  21276095.006   -21882959.743 9 -16147579.61047  21276094.406    21276102.1064
  23452476.397   -13206378.227 8 -10278691.07245  23452476.189    23452487.0824
  23421503.944    -7399939.401 8  -5742483.77445  23421503.290    23421513.8914
  20753693.889   -26358095.642 9 -19958894.85447  20753693.107    20753701.0074
  21193070.779   -21913045.727 9 -14718598.98547  21193070.293    21193076.5644
  21852585.385   -14249606.946 8 -11075894.24046  21852585.100    21852594.9774
 01  4 25  0 57  0.0000000  0 10 17 03 14 23 21 09 31 15 18 29
  21790965.907   -19320968.731 8 -15026198.48546  21790965.349    21790974.6674
  21637985.494   -16245521.670 8 -12628425.47647  21637985.075    21637993.6284
  21577270.202   -17740568.968 9 -13803963.72647  21577269.647    21577278.0584
  21978126.595   -14761198.654 8 -10188599.11547  21978125.920    21978133.8784
  21272739.358   -21900593.565 9 -16161320.21647  21272738.749    21272746.4524
  23449173.903   -13223732.797 8 -10292214.03545  23449173.635    23449184.5634
  23409577.927    -7462610.299 8  -5791318.11745  23409577.277    23409587.9294
  20760760.199   -26320961.927 9 -19929959.50547  20760759.415    20760767.3164
  21201574.534   -21868358.247 9 -14683777.58347  21201574.026    21201580.2994
  21836884.605   -14332114.466 8 -11140185.62946  21836884.330    21836894.1484
 01  4 25  0 57 30.0000000  0 10 17 03 14 23 21 09 31 15 18 29
  21802632.493   -19259660.521 8 -14978425.92846  21802631.922    21802641.3274
  21637749.701   -16246760.744 9 -12629390.99047  21637749.288    21637757.8114
  21561811.762   -17821803.050 9 -13867262.85247  21561811.209    21561819.5824
  21987255.654   -14713225.305 9 -10151217.30747  21987254.940    21987262.9304
  21269413.738   -21918069.691 9 -16174937.94447  21269413.142    21269420.8334
  23445971.020   -13240563.714 8 -10305328.95545  23445970.663    23445981.6614
  23397740.866    -7524813.939 8  -5839788.36145  23397740.221    23397750.8534
  20767898.852   -26283448.085 9 -19900727.95547  20767898.054    20767905.9924
  21210109.540   -21823506.484 9 -14648828.17047  21210109.037    21210115.3104
  21821249.652   -14414275.906 8 -11204207.34946  21821249.384    21821259.1464
 01  4 25  0 58  0.0000000  0 10 17 03 14 23 21 09 31 15 18 29
  21814364.253   -19198009.865 8 -14930386.53346  21814363.670    21814373.1544
  21637622.739   -16247427.876 9 -12629910.83747  21637622.316    21637630.8454
  21546428.622   -17902641.257 9 -13930253.50247  21546428.059    21546436.4064
  21996398.377   -14665180.044 8 -10113779.46747  21996397.691    21996405.6534
  21266117.976   -21935388.978 9 -16188433.45447  21266117.373    21266125.0554
  23442868.045   -13256869.646 8 -10318034.79845  23442867.691    23442878.6334
  23385993.069    -7586548.548 8  -5887893.13445  23385992.474    23386003.0514
  20775109.813   -26245554.222 9 -19871200.28247  20775109.021    20775116.9674
  21218675.589   -21778491.638 9 -14613751.67747  21218675.087    21218681.3904
  21805680.789   -14496089.965 8 -11267958.37746  21805680.552    21805690.2294
 01  4 25  0 58 30.0000000  0 10 17 03 14 23 21 09 31 15 18 29
  21826161.207   -19136016.609 8 -14882080.17246  21826160.623    21826170.1514
  21637604.669   -16247522.708 9 -12629984.73547  21637604.278    21637612.7824
  21531121.283   -17983081.280 9 -13992933.88647  21531120.735    21531129.0264
  22005554.683   -14617063.268 8 -10076285.89847  22005554.002    22005561.9984
  21262851.972   -21952551.927 9 -16201807.14347  21262851.374    21262859.0444
  23439865.389   -13272648.565 8 -10330329.98745  23439865.059    23439875.9774
  23374334.929    -7647811.914 8  -5935630.72045  23374334.305    23374344.8574
  20782393.216   -26207279.613 9 -19841375.92247  20782392.419    20782400.4104
  21227272.550   -21733314.354 9 -14578548.61347  21227272.045    21227278.3894
  21790178.515   -14577554.335 8 -11331436.92647  21790178.254    21790187.8774
 01  4 25  0 59  0.0000000  0 10 17 03 14 23 21 09 31 15 18 29
  21838023.331   -19073681.096 8 -14833507.12446  21838022.731    21838032.2344
  21637695.378   -16247045.984 9 -12629613.26147  21637694.966    21637703.4764
  21515890.062   -18063121.239 9 -14055302.53047  21515889.500    21515897.7754
  22014724.458   -14568875.727 8 -10038737.18647  22014723.794    22014731.7994
  21259615.635   -21969558.919 9 -16215059.30647  21259615.025    21259622.6904
  23436963.241   -13287899.341 8 -10342213.62545  23436962.918    23436973.6524
  23362766.784    -7708602.389 8  -5982999.78945  23362766.164    23362776.7594
  20789749.097   -26168624.308 9 -19811254.91847  20789748.317    20789756.3044
  21235900.197   -21687975.836 9 -14543219.91147  21235899.693    21235906.0314
  21774743.063   -14658667.389 8 -11394641.72547  21774742.800    21774752.4394
 01  4 25  0 59 30.0000000  0 10 17 03 14 23 21 09 31 15 18 29
  21849950.565   -19011003.332 8 -14784667.37246  21849949.944    21849959.4704
  21637894.844   -16245997.941 9 -12628796.60947  21637894.457    21637902.9204
  21500735.343   -18142759.216 9 -14117357.94247  21500734.781    21500743.0314
  22023907.593   -14520618.021 8 -10001133.80447  22023906.907    22023914.9524
  21256408.882   -21986410.417 9 -16228190.30747  21256408.265    21256415.9224
  23434161.845   -13302620.477 8 -10353684.57045  23434161.557    23434172.2564
  23351289.069    -7768917.839 8  -6029998.73045  23351288.449    23351298.9794
  20797177.432   -26129588.170 9 -19780837.16647  20797176.654    20797184.6404
  21244558.376   -21642476.940 9 -14507766.24347  21244557.849    21244564.1874
  21759374.794   -14739427.419 8 -11457571.44147  21759374.539    21759384.1344
 01  4 25  1  0  0.0000000  0 10 17 03 14 23 21 09 31 15 18 29
  21861942.798   -18947983.988 8 -14735561.46846  21861942.172    21861951.6954
  21638202.886   -16244379.068 9 -12627535.15047  21638202.494    21638210.9554
  21485657.405   -18221993.719 9 -14179098.96747  21485656.840    21485665.0504
  22033103.888   -14472291.131 8  -9963476.52447  22033103.200    22033111.2834
  21253231.549   -22003107.202 9 -16241200.75347  21253230.944    21253238.5904
  23431461.518   -13316810.679 8 -10364741.78845  23431461.177    23431471.8714
  23339901.974    -7828757.023 8  -6076626.55345  23339901.332    23339911.8014
  20804678.260   -26090171.207 9 -19750122.66347  20804677.462    20804685.4384
  21253246.812   -21596819.004 9 -14472188.64847  21253246.284    21253252.6184
  21744073.950   -14819833.123 8 -11520225.05947  21744073.671    21744083.2884
 01  4 25  1  0 30.0000000  0 10 17 03 14 23 21 09 31 15 18 29
  21874000.104   -18884622.670 8 -14686189.09246  21873999.485    21874009.0674
  21638619.570   -16242189.393 9 -12625828.90147  21638619.185    21638627.6444
  21470656.693   -18300822.328 9 -14240523.70847  21470656.124    21470664.3104
  22042313.339   -14423895.134 8  -9925765.38547  22042312.644    22042320.7314
  21250083.653   -22019649.552 9 -16254090.85747  21250083.044    21250090.6794
  23428862.510   -13330468.320 8 -10375384.03845  23428862.116    23428872.7914
  23328605.991    -7888117.361 8  -6122881.23245  23328605.333    23328615.7784
  20812251.712   -26050372.584 9 -19719110.76247  20812250.918    20812258.8894
  21261965.424   -21551002.388 9 -14436487.39947  21261964.898    21261971.2384
  21728840.961   -14899882.216 8 -11582600.79247  21728840.687    21728850.2584
 01  4 25  1  1  0.0000000  0 10 17 03 14 23 21 09 31 15 18 29
  21886122.436   -18820919.637 8 -14636550.44746  21886121.803    21886131.4274
  21639144.820   -16239429.300 9 -12623678.18247  21639144.432    21639152.8644
  21455733.524   -18379243.473 9 -14301630.94847  21455732.966    21455741.0884
  22051535.903   -14375430.577 8  -9888000.82547  22051535.199    22051543.2554
  21246965.036   -22036037.867 9 -16266860.94447  21246964.413    21246972.0374
  23426365.125   -13343591.803 8 -10385610.04745  23426364.765    23426375.3584
  23317401.463    -7946997.164 8  -6168761.49145  23317400.809    23317411.2264
  20819897.796   -26010192.157 9 -19687801.36147  20819897.005    20819904.9564
  21270714.036   -21505028.209 9 -14400663.38547  21270713.511    21270719.8854
  21713676.163   -14979572.989 8 -11644697.32747  21713675.885    21713685.4474
 01  4 25  1  1 30.0000000  0 10 17 03 14 23 21 09 31 15 18 29
  21898309.776   -18756875.154 8 -14586645.72446  21898309.156    21898318.7984
  21639778.554   -16236099.285 9 -12621083.35447  21639778.143    21639786.5854
  21440888.287   -18457255.190 9 -14362419.15247  21440887.713    21440895.8114
  22060771.330   -14326898.216 8  -9850183.43047  22060770.636    22060778.6734
  21243875.629   -22052272.591 9 -16279511.34647  21243875.001    21243882.6274
  23423969.647   -13356179.671 8 -10395418.70545  23423969.313    23423979.8984
  23306288.723    -8005394.640 8  -6214265.90645  23306288.053    23306298.4444
  20827616.610   -25969629.661 9 -19656194.24247  20827615.812    20827623.7624
  21279492.472   -21458897.219 9 -14364717.17447  21279491.954    21279498.3324
  21698579.852   -15058903.889 8 -11706513.43647  21698579.586    21698589.0654
 01  4 25  1  2  0.0000000  0 10 17 03 14 23 21 09 31 15 18 29
  21910561.985   -18692489.534 8 -14536475.18246  21910561.394    21910571.0764
  21640520.640   -16232199.617 9 -12618044.64147  21640520.230    21640528.6334
  21426121.283   -18534855.868 9 -14422887.07147  21426120.725    21426128.7464
  22070019.507   -14278298.761 8  -9812313.75447  22070018.814    22070026.8654
  21240815.343   -22068354.356 9 -16292042.56047  21240814.730    21240822.3374
  23421676.393   -13368230.813 8 -10404809.13645  23421676.051    23421686.4964
  23295268.089    -8063308.084 8  -6259393.16245  23295267.422    23295277.7634
  20835408.129   -25928685.148 9 -19624289.45547  20835407.328    20835415.2524
  21288300.573   -21412610.373 9 -14328649.52047  21288300.056    21288306.4354
  21683552.318   -15137873.371 8 -11768047.93247  21683552.050    21683561.4654
 01  4 25  1  2 30.0000000  0 10 17 03 14 23 21 09 31 15 18 29
  21922879.101   -18627763.135 8 -14486039.10546  21922878.497    21922888.1844
  21641371.032   -16227731.026 9 -12614562.60947  21641370.611    21641379.0014
  21411432.877   -18612043.468 9 -14483033.11747  21411432.324    21411440.2804
  22079280.359   -14229632.731 8  -9774392.20147  22079279.653    22079287.7534
  21237783.999   -22084283.981 9 -16304455.22947  21237783.369    21237790.9894
  23419485.470   -13379743.908 8 -10413780.30945  23419485.068    23419495.5274
  23284339.848    -8120735.758 8  -6304141.88845  23284339.257    23284349.5544
  20843272.358   -25887358.543 9 -19592086.93047  20843271.563    20843279.4784
  21297138.157   -21366168.745 9 -14292461.25847  21297137.628    21297144.0294
  21668593.886   -15216479.823 8 -11829299.54147  21668593.605    21668602.9734
 01  4 25  1  3  0.0000000  0 10 17 03 14 23 21 09 31 15 18 29
  21935261.085   -18562695.691 8 -14435337.27446  21935260.485    21935270.1684
  21642329.645   -16222693.428 9 -12610637.19647  21642329.227    21642337.6164
  21396823.414   -18688816.102 9 -14542855.81647  21396822.848    21396830.7674
  22088553.825   -14180900.400 8  -9736418.98847  22088553.123    22088561.2314
  21234781.677   -22100061.139 9 -16316749.09647  21234781.057    21234788.6644
  23417397.259   -13390717.276 8 -10422330.93245  23417396.923    23417407.3174
  23273504.512    -8177675.387 8  -6348510.32845  23273503.889    23273514.2324
  20851209.410   -25845649.102 9 -19559586.10147  20851208.599    20851216.5334
  21306005.074   -21319572.883 9 -14256152.81347  21306004.540    21306010.9414
  21653704.926   -15294721.080 8 -11890266.59347  21653704.662    21653713.9574
 01  4 25  1  3 30.0000000  0 10 17 03 14 23 21 09 31 15 18 29
  21947707.796   -18497287.876 8 -14384370.22446  21947707.179    21947716.9174
  21643396.368   -16217087.684 9 -12606269.07147  21643395.949    21643404.3524
  21382293.203   -18765172.297 9 -14602354.01447  21382292.637    21382300.5414
  22097839.761   -14132102.645 8  -9698394.78947  22097839.054    22097847.1514
  21231808.180   -22115686.913 9 -16328924.99847  21231807.546    21231815.1454
  23415411.851   -13401150.034 8 -10430460.28445  23415411.528    23415421.9524
  23262762.331    -8234125.378 8  -6392497.24045  23262761.706    23262772.0684
  20859219.259   -25803557.222 9 -19526787.26047  20859218.453    20859226.3694
  21314901.013   -21272824.306 9 -14219725.37047  21314900.471    21314906.8824
  21638885.719   -15372595.880 8 -11950948.09147  21638885.482    21638894.6954
 01  4 25  1  4  0.0000000  0 10 17 03 14 23 21 09 31 15 18 29
  21960219.233   -18431539.837 8 -14333138.06946  21960218.647    21960228.4164
  21644571.083   -16210914.446 9 -12601458.74147  21644570.685    21644579.1114
  21367842.659   -18841109.866 9 -14661526.01247  21367842.101    21367849.9494
  22107138.064   -14083239.854 8  -9660319.92047  22107137.337    22107145.4684
  21228863.427   -22131161.323 9 -16340982.96047  21228862.804    21228870.3934
  23413529.618   -13411040.528 8 -10438167.11145  23413529.321    23413539.8094
  23252113.688    -8290083.764 8  -6436101.09846  23252113.077    23252123.4134
  20867301.971   -25761082.350 9 -19493689.98747  20867301.158    20867309.0924
  21323826.006   -21225923.170 9 -14183179.04347  21323825.483    21323831.8994
  21624136.599   -15450102.366 8 -12011342.60147  21624136.362    21624145.5264
 01  4 25  1  4 30.0000000  0 10 17 03 14 23 21 09 31 15 18 29
  21972795.307   -18365452.511 8 -14281641.52446  21972794.691    21972804.4844
  21645853.575   -16204174.923 9 -12596207.14947  21645853.178    21645861.6064
  21353471.920   -18916628.012 9 -14720371.18647  21353471.370    21353479.1824
  22116448.501   -14034313.328 8  -9622195.37547  22116447.792    22116455.9294
  21225947.275   -22146485.596 9 -16352923.93447  21225946.663    21225954.2354
  23411750.722   -13420388.417 8 -10445451.11945  23411750.342    23411760.9224
  23241558.843    -8345549.732 8  -6479321.23646  23241558.184    23241568.5034
  20875457.433   -25718225.251 9 -19460294.87447  20875456.612    20875464.5484
  21332779.669   -21178871.504 9 -14146515.42147  21332779.174    21332785.5784
  21609457.688   -15527239.886 8 -12071449.60247  21609457.474    21609466.5874
 01  4 25  1  5  0.0000000  0 10 17 03 14 23 21 09 31 15 18 29
  21985435.992   -18299025.527 8 -14229880.31846  21985435.370    21985445.1904
  21647243.900   -16196868.903 9 -12590514.13947  21647243.515    21647251.9354
  21339181.451   -18991724.330 9 -14778887.66547  21339180.883    21339188.6734
  22125771.095   -13985322.953 8  -9584021.08647  22125770.358    22125778.5104
  21223059.688   -22161659.898 9 -16364748.04847  21223059.072    21223066.6224
  23410075.477   -13429191.572 8 -10452310.65145  23410075.033    23410085.6344
  23231098.049    -8400521.020 8  -6522155.92746  23231097.436    23231107.6904
  20883685.817   -25674984.881 9 -19426601.10647  20883685.006    20883692.9644
  21341761.946   -21131669.435 9 -14109734.60947  21341761.436    21341767.8504
  21594849.445   -15604006.004 8 -12131267.19747  21594849.227    21594858.3184
 01  4 25  1  5 30.0000000  0 10 17 03 14 23 21 09 31 15 18 29
  21998141.307   -18232259.056 8 -14177854.56646  21998140.704    21998150.4814
  21648741.886   -16188996.976 9 -12584380.16247  21648741.488    21648749.8944
  21324971.646   -19066396.876 9 -14837073.93147  21324971.080    21324978.8224
  22135105.729   -13936269.183 8  -9545797.39447  22135105.006    22135113.1424
  21220200.605   -22176684.497 9 -16376455.51047  21220199.991    21220207.4864
  23408504.117   -13437448.864 8 -10458744.84445  23408503.690    23408514.2404
  23220731.850    -8454995.809 8  -6564603.73646  23220731.262    23220741.4024
  20891987.123   -25631361.284 9 -19392608.71647  20891986.329    20891994.3024
  21350772.667   -21084317.714 9 -14072837.18347  21350772.138    21350778.5774
  21580312.215   -15680399.055 8 -12190794.09847  21580312.001    21580321.0444
 01  4 25  1  6  0.0000000  0 10 17 03 14 23 21 09 31 15 18 29
  22010911.055   -18165154.052 8 -14125565.03246  22010910.434    22010920.2194
  21650347.377   -16180560.285 9 -12577806.11447  21650346.957    21650355.3504
  21310842.736   -19140644.273 9 -14894928.92047  21310842.171    21310849.8824
  22144452.250   -13887153.047 8  -9507525.10847  22144451.525    22144459.7004
  21217369.789   -22191560.575 9 -16388047.24147  21217369.151    21217376.6254
  23407036.772   -13445159.523 8 -10464753.08345  23407036.356    23407046.9204
  23210460.315    -8508972.795 8  -6606663.64746  23210459.713    23210469.7614
  20900361.292   -25587354.782 9 -19358317.97047  20900360.491    20900368.4924
  21359811.643   -21036817.593 9 -14035824.11847  21359811.140    21359817.5564
  21565846.199   -15756417.794 8 -12250029.32747  21565845.986    21565855.0004
 01  4 25  1  6 30.0000000  0 10 17 03 14 23 21 09 31 15 18 29
  22023745.203   -18097710.429 8 -14073011.64946  22023744.589    22023754.3744
  21652060.207   -16171559.248 9 -12570792.32047  21652059.791    21652068.1714
  21296795.055   -19214464.749 9 -14952451.23947  21296794.486    21296802.1734
  22153810.543   -13837974.786 8  -9469204.40947  22153809.837    22153818.0314
  21214567.284   -22206287.762 9 -16399522.95247  21214566.651    21214574.1174
  23405673.700   -13452322.263 8 -10470334.36845  23405673.339    23405683.8974
  23200283.883    -8562450.016 8  -6648334.14446  23200283.269    23200293.2314
  20908808.393   -25542965.087 9 -19323728.63047  20908807.604    20908815.6114
  21368878.692   -20989169.925 9 -13998696.08247  21368878.184    21368884.5914
  21551451.746   -15832060.556 8 -12308971.59147  21551451.511    21551460.4774
 01  4 25  1  7  0.0000000  0 10 17 03 14 23 21 09 31 15 18 29
  22036643.759   -18029928.523 8 -14020194.67146  22036643.139    22036652.9604
  21653880.331   -16161994.405 9 -12563339.19847  21653879.941    21653888.2814
  21282828.929   -19287856.648 9 -15009639.60547  21282828.365    21282836.0134
  22163180.584   -13788734.893 8  -9430835.68247  22163179.870    22163188.0934
  21211793.010   -22220866.380 9 -16410882.89347  21211792.392    21211799.8904
  23404415.147   -13458935.660 8 -10475487.60145  23404414.791    23404425.3494
  23190202.853    -8615425.923 8  -6689614.00746  23190202.267    23190212.1554
  20917328.480   -25498191.966 9 -19288840.51347  20917327.685    20917335.6584
  21377973.762   -20941375.218 9 -13961453.46247  21377973.257    21377979.6474
  21537129.137   -15907325.796 8 -12367619.67747  21537128.916    21537137.8244
 01  4 25  1  7 30.0000000  0 10 17 03 14 23 21 09 31 15 18 29
  22049606.583   -17961808.791 8 -13967114.46446  22049605.995    22049615.8124
  21655807.614   -16151866.489 9 -12555447.32847  21655807.207    21655815.5544
  21268944.690   -19360818.282 9 -15066492.70447  21268944.117    21268951.7194
  22172562.299   -13739433.727 8  -9392419.21646  22172561.605    22172569.8084
  21209046.903   -22235297.062 9 -16422127.55947  21209046.293    21209053.8234
  23403261.226   -13464998.972 8 -10480212.19445  23403260.900    23403271.4254
  23180217.507    -8667898.836 8  -6730501.91946  23180216.900    23180226.7664
  20925921.529   -25453035.576 9 -19253653.74747  20925920.717    20925928.6694
  21387096.623   -20893434.407 9 -13924097.00147  21387096.111    21387102.4934
  21522878.695   -15982211.816 8 -12425972.27647  21522878.462    21522887.3324
 01  4 25  1  8  0.0000000  0 10 17 03 14 23 21 09 31 15 18 29
  22062633.797   -17893350.997 8 -13913770.82746  22062633.177    22062642.9884
  21657841.903   -16141176.014 9 -12547117.10247  21657841.508    21657849.8454
  21255142.718   -19433347.571 9 -15123008.90947  21255142.142    21255149.7104
  22181955.662   -13690071.443 8  -9353955.12646  22181954.972    22181963.1834
  21206328.932   -22249580.040 9 -16433257.13247  21206328.314    21206335.8344
  23402212.305   -13470510.637 8 -10484506.93645  23402211.926    23402222.4714
  23170328.282    -8719866.725 8  -6770996.31746  23170327.647    23170337.5214
  20934587.627   -25407495.139 9 -19218167.72547  20934586.827    20934594.7694
  21396247.176   -20845347.859 9 -13886626.98147  21396246.667    21396253.0454
  21508700.773   -16056716.729 8 -12484027.90647  21508700.537    21508709.3654
 01  4 25  1  8 30.0000000  0 10 17 03 14 23 21 09 31 15 18 29
  22075725.076   -17824556.288 8 -13860164.67146  22075724.464    22075734.2994
  21659983.007   -16129924.408 9 -12538349.63347  21659982.606    21659990.9604
  21241423.184   -19505443.636 9 -15179187.53747  21241422.619    21241430.1544
  22191360.348   -13640649.405 8  -9315444.46646  22191359.642    22191367.8774
  21203638.960   -22263715.982 9 -16444272.12447  21203638.347    21203645.8364
  23401268.456   -13475470.148 8 -10488371.43845  23401268.080    23401278.5554
  23160535.368    -8771328.466 8  -6811096.31446  23160534.766    23160544.6794
  20943326.607   -25361571.497 9 -19182383.09847  20943325.797    20943333.7524
  21405425.235   -20797117.054 9 -13849044.55647  21405424.743    21405431.0964
  21494595.523   -16130839.771 9 -12541785.97847  21494595.292    21494604.0654
 01  4 25  1  9  0.0000000  0 10 17 03 14 23 21 09 31 15 18 29
  22088880.508   -17755424.510 8 -13806295.85646  22088879.897    22088889.7264
  21662230.848   -16118111.947 9 -12529145.13747  21662230.460    21662238.8034
  21227786.559   -19577104.206 9 -15235026.82047  21227785.980    21227793.4924
  22200776.507   -13591167.284 8  -9276887.00246  22200775.803    22200784.0554
  21200976.851   -22277705.311 9 -16455172.87247  21200976.230    21200983.6984
  23400429.986   -13479875.903 8 -10491804.44745  23400429.641    23400440.0904
  23150839.201    -8822281.891 8  -6850800.21546  23150838.568    23150848.4474
  20952138.661   -25315263.848 9 -19146299.25147  20952137.857    20952145.8164
  21414630.603   -20748742.522 9 -13811350.13347  21414630.100    21414636.4784
  21480563.276   -16204578.955 8 -12599244.94147  21480563.036    21480571.7844
 01  4 25  1  9 30.0000000  0 10 17 03 14 23 21 09 31 15 18 29
  22102099.910   -17685956.727 8 -13752165.22746  22102099.265    22102109.1194
  21664585.155   -16105739.908 9 -12519504.60747  21664584.780    21664593.1304
  21214232.911   -19648328.406 9 -15290526.07847  21214232.343    21214239.8214
  22210203.848   -13541626.283 8  -9238283.65046  22210203.127    22210211.3934
  21198342.465   -22291548.876 9 -16465960.03547  21198341.853    21198349.3334
  23399697.011   -13483727.499 8 -10494805.63545  23399696.647    23399707.1164
  23141239.825    -8872726.602 8  -6890107.72546  23141239.193    23141249.0434
  20961023.660   -25268572.927 9 -19109916.74847  20961022.876    20961030.8174
  21423863.099   -20700225.411 9 -13773544.60747  21423862.618    21423868.9934
  21466604.304   -16277933.409 8 -12656404.11447  21466604.049    21466612.7694
 01  4 25  1 10  0.0000000  0 10 17 03 14 23 21 09 31 15 18 29
  22115383.334   -17616152.203 8 -13697772.19346  22115382.689    22115392.5524
  21667046.026   -16092807.811 9 -12509427.67047  21667045.637    21667054.0014
  21200762.870   -19719113.528 9 -15345683.19847  21200762.298    21200769.7664
  22219642.552   -13492025.613 8  -9199633.80246  22219641.842    22219650.1104
  21195735.920   -22305246.225 9 -16476633.26847  21195735.298    21195742.7984
  23399069.847   -13487023.130 8 -10497373.60545  23399069.452    23399079.9464
  23131737.894    -8922659.307 8  -6929016.26446  23131737.261    23131747.0934
  20969981.805   -25221497.655 9 -19073234.74747  20969981.004    20969988.9754
  21433122.815   -20651565.591 9 -13735627.87647  21433122.318    21433128.6584
  21452719.014   -16350900.475 8 -12713261.42747  21452718.782    21452727.4614
 01  4 25  1 10 30.0000000  0 10 17 03 14 23 21 09 31 15 18 29
  22128730.513   -17546012.707 8 -13643118.13846  22128729.889    22128739.7204
  21669613.063   -16079317.917 9 -12498916.09047  21669612.689    21669621.0754
  21187376.450   -19789459.264 9 -15400497.94147  21187375.885    21187383.2964
  22229092.251   -13442367.166 8  -9160938.93146  22229091.570    22229099.8244
  21193157.017   -22318798.284 9 -16487193.28847  21193156.403    21193163.8994
  23398548.407   -13489763.109 8 -10499508.60045  23398548.022    23398558.5864
  23122333.329    -8972080.171 8  -6967525.95646  23122332.712    23122342.5264
  20979012.839   -25174039.288 9 -19036254.23647  20979012.042    20979020.0204
  21442409.246   -20602765.220 9 -13697601.63047  21442408.729    21442415.0594
  21438907.482   -16423479.951 8 -12769816.72447  21438907.254    21438915.8774
 01  4 25  1 11  0.0000000  0 10 17 03 14 23 21 09 31 15 18 29
  22142141.515   -17475537.937 8 -13588202.84446  22142140.875    22142150.7504
  21672286.193   -16065270.531 9 -12487970.09447  21672285.809    21672294.2074
  21174074.040   -19859363.376 9 -15454968.56547  21174073.484    21174080.8624
  22238552.994   -13392650.730 8  -9122198.86846  22238552.291    22238560.5704
  21190605.737   -22332205.209 9 -16497640.21947  21190605.109    21190612.6234
  23398132.975   -13491945.909 8 -10501209.44345  23398132.650    23398143.1144
  23113026.576    -9020987.146 8  -7005635.23046  23113025.956    23113035.8074
  20988116.913   -25126197.249 9 -18998974.76547  20988116.119    20988124.0934
  21451722.426   -20553824.301 9 -13659465.86447  21451721.902    21451728.2024
  21425170.124   -16495669.775 8 -12826068.39847  21425169.884    21425178.4784
 01  4 25  1 11 30.0000000  0 10 17 03 14 23 21 09 31 15 18 29
  22155616.160   -17404728.558 8 -13533026.80246  22155615.496    22155625.4264
  21675065.219   -16050666.650 9 -12476590.46347  21675064.835    21675073.2354
  21160855.889   -19928824.620 9 -15509094.09147  21160855.335    21160862.6984
  22248024.642   -13342876.894 8  -9083414.08146  22248023.973    22248032.2174
  21188081.900   -22345467.958 9 -16507974.80047  21188081.267    21188088.7724
  23397823.777   -13493570.589 8 -10502475.37545  23397823.454    23397833.8004
  23103817.933    -9069378.723 8  -7043342.88346  23103817.320    23103827.1314
  20997293.976   -25077971.714 9 -18961396.46847  20997293.166    20997301.1584
  21461062.096   -20504744.051 9 -13621221.52947  21461061.586    21461067.9074
  21411507.104   -16567468.859 8 -12882015.60147  21411506.883    21411515.4204
 01  4 25  1 12  0.0000000  0 10 17 03 14 23 21 09 31 15 18 29
  22169154.378   -17333585.049 8 -13477590.41346  22169153.724    22169163.7114
  21677949.932   -16035507.495 9 -12464778.15047  21677949.518    21677957.9354
  21147722.357   -19997841.323 9 -15562873.22747  21147721.797    21147729.1744
  22257507.162   -13293046.034 8  -9044584.86346  22257506.459    22257514.7114
  21185585.470   -22358586.762 9 -16518197.22047  21185584.835    21185592.3274
  23397620.937   -13494636.337 8 -10503305.78945  23397620.604    23397630.8994
  23094707.570    -9117253.792 8  -7080648.07146  23094706.937    23094716.7304
  21006543.930   -25029362.872 9 -18923519.48347  21006543.143    21006551.1454
  21470428.194   -20455525.043 9 -13582869.07747  21470427.682    21470434.0034
  21397918.728   -16638875.738 8 -12937657.19447  21397918.480    21397926.9764
 01  4 25  1 12 30.0000000  0 10 17 03 14 23 21 09 31 15 18 29
  22182756.102   -17262107.926 8 -13421894.05246  22182755.458    22182765.4364
  21680940.134   -16019794.050 9 -12452533.92347  21680939.728    21680948.1394
  21134673.691   -20066411.949 9 -15616304.76747  21134673.150    21134680.5234
  22267000.418   -13243158.709 8  -9005711.63746  22266999.727    22267007.9844
  21183116.381   -22371561.877 9 -16528307.67347  21183115.744    21183123.2384
  23397524.599   -13495142.345 8 -10503700.02145  23397524.301    23397534.6014
  23085695.810    -9164610.489 8  -7117549.33346  23085695.186    23085704.9594
  21015866.842   -24980370.683 9 -18885343.78347  21015866.039    21015874.0844
  21479820.537   -20406167.988 9 -13544409.05247  21479820.000    21479826.3664
  21384405.278   -16709889.016 8 -12992992.09047  21384405.005    21384413.4504
 01  4 25  1 13  0.0000000  0 10 17 03 14 23 21 09 31 15 18 29
  22196421.196   -17190297.602 8 -13365938.05746  22196420.558    22196430.6034
  21684035.644   -16003527.184 9 -12439858.45647  21684035.245    21684043.6214
  21121710.179   -20134535.194 9 -15669387.70647  21121709.635    21121716.9994
  22276504.339   -13193215.365 8  -8966794.77346  22276503.628    22276511.8974
  21180674.462   -22384393.986 9 -16538306.69747  21180673.835    21180681.3154
  23397534.948   -13495087.993 8 -10503657.62145  23397534.654    23397544.9264
  23076782.980    -9211447.531 8  -7154045.66646  23076782.366    23076792.1024
  21025262.667   -24930995.150 9 -18846869.39547  21025261.864    21025269.9454
  21489238.944   -20356673.780 9 -13505842.14847  21489238.420    21489244.8164
  21370966.977   -16780507.297 8 -13048019.19347  21370966.718    21370975.1034
 01  4 25  1 13 30.0000000  0 10 17 03 14 23 21 09 31 15 18 29
  22210149.591   -17118154.648 8 -13309722.86446  22210148.954    22210159.0324
  21687236.315   -15986707.670 9 -12426752.35547  21687235.919    21687244.2514
  21108832.071   -20202209.639 9 -15722120.93047  21108831.500    21108838.8634
  22286018.828   -13143216.326 8  -8927834.50146  22286018.121    22286026.4234
  21178259.804   -22397083.111 9 -16548194.30747  21178259.176    21178266.6394
  23397652.156   -13494472.268 8 -10503177.78445  23397651.842    23397661.9694
  23067969.251    -9257763.613 8  -7190136.05346  23067968.678    23067978.3534
  21034731.474   -24881236.225 9 -18808096.24047  21034730.679    21034738.7774
  21498683.333   -20307043.258 9 -13467169.03947  21498682.821    21498689.2124
  21357604.142   -16850729.039 9 -13102737.31147  21357603.869    21357612.2064
 01  4 25  1 14  0.0000000  0 10 17 03 14 23 21 09 31 15 18 29
  22223941.274   -17045679.339 8 -13253248.69346  22223940.666    22223950.6964
  21690541.971   -15969336.484 9 -12413216.37347  21690541.551    21690549.8504
  21096039.693   -20269433.541 9 -15774503.08647  21096039.126    21096046.4434
  22295543.847   -13093161.885 8  -8888831.06046  22295543.177    22295551.4874
  21175872.289   -22409629.403 9 -16557970.61847  21175871.669    21175879.1394
  23397876.347   -13493294.292 8 -10502259.83945  23397876.047    23397886.1334
  23059254.977    -9303557.029 8  -7225819.18046  23059254.410    23059264.0974
  21044273.241   -24831094.117 9 -18769024.51147  21044272.453    21044280.5554
  21508153.552   -20257276.887 9 -13428390.06447  21508153.045    21508159.4074
  21344317.069   -16920552.863 9 -13157145.36447  21344316.787    21344325.0344
 01  4 25  1 14 30.0000000  0 10 17 03 14 23 21 09 31 15 18 29
  22237796.056   -16972872.400 8 -13196516.10746  22237795.495    22237805.4694
  21693952.359   -15951414.851 9 -12399251.46747  21693951.920    21693960.2314
  21083333.310   -20336205.699 9 -15826533.22747  21083332.753    21083340.0104
  22305079.384   -13043052.424 8  -8849784.75046  22305078.695    22305087.0074
  21173511.872   -22422033.477 9 -16567636.11347  21173511.243    21173518.7294
  23398207.597   -13491553.580 8 -10500903.38745  23398207.288    23398217.2834
  23050640.414    -9348826.621 8  -7261094.10846  23050639.844    23050649.5554
  21053887.944   -24780568.740 9 -18729654.12247  21053887.147    21053895.2474
  21517649.469   -20207375.444 9 -13389505.83647  21517648.972    21517655.3554
  21331105.864   -16989977.530 9 -13211242.38947  21331105.603    21331113.7934
 01  4 25  1 15  0.0000000  0 10 17 03 14 23 21 09 31 15 18 29
  22251713.882   -16899734.022 8 -13139525.25046  22251713.319    22251723.2934
  21697467.364   -15932943.375 9 -12384858.11647  21697466.926    21697475.2254
  21070713.208   -20402524.288 9 -15878209.94747  21070712.649    21070719.8644
  22314625.404   -12992888.023 8  -8810695.62046  22314624.687    22314633.0004
  21171178.404   -22434295.655 9 -16577191.03647  21171177.789    21171185.2894
  23398646.118   -13489249.002 8 -10499107.55245  23398645.834    23398655.8534
  23042125.846    -9393570.759 8  -7295959.61146  23042125.229    23042134.9574
  21063575.594   -24729659.888 9 -18689984.91347  21063574.801    21063582.9314
  21527170.985   -20157339.556 9 -13350516.85147  21527170.480    21527176.8674
  21317970.998   -17059001.433 9 -13265027.12947  21317970.726    21317978.8704
 01  4 25  1 15 30.0000000  0 10 17 03 14 23 21 09 31 15 18 29
  22265694.628   -16826265.029 8 -13082276.79646  22265694.091    22265704.0814
  21701086.670   -15913923.691 9 -12370037.59347  21701086.231    21701094.5544
  21058179.676   -20468388.073 9 -15929532.27547  21058179.106    21058186.2864
  22324181.656   -12942669.522 8  -8771564.33546  22324180.951    22324189.2624
  21168871.918   -22446416.214 9 -16586635.60747  21168871.315    21168878.7924
  23399192.043   -13486380.044 8 -10496871.92845  23399191.746    23399201.7364
  23033711.449    -9437788.469 8  -7330414.89546  23033710.804    23033720.5094
  21073336.087   -24678368.259 9 -18650017.44047  21073335.294    21073343.4444
  21536717.897   -20107170.106 9 -13311423.80247  21536717.411    21536723.8144
  21304912.541   -17127623.604 9 -13318498.83147  21304912.276    21304920.3644
 01  4 25  1 16  0.0000000  0 10 17 03 14 23 21 09 31 15 18 29
  22279738.271   -16752465.580 8 -13024770.83746  22279737.708    22279747.7174
  21704810.166   -15894356.498 9 -12354790.43947  21704809.743    21704818.0494
  21045733.007   -20533795.405 9 -15980498.92647  21045732.433    21045739.5874
  22333748.250   -12892396.759 8  -8732390.77746  22333747.538    22333755.8634
  21166592.371   -22458395.142 9 -16595969.81547  21166591.753    21166599.2344
  23399845.531   -13482945.677 8 -10494195.74145  23399845.235    23399855.1924
  23025397.567    -9481478.029 8  -7364458.64146  23025396.920    23025406.6264
  21083169.520   -24626693.353 9 -18609751.31147  21083168.726    21083176.8994
  21546290.116   -20056867.725 9 -13272227.15847  21546289.614    21546296.0534
  21291930.861   -17195842.376 9 -13371656.20447  21291930.574    21291938.6354
 01  4 25  1 16 30.0000000  0 10 17 03 14 23 21 09 31 15 18 29
  22293844.638   -16678336.557 8 -12967008.06146  22293844.053    22293854.0734
  21708637.599   -15874243.312 8 -12339117.83347  21708637.173    21708645.4974
  21033373.353   -20598745.374 9 -16031109.19147  21033372.779    21033379.9024
  22343325.024   -12842070.528 8  -8693175.55546  22343324.338    22343332.6124
  21164339.672   -22470233.304 9 -16605194.33547  21164339.053    21164346.5144
  23400606.679   -13478945.749 8 -10491078.85745  23400606.347    23400616.3024
  23017184.357    -9524638.333 8  -7398089.98146  23017183.735    23017193.4154
  21093075.737   -24574635.771 9 -18569186.98747  21093074.938    21093083.1404
  21555887.509   -20006433.130 9 -13232927.48847  21555887.010    21555893.4684
  21279026.105   -17263656.711 9 -13424498.42447  21279025.807    21279033.8704
 01  4 25  1 17  0.0000000  0 10 17 03 14 23 21 09 31 15 18 29
  22308013.604   -16603878.338 8 -12908988.77946  22308012.984    22308023.0864
  21712568.740   -15853584.969 9 -12323020.43447  21712568.322    21712576.6404
  21021101.098   -20663236.205 9 -16081361.68547  21021100.525    21021107.6154
  22352911.959   -12791691.078 8  -8653918.87046  22352911.261    22352919.5354
  21162113.659   -22481930.990 9 -16614309.39747  21162113.044    21162120.4854
  23401475.474   -13474379.578 8 -10487520.73945  23401475.206    23401485.1214
  23009072.116    -9567268.080 8  -7431307.89346  23009071.492    23009081.1434
  21103054.776   -24522195.725 9 -18528324.64947  21103053.980    21103062.1844
  21565509.922   -19955866.956 9 -13193525.29347  21565509.429    21565515.9134
  21266198.593   -17331065.216 9 -13477024.41547  21266198.327    21266206.3514
 01  4 25  1 17 30.0000000  0 10 17 03 14 23 21 09 31 15 18 29
  22322245.142   -16529091.592 8 -12850713.49546  22322244.532    22322254.6974
  21716603.372   -15832382.914 9 -12306499.36947  21716602.948    21716611.2914
  21008916.390   -20727266.918 9 -16131255.65147  21008915.820    21008922.8924
  22362508.943   -12741258.730 8  -8614620.96646  22362508.228    22362516.5144
  21159914.351   -22493488.479 9 -16623315.21247  21159913.717    21159921.1504
  23402452.260   -13469246.452 8 -10483520.84245  23402451.910    23402461.9044
  23001061.126    -9609366.081 8  -7464111.45046  23001060.457    23001070.1604
  21113106.604   -24469373.143 9 -18487164.23047  21113105.811    21113114.0124
  21575157.236   -19905170.021 9 -13154021.20747  21575156.740    21575163.2354
  21253448.517   -17398066.747 9 -13529233.28847  21253448.244    21253456.2534
 01  4 25  1 18  0.0000000  0 10 17 03 14 23 21 09 31 15 18 29
  22336539.008   -16453977.081 8 -12792182.81546  22336538.387    22336548.6294
  21720741.215   -15810638.333 9 -12289555.55347  21720740.794    21720749.1604
  20996819.539   -20790835.858 9 -16180789.79347  20996818.965    20996826.0174
  22372115.914   -12690773.852 8  -8575282.12746  22372115.217    22372123.4854
  21157741.664   -22504906.179 9 -16632212.09447  21157741.031    21157748.4244
  23403536.920   -13463545.998 8 -10479078.87045  23403536.579    23403546.5734
  22993151.531    -9650931.099 8  -7496499.69646  22993150.843    22993160.5294
  21123231.125   -24416168.476 9 -18445706.07447  21123230.322    21123238.5494
  21584829.290   -19854343.080 9 -13114415.81447  21584828.794    21584835.2694
  21240776.139   -17464659.933 9 -13581123.97347  21240775.877    21240783.8674
 01  4 25  1 18 30.0000000  0 10 17 03 14 23 21 09 31 15 18 29
  22350895.213   -16378535.280 8 -12733397.11146  22350894.578    22350904.8574
  21724982.059   -15788352.395 9 -12272189.90547  21724981.668    21724990.0454
  20984810.760   -20853941.976 9 -16229963.30047  20984810.188    20984817.2194
  22381732.864   -12640236.704 8  -8535902.55846  22381732.159    22381740.4124
  21155595.476   -22516184.409 9 -16641000.30547  21155594.826    21155602.2064
  23404729.736   -13457277.589 8 -10474194.32645  23404729.383    23404739.3824
  22985343.511    -9691962.290 8  -7528471.97346  22985342.849    22985352.5454
  21133428.382   -24362581.835 9 -18403950.28147  21133427.582    21133435.7954
  21594525.945   -19803386.905 9 -13074709.72147  21594525.421    21594531.9204
  21228181.692   -17530843.708 9 -13632695.63747  21228181.436    21228189.4024
 01  4 25  1 19  0.0000000  0 10 17 03 14 23 21 09 31 15 18 29
  22365313.470   -16302767.104 8 -12674357.08046  22365312.875    22365323.1174
  21729325.699   -15765526.610 9 -12254403.59947  21729325.291    21729333.6864
  20972890.270   -20916584.218 9 -16278775.34847  20972889.691    20972896.7004
  22391359.635   -12589647.986 8  -8496482.81246  22391358.895    22391367.1574
  21153475.753   -22527323.420 9 -16649680.03447  21153475.114    21153482.5014
  23406030.658   -13450440.933 8 -10468867.01745  23406030.262    23406040.3314
  22977637.371    -9732458.379 8  -7560027.28046  22977636.703    22977646.3654
  21143698.224   -24308613.455 9 -18361897.02747  21143697.433    21143705.6794
  21604247.074   -19752302.386 9 -13034903.62747  21604246.541    21604253.0344
  21215665.355   -17596617.053 9 -13683947.48747  21215665.091    21215673.0394
 01  4 25  1 19 30.0000000  0 10 17 03 14 23 21 09 31 15 18 29
  22379793.846   -16226672.683 8 -12615062.83746  22379793.281    22379803.5444
  21733771.894   -15742161.765 9 -12236197.24847  21733771.493    21733779.8804
  20961058.389   -20978760.839 9 -16327224.57347  20961057.812    20961064.8044
  22400996.212   -12539007.428 8  -8457022.67246  22400995.454    22401003.7194
  21151382.441   -22538323.635 9 -16658251.60747  21151381.803    21151389.2144
  23407439.860   -13443035.057 8 -10463096.14445  23407439.557    23407449.5984
  22970033.350    -9772417.646 8  -7591164.28546  22970032.647    22970042.2734
  21154040.759   -24254263.176 9 -18319546.19047  21154039.953    21154048.2264
  21613992.501   -19701089.740 9 -12994997.69347  21613991.965    21613998.4904
  21203227.407   -17661978.332 9 -13734878.24947  21203227.142    21203235.0914
 01  4 25  1 20  0.0000000  0 10 17 03 14 23 21 09 31 15 18 29
  22394336.097   -16150253.212 8 -12555515.30646  22394335.534    22394345.8244
  21738320.328   -15718259.738 9 -12217572.31947  21738319.914    21738328.3394
  20949315.262   -21040471.041 9 -16375310.35647  20949314.691    20949321.6674
  22410642.508   -12488315.927 8  -8417522.83546  22410641.775    22410649.9944
  21149315.435   -22549185.836 9 -16666715.63647  21149314.804    21149322.1914
  23408957.420   -13435060.100 8 -10456881.85545  23408957.026    23408967.1544
  22962531.461    -9811839.897 8  -7621882.83546  22962530.791    22962540.3874
  21164455.827   -24199531.683 9 -18276898.31247  21164455.023    21164463.3084
  21623762.179   -19649749.951 9 -12954992.68547  21623761.641    21623768.1934
  21190868.023   -17726926.808 9 -13785487.34347  21190867.768    21190875.7064
 01  4 25  1 20 30.0000000  0 10 17 03 14 23 21 09 31 15 18 29
  22408940.065   -16073509.239 8 -12495714.92046  22408939.483    22408949.7854
  21742970.738   -15693821.675 9 -12198529.69547  21742970.315    21742978.7734
  20937661.150   -21101713.394 9 -16423031.57947  20937660.589    20937667.5504
  22420298.539   -12437573.476 8  -8377983.30246  22420297.791    22420306.0154
  21147274.742   -22559909.673 9 -16675071.84947  21147274.117    21147281.4984
  23410583.433   -13426515.361 8 -10450223.55445  23410582.921    23410593.0824
  22955132.093    -9850723.397 8  -7652181.58546  22955131.453    22955141.0144
  21174943.444   -24144419.130 9 -18233953.49447  21174942.642    21174950.9434
  21633555.887   -19598283.637 9 -12914889.08247  21633555.361    21633561.9174
  21178587.421   -17791461.280 9 -13835773.83847  21178587.169    21178595.1244
 01  4 25  1 21  0.0000000  0 10 17 03 14 23 21 09 31 15 18 29
  22423605.716   -15996440.913 8 -12435661.78546  22423605.111    22423615.5104
  21747722.977   -15668848.528 8 -12179070.12547  21747722.585    21747731.0244
  20926096.396   -21162486.273 9 -16470386.98147  20926095.835    20926102.7864
  22429964.210   -12386780.107 8  -8338404.08246  22429963.489    22429971.7094
  21145260.429   -22570494.959 9 -16683320.10047  21145259.791    21145267.1644
  23412317.922   -13417400.091 8 -10443120.70945  23412317.510    23412327.6004
  22947835.509    -9889066.991 8  -7682059.61746  22947834.825    22947844.4134
  21185503.603   -24088925.323 9 -18190711.60247  21185502.782    21185511.1034
  21643373.685   -19546691.000 9 -12874687.05247  21643373.155    21643379.6874
  21166385.958   -17855579.968 9 -13885736.34447  21166385.706    21166393.6524
 01  4 25  1 21 30.0000000  0 10 17 03 14 23 21 09 31 15 18 29
  22438332.961   -15919049.011 8 -12375356.52446  22438332.375    22438342.8164
  21752576.785   -15643341.814 9 -12159194.78847  21752576.385    21752584.8194
  20914621.151   -21222788.626 9 -16517375.74047  20914620.590    20914627.5114
  22439639.537   -12335935.982 8  -8298785.31446  22439638.811    22439647.0314
  21143272.281   -22580942.552 9 -16691461.05547  21143271.638    21143279.0254
  23414161.084   -13407713.979 8 -10435573.04845  23414160.704    23414170.7374
  22940641.824    -9926869.649 8  -7711516.14146  22940641.184    22940650.7074
  21196136.184   -24033050.651 9 -18147172.92947  21196135.381    21196143.6924
  21653215.301   -19494972.944 9 -12834387.28947  21653214.781    21653221.3004
  21154263.756   -17919281.959 9 -13935374.15947  21154263.498    21154271.4384
 01  4 25  1 22  0.0000000  0 10 17 03 14 23 21 09 31 15 18 29
  22453121.586   -15841334.596 8 -12314799.95546  22453120.998    22453131.4604
  21757531.809   -15617303.143 9 -12138904.94447  21757531.404    21757539.8314
  20903235.662   -21282619.576 9 -16563997.17247  20903235.092    20903241.9974
  22449324.381   -12285041.880 8  -8259127.59946  22449323.647    22449331.9084
  21141310.190   -22591253.091 9 -16699495.21547  21141309.556    21141316.9554
  23416112.839   -13397457.105 8 -10427580.63345  23416112.442    23416122.6224
  22933551.212    -9964130.617 8  -7740550.57746  22933550.564    22933560.0804
  21206841.171   -23976795.766 9 -18103337.99047  21206840.360    21206848.6844
  21663080.642   -19443130.270 9 -12793990.42347  21663080.132    21663086.6624
  21142221.018   -17982566.639 9 -13984686.79847  21142220.765    21142228.6714
 01  4 25  1 22 30.0000000  0 10 17 03 14 23 21 09 31 15 18 29
  22467971.484   -15763298.300 8 -12253992.57746  22467970.878    22467981.3854
  21762587.769   -15590733.974 9 -12118201.72047  21762587.354    21762595.7924
  20891940.081   -21341977.915 9 -16610250.33847  20891939.491    20891946.3834
  22459018.692   -12234098.001 8  -8219431.09846  22459017.955    22459026.2404
  21139374.223   -22601426.419 9 -16707422.46047  21139373.596    21139380.9904
  23418173.330   -13386629.082 8 -10419143.18545  23418172.946    23418183.1004
  22926563.905   -10000848.714 8  -7769162.00546  22926563.231    22926572.7374
  21217618.420   -23920161.003 9 -18059207.04147  21217617.619    21217625.9584
  21672969.580   -19391163.536 9 -12753496.88747  21672969.076    21672975.5994
  21130257.955   -18045432.687 9 -14033673.22747  21130257.707    21130265.5814
 01  4 25  1 23  0.0000000  0 10 17 03 14 23 21 09 31 15 18 29
  22482882.562   -15684940.720 8 -12192934.83446  22482881.964    22482892.4594
  21767744.420   -15563635.644 8 -12097086.16447  21767743.994    21767752.4474
  20880734.681   -21400862.332 9 -16656134.21147  20880734.109    20880740.9684
  22468722.486   -12183104.377 8  -8179695.84946  22468721.767    22468730.0684
  21137464.348   -22611462.852 9 -16715243.02647  21137463.718    21137471.0984
  23420342.603   -13375229.546 8 -10410260.38845  23420342.234    23420352.2704
  22919680.096   -10037022.803 8  -7797349.52246  22919679.426    22919688.9064
  21228467.997   -23863146.183 9 -18014779.94847  21228467.198    21228475.5354
  21682882.039   -19339073.374 9 -12712907.17447  21682881.514    21682888.0954
  21118374.753   -18107878.832 9 -14082332.46547  21118374.494    21118382.3494
 01  4 25  1 23 30.0000000  0 10 17 03 14 23 21 09 31 15 18 29
  22497854.657   -15606262.413 8 -12131627.18546  22497854.020    22497864.5644
  21773001.482   -15536009.462 8 -12075559.29147  21773001.075    21773009.5674
  20869619.639   -21459271.799 9 -16701647.99547  20869619.073    20869625.8884
  22478435.695   -12132061.216 8  -8139921.99046  22478434.963    22478443.3104
  21135580.399   -22621363.071 9 -16722957.45747  21135579.743    21135587.1244
  23422620.693   -13363258.021 8 -10400931.88645  23422620.267    23422630.2934
  22912900.036   -10072651.857 8  -7825112.35546  22912899.390    22912908.8154
  21239389.806   -23805751.806 9 -17970057.08847  21239389.027    21239397.3284
  21692817.884   -19286860.301 9 -12672221.68447  21692817.365    21692823.9704
  21106571.685   -18169903.978 9 -14130663.64847  21106571.415    21106579.2544
 01  4 25  1 24  0.0000000  0 10 17 03 14 23 21 09 31 15 18 29
  22512887.531   -15527264.616 8 -12070070.56746  22512886.943    22512897.4114
  21778358.662   -15507857.441 8 -12053622.67747  21778358.246    21778366.7244
  20858595.181   -21517205.459 9 -16746791.02347  20858594.615    20858601.4224
  22488158.223   -12080969.121 8  -8100110.00146  22488157.483    22488165.8384
  21133722.259   -22631127.277 9 -16730565.90747  21133721.629    21133729.0264
  23425007.569   -13350714.645 8 -10391157.79445  23425007.215    23425017.1514
  22906223.830   -10107735.134 8  -7852449.91046  22906223.152    22906232.5474
  21250383.712   -23747978.671 9 -17925039.09347  21250382.906    21250391.2104
  21702776.917   -19234525.220 9 -12631441.12647  21702776.411    21702783.0344
  21094848.837   -18231507.593 9 -14178666.36747  21094848.580    21094856.3844
 01  4 25  1 24 30.0000000  0 10 17 03 14 23 21 09 31 15 18 29
  22527981.049   -15447948.162 8 -12008265.65546  22527980.464    22527990.9804
  21783815.686   -15479180.954 8 -12031277.38647  21783815.258    21783823.7284
  20847661.460   -21574662.135 9 -16791562.37447  20847660.885    20847667.6844
  22497890.012   -12029828.425 8  -8060260.12846  22497889.275    22497897.6204
  21131889.978   -22640755.731 9 -16738068.57347  21131889.357    21131896.7634
  23427503.335   -13337599.195 8 -10380937.93345  23427502.898    23427512.9514
  22899651.614   -10142271.885 8  -7879361.60846  22899650.932    22899660.3634
  21261449.546   -23689827.299 9 -17879726.37847  21261448.745    21261457.0734
  21712759.068   -19182068.809 9 -12590566.02147  21712758.560    21712765.1624
  21083206.449   -18292688.440 9 -14226339.66047  21083206.190    21083213.9754
 01  4 25  1 25  0.0000000  0 10 17 03 14 23 21 09 31 15 18 29
  22543135.170   -15368313.334 8 -11946212.66046  22543134.593    22543145.0924
  21789372.180   -15449981.230 8 -12008524.37947  21789371.742    21789380.2364
  20836818.727   -21631640.644 9 -16835961.12847  20836818.151    20836824.9404
  22507631.064   -11978638.970 8  -8020372.26446  22507630.352    22507638.6534
  21130083.558   -22650248.506 9 -16745465.51247  21130082.938    21130090.3294
  23430108.025   -13323911.359 8 -10370272.05745  23430107.614    23430117.6234
  22893183.636   -10176261.057 8  -7905846.61046  22893182.919    22893192.4114
  21272587.445   -23631297.499 9 -17834118.78147  21272586.645    21272594.9854
  21722764.244   -19129491.304 9 -12549596.55647  21722763.724    21722770.3004
  21071644.741   -18353445.231 9 -14273682.51847  21071644.484    21071652.2304
 01  4 25  1 25 30.0000000  0 10 17 03 14 23 21 09 31 15 18 29
  22558349.635   -15288361.198 8 -11883912.41146  22558349.010    22558359.5574
  21795027.933   -15420259.989 8 -11985364.99847  21795027.487    21795036.0194
  20826067.139   -21688140.185 9 -16879986.65847  20826066.564    20826073.3474
  22517381.264   -11927401.295 8  -7980446.82746  22517380.551    22517388.8694
  21128302.871   -22659605.972 9 -16752757.02347  21128302.241    21128309.6204
  23432821.654   -13309651.042 8 -10359160.10245  23432821.276    23432831.2304
  22886819.979   -10209701.859 8  -7931904.33046  22886819.275    22886828.7664
  21283797.265   -23572389.736 9 -17788216.66747  21283796.464    21283804.8234
  21732792.301   -19076793.775 9 -12508533.56547  21732791.781    21732798.3024
  21060163.872   -18413777.311 9 -14320694.43247  21060163.592    21060171.3274
 01  4 25  1 26  0.0000000  0 10 17 03 14 23 21 09 31 15 18 29
  22573624.404   -15208092.159 8 -11821365.23446  22573623.785    22573634.2984
  21800782.743   -15390018.337 8 -11961800.10147  21800782.313    21800790.8484
  20815407.057   -21744159.021 9 -16923637.61547  20815406.474    20815413.2604
  22527140.698   -11876115.168 8  -7940483.64146  22527139.996    22527148.3004
  21126548.085   -22668827.256 9 -16759942.41847  21126547.466    21126554.8364
  23435644.405   -13294817.427 8 -10347601.40745  23435643.972    23435653.9644
  22880560.959   -10242593.077 8  -7957533.80346  22880560.277    22880569.7474
  21295079.001   -23513104.087 9 -17742020.09747  21295078.194    21295086.5714
  21742843.199   -19023976.077 9 -12467376.93447  21742842.673    21742849.1924
  21048764.110   -18473683.120 9 -14367374.19047  21048763.834    21048771.5154
 01  4 25  1 26 30.0000000  0 10 17 03 14 23 21 09 31 15 18 29
  22588959.288   -15127507.281 8 -11758571.95546  22588958.659    22588969.2184
  21806636.184   -15359258.170 8 -11937831.16647  21806635.760    21806644.3134
  20804838.599   -21799696.363 9 -16966913.37847  20804838.020    20804844.7814
  22536909.308   -11824780.962 8  -7900482.98746  22536908.593    22536916.9194
  21124818.964   -22677913.687 9 -16767022.72847  21124818.343    21124825.7234
  23438576.133   -13279410.982 8 -10335596.36345  23438575.682    23438585.6704
  22874406.615   -10274934.036 8  -7982734.49646  22874405.948    22874415.4284
  21306432.509   -23453441.232 9 -17695529.59947  21306431.694    21306440.0694
  21752916.767   -18971039.239 9 -12426127.46747  21752916.220    21752922.7764
  21037445.594   -18533162.007 9 -14413721.27647  21037445.320    21037452.9434
 01  4 25  1 27  0.0000000  0 10 17 03 14 23 21 09 31 15 18 29
  22604354.144   -15046607.095 8 -11695532.98646  22604353.551    22604364.1024
  21812588.038   -15327981.162 8 -11913459.49947  21812587.620    21812596.1634
  20794361.920   -21854751.298 9 -17009813.23947  20794361.343    20794368.0684
  22546687.067   -11773398.753 8  -7860444.93346  22546686.334    22546694.6814
  21123115.557   -22686865.109 9 -16773997.84147  21123114.932    21123122.3154
  23441616.886   -13263431.388 8 -10323144.71545  23441616.447    23441626.3854
  22868357.227   -10306723.750 8  -8007505.65846  22868356.527    22868366.0234
  21317857.777   -23393401.207 9 -17648745.19847  21317856.965    21317865.3404
  21763012.952   -18917983.675 9 -12384785.48947  21763012.400    21763018.9794
  21026208.514   -18592212.940 9 -14459734.89647  21026208.259    21026215.8504
 01  4 25  1 27 30.0000000  0 10 17 03 14 23 21 09 31 15 18 29
  22619808.797   -14965392.650 8 -11632249.13046  22619808.222    22619818.8374
  21818637.966   -15296188.714 8 -11888686.19447  21818637.551    21818646.0744
  20783977.224   -21909322.966 9 -17052336.54047  20783976.643    20783983.3354
  22556473.849   -11721968.946 8  -7820369.78346  22556473.119    22556481.4624
  21121437.756   -22695681.948 9 -16780868.08547  21121437.143    21121444.5184
  23444766.683   -13246879.086 8 -10310246.80745  23444766.156    23444776.2234
  22862412.876   -10337961.468 8  -8031846.68946  22862412.191    22862421.6484
  21329354.687   -23332984.821 9 -17601667.53347  21329353.855    21329362.2364
  21773131.550   -18864810.076 9 -12343351.53847  21773131.025    21773137.5794
  21015053.069   -18650834.891 9 -14505414.24547  21015052.792    21015060.3564
 01  4 25  1 28  0.0000000  0 10 17 03 14 23 21 09 31 15 18 29
  22635323.146   -14883864.627 8 -11568720.93746  22635322.552    22635333.2514
  21824785.596   -15263882.767 8 -11863512.75447  21824785.155    21824793.7204
  20773684.616   -21963410.478 9 -17094482.56547  20773684.048    20773690.7184
  22566269.662   -11670491.734 8  -7780257.69246  22566268.937    22566277.2904
  21119785.522   -22704364.495 9 -16787633.68547  21119784.907    21119792.2434
  23448025.490   -13229753.634 8 -10296902.27345  23448024.980    23448035.0774
  22856573.749   -10368646.314 8  -8055756.92146  22856573.044    22856582.4704
  21340923.178   -23272192.109 9 -17554296.62247  21340922.357    21340930.7304
  21783272.576   -18811518.736 9 -12301825.83447  21783272.054    21783278.5954
  21003979.344   -18709027.144 9 -14550758.76447  21003979.078    21003986.6124
 01  4 25  1 28 30.0000000  0 10 17 03 14 23 21 09 31 15 18 29
  22650896.991   -14802024.082 8 -11504949.20746  22650896.390    22650907.1134
  21831030.569   -15231065.188 8 -11837940.64347  21831030.132    21831038.7224
  20763484.332   -22017012.819 9 -17136250.53647  20763483.769    20763490.4304
  22576074.443   -11618967.385 8  -7740108.87646  22576073.739    22576082.0754
  21118158.785   -22712913.032 9 -16794294.86247  21118158.163    21118165.4764
  23451393.369   -13212055.122 8 -10283111.19345  23451392.869    23451402.9684
  22850839.871   -10398778.089 8  -8079236.18846  22850839.164    22850848.5644
  21352563.151   -23211023.905 9 -17506633.12447  21352562.329    21352570.6774
  21793435.800   -18758110.671 9 -12260209.17847  21793435.269    21793441.8404
  20992987.608   -18766788.798 9 -14595767.74947  20992987.347    20992994.8534
 01  4 25  1 29  0.0000000  0 10 17 03 14 23 21 09 31 15 18 29
  22666530.165   -14719871.815 8 -11440934.57346  22666529.547    22666540.3304
  21837372.672   -15197737.238 8 -11811970.84347  21837372.252    21837380.8694
  20753376.590   -22070128.949 9 -17177639.64547  20753376.027    20753382.6874
  22585888.212   -11567395.780 8  -7699923.23646  22585887.535    22585895.8624
  21116557.578   -22721327.369 9 -16800851.46847  21116556.942    21116564.2424
  23454870.250   -13193783.582 8 -10268873.61145  23454869.771    23454879.9184
  22845211.395   -10428355.771 8  -8102283.69446  22845210.680    22845220.0684
  21364274.490   -23149480.488 9 -17458677.25547  21364273.661    21364282.0304
  21803621.173   -18704586.126 9 -12218501.75847  21803620.657    21803627.2164
  20982077.989   -18824118.762 9 -14640440.35347  20982077.720    20982085.2144
 01  4 25  1 29 30.0000000  0 10 17 03 14 23 21 09 31 15 18 29
  22682222.498   -14637408.449 8 -11376677.53246  22682221.885    22682232.7034
  21843811.596   -15163900.593 8 -11785604.66047  21843811.184    21843819.8084
  20743361.564   -22122757.828 9 -17218649.08147  20743361.000    20743367.6574
  22595710.960   -11515777.081 8  -7659700.92146  22595710.255    22595718.6154
  21114981.853   -22729607.806 9 -16807303.73647  21114981.223    21114988.5044
  23458456.223   -13174938.838 8 -10254189.37545  23458455.819    23458465.9454
  22839688.505   -10457378.411 8  -8124898.70346  22839687.833    22839697.2344
  21376057.174   -23087562.147 9 -17410429.23647  21376056.364    21376064.7144
  21813828.629   -18650945.625 9 -12176703.98947  21813828.111    21813834.6494
  20971250.717   -18881016.077 9 -14684775.82947  20971250.466    20971257.9364
 01  4 25  1 30  0.0000000  0 10 17 03 14 23 21 09 31 15 18 29
  22697973.906   -14554634.859 8 -11312178.75246  22697973.280    22697984.1604
  21850346.943   -15129557.184 8 -11758843.59147  21850346.540    21850355.1474
  20733439.437   -22174898.623 9 -17259278.19047  20733438.879    20733445.5094
  22605542.647   -11464111.389 8  -7619441.97846  22605541.929    22605550.2874
  21113431.498   -22737754.940 9 -16813652.13647  21113430.876    21113438.1494
  23462151.348   -13155520.930 8 -10239058.52545  23462150.881    23462161.0494
  22834271.404   -10485845.101 8  -8147080.49246  22834270.744    22834280.1794
  21387911.131   -23025269.326 9 -17361889.42047  21387910.318    21387918.7064
  21824058.118   -18597189.442 9 -12134816.07747  21824057.589    21824064.1064
  20960505.930   -18937479.865 9 -14728773.49547  20960505.674    20960513.1404
 01  4 25  1 30 30.0000000  0 10 17 03 14 23 21 09 31 15 18 29
  22713784.053   -14471552.474 8 -11247439.34246  22713783.435    22713794.3484
  21856978.348   -15094709.083 8 -11731689.25947  21856977.939    21856986.5224
  20723610.279   -22226550.941 9 -17299526.66747  20723609.714    20723616.3294
  22615383.129   -11412399.422 8  -7579146.97846  22615382.407    22615390.8064
  21111906.449   -22745769.131 9 -16819896.93847  21111905.812    21111913.0674
  23465955.275   -13135530.795 8 -10223481.76645  23465954.828    23465965.0274
  22828960.152   -10513756.011 8  -8168829.22546  22828959.460    22828968.8864
  21399836.132   -22962603.295 9 -17313058.78747  21399835.302    21399843.7034
  21834309.371   -18543318.788 9 -12092838.96247  21834308.842    21834315.3744
  20949843.707   -18993509.960 9 -14772433.21347  20949843.435    20949850.9034
 01  4 25  1 31  0.0000000  0 10 17 03 14 23 21 09 31 15 18 29
  22729652.888   -14388161.620 8 -11182459.57946  22729652.279    22729663.2384
  21863705.539   -15059357.605 8 -11704142.68547  21863705.112    21863713.7164
  20713874.293   -22277713.529 9 -17339393.53847  20713873.734    20713880.3224
  22625232.531   -11360640.693 8  -7538815.54146  22625231.798    22625240.2394
  21110406.851   -22753649.435 9 -16826037.41747  21110406.220    21110413.4594
  23469868.242   -13114967.890 8 -10207458.70345  23469867.778    23469877.9974
  22823754.808   -10541110.091 8  -8190144.06146  22823754.134    22823763.5384
  21411832.157   -22899563.889 9 -17263937.21447  21411831.338    21411839.7554
  21844582.436   -18489333.700 9 -12050772.67847  21844581.901    21844588.4324
  20939264.233   -19049105.080 9 -14815753.99547  20939263.979    20939271.4034
 01  4 25  1 31 30.0000000  0 10 17 03 14 23 21 09 31 15 18 29
  22745580.161   -14304463.625 8 -11117240.48146  22745579.543    22745590.5514
  21870528.190   -15023504.709 9 -11676205.39147  21870527.738    21870536.3484
  20704231.629   -22328385.793 9 -17378878.33547  20704231.069    20704237.6234
  22635090.754   -11308835.582 8  -7498447.95446  22635090.033    22635098.4634
  21108932.573   -22761396.858 9 -16832074.35147  21108931.940    21108939.1854
  23473890.175   -13093832.375 8 -10190989.44545  23473889.664    23473899.8534
  22818655.542   -10567906.875 8  -8211024.64646  22818654.824    22818664.2324
  21423899.118   -22836151.708 9 -17214525.16947  21423898.314    21423906.7254
  21854877.106   -18435235.004 9 -12008617.87247  21854876.534    21854883.0864
  20928767.680   -19104264.277 9 -14858735.09247  20928767.436    20928774.8564
 01  4 25  1 32  0.0000000  0 10 17 03 14 23 21 09 31 15 18 29
  22761565.766   -14220459.061 8 -11051782.49845  22761565.156    22761576.2214
  21877445.888   -14987152.068 8 -11647878.68847  21877445.440    21877454.0504
  20694682.517   -22378566.484 9 -17417980.09647  20694681.950    20694688.4754
  22644957.771   -11256984.055 8  -7458044.21146  22644957.033    22644965.5024
  21107483.517   -22769011.571 9 -16838007.87847  21107482.884    21107490.1204
  23478021.060   -13072124.323 8 -10174074.05745  23478020.655    23478030.8224
  22813662.534   -10594145.315 8  -8231470.16646  22813661.821    22813671.1444
  21436036.896   -22772367.329 9 -17164823.10247  21436036.101    21436044.5084
  21865193.317   -18381022.843 9 -11966374.65447  21865192.752    21865199.3054
  20918354.257   -19158986.927 9 -14901376.02947  20918354.005    20918361.4114
 01  4 25  1 32 30.0000000  0 10 17 03 14 23 21 09 31 15 18 29
  22777609.492   -14136149.240 8 -10986086.65445  22777608.839    22777619.9084
  21884458.255   -14950302.000 8 -11619164.38047  21884457.805    21884466.3914
  20685226.985   -22428255.396 9 -17456698.65047  20685226.416    20685232.9144
  22654833.504   -11205086.684 8  -7417604.73846  22654832.776    22654841.2994
  21106059.696   -22776493.856 9 -16843838.21247  21106059.049    21106066.2894
  23482260.701   -13049844.626 8 -10156713.23545  23482260.319    23482270.4834
  22808775.752   -10619825.465 8  -8251480.64146  22808775.024    22808784.3484
  21448245.379   -22708211.477 9 -17114831.57347  21448244.569    21448253.0064
  21875530.930   -18326698.260 9 -11924043.82747  21875530.366    21875536.9184
  20908024.032   -19213272.209 9 -14943676.15947  20908023.786    20908031.1654
 01  4 25  1 33  0.0000000  0 10 17 03 14 23 21 09 31 15 18 29
  22793711.194   -14051534.582 8 -10920153.27345  22793710.553    22793721.6194
  21891565.037   -14912955.700 8 -11590063.39947  21891564.585    21891573.2034
  20675865.276   -22477451.214 9 -17495032.97347  20675864.707    20675871.1794
  22664718.088   -11153142.928 8  -7377129.11546  22664717.422    22664725.9414
  21104661.126   -22783843.364 9 -16849565.08747  21104660.488    21104667.7124
  23486609.257   -13026992.774 8 -10138906.56645  23486608.789    23486618.9574
  22803995.394   -10644946.227 8  -8271055.25146  22803994.663    22804004.0104
  21460524.550   -22643684.214 9 -17064550.63547  21460523.739    21460532.1694
  21885890.009   -18272260.972 9 -11881625.17047  21885889.474    21885895.9964
  20897777.200   -19267119.196 9 -14985634.75847  20897776.950    20897784.3134
 01  4 25  1 33 30.0000000  0 10 17 03 14 23 21 09 31 15 18 29
  22809870.718   -13966616.284 8 -10853983.29945  22809870.076    22809881.0964
  21898765.835   -14875115.485 8 -11560577.54847  21898765.390    21898774.0194
  20666597.521   -22526153.435 9 -17532982.67947  20666596.943    20666603.3924
  22674611.386   -11101153.208 8  -7336617.67546  22674610.734    22674619.2944
  21103287.725   -22791060.628 9 -16855188.91547  21103287.078    21103294.3204
  23491066.650   -13003569.112 8 -10120654.35045  23491066.153    23491076.2764
  22799321.567   -10669507.402 8  -8290193.79846  22799320.858    22799330.1774
  21472874.223   -22578786.360 9 -17013980.92047  21472873.409    21472881.8734
  21896270.377   -18217711.959 9 -11839119.45947  21896269.838    21896276.3324
  20887613.881   -19320527.410 9 -15027251.45847  20887613.636    20887620.9834
 01  4 25  1 34  0.0000000  0 10 17 03 14 23 21 09 31 15 18 29
  22826087.826   -13881395.464 8 -10787577.59145  22826087.118    22826098.2624
  21906060.211   -14836783.377 9 -11530708.41247  21906059.760    21906068.4014
  20657423.806   -22574361.363 9 -17570547.22447  20657423.224    20657429.6374
  22684513.410   -11049117.757 8  -7296070.59046  22684512.768    22684521.2714
  21101939.473   -22798145.534 9 -16860709.61147  21101938.832    21101946.0664
  23495632.733   -12979574.164 8 -10101956.96745  23495632.262    23495642.4024
  22794754.281   -10693508.505 8  -8308895.95446  22794753.591    22794762.8784
  21485294.229   -22513518.751 9 -16963123.09447  21485293.391    21485301.9094
  21906671.880   -18163051.871 9 -11796527.19647  21906671.327    21906677.8164
  20877534.243   -19373496.032 9 -15068525.62447  20877533.984    20877541.3134
 01  4 25  1 34 30.0000000  0 10 17 03 14 23 21 09 31 15 18 29
  22842362.341   -13795872.976 8 -10720936.82045  22842361.671    22842372.8184
  21913447.917   -14797960.934 8 -11500457.19747  21913447.486    21913456.1174
  20648344.291   -22622074.218 9 -17607725.99647  20648343.709    20648350.0994
  22694424.200   -10997036.510 8  -7255487.83446  22694423.537    22694432.0284
  21100616.473   -22805098.001 9 -16866127.10647  21100615.828    21100623.0644
  23500307.576   -12955008.171 8 -10082814.60445  23500307.076    23500317.0904
  22790293.710   -10716948.843 8  -8327161.13246  22790293.028    22790302.2704
  21497784.536   -22447881.887 9 -16911977.53447  21497783.714    21497792.2494
  21917094.453   -18108280.916 9 -11753848.54347  21917093.892    21917100.4214
  20867538.387   -19426024.223 9 -15109456.59247  20867538.124    20867545.4284
 01  4 25  1 35  0.0000000  0 10 17 03 14 23 21 09 31 15 18 29
  22858693.930   -13710050.269 8 -10654062.11845  22858693.265    22858704.4344
  21920928.415   -14758650.609 8 -11469825.81947  21920928.017    21920936.6404
  20639359.038   -22669291.799 9 -17644518.83947  20639358.460    20639364.8264
  22704343.571   -10944910.038 8  -7214869.82246  22704342.890    22704351.3724
  21099318.509   -22811918.786 9 -16871441.99447  21099317.876    21099325.0874
  23505090.784   -12929872.044 8 -10063227.97945  23505090.264    23505100.3494
  22785939.834   -10739828.735 8  -8344989.60346  22785939.152    22785948.3324
  21510344.938   -22381876.665 8 -16860544.94347  21510344.108    21510352.6684
  21927537.917   -18053400.078 8 -11711084.26947  21927537.372    21927543.9164
  20857626.373   -19478111.915 9 -15150044.31947  20857626.096    20857633.3794
 01  4 25  1 35 30.0000000  0 10 17 03 14 23 21 09 31 15 18 29
  22875082.690   -13623927.349 8 -10586953.48345  22875082.080    22875093.2034
  21928501.561   -14718853.563 8 -11438815.17947  21928501.164    21928509.8014
  20630468.335   -22716012.462 9 -17680924.47947  20630467.755    20630474.1054
  22714271.708   -10892737.527 8  -7174215.94446  22714271.017    22714279.5014
  21098045.783   -22818607.078 9 -16876653.64147  21098045.147    21098052.3424
  23509982.560   -12904165.030 8 -10043196.51945  23509982.158    23509992.2334
  22781692.880   -10762146.541 8  -8362380.06946  22781692.193    22781701.3454
  21522975.503   -22315502.694 8 -16808825.01647  21522974.685    21522983.2714
  21938002.370   -17998408.770 8 -11668233.92047  21938001.857    21938008.4004
  20847798.511   -19529757.459 9 -15190287.51847  20847798.230    20847805.4994
 01  4 25  1 36  0.0000000  0 10 17 03 14 23 21 09 31 15 18 29
  22891528.285   -13537505.643 8 -10519612.03745  22891527.675    22891538.8784
  21936166.974   -14678571.855 8 -11407426.87947  21936166.568    21936175.1954
  20621672.198   -22762236.045 9 -17716942.78347  20621671.624    20621677.9514
  22724208.500   -10840519.283 8  -7133526.42446  22724207.799    22724216.3014
  21096798.081   -22825163.600 9 -16881762.61147  21096797.461    21096804.6364
  23514982.972   -12877887.805 8 -10022720.73845  23514982.526    23514992.5484
  22777552.907   -10783902.395 8  -8379332.65646  22777552.248    22777561.2984
  21535676.071   -22248760.958 9 -16756818.51447  21535675.262    21535683.8424
  21948487.787   -17943307.679 8 -11625298.02447  21948487.258    21948493.8324
  20838054.835   -19580960.517 9 -15230185.92247  20838054.555    20838061.7934
 01  4 25  1 36 30.0000000  0 10 17 03 14 23 21 09 31 15 18 29
  22908030.518   -13450786.169 8 -10452038.54645  22908029.941    22908041.2594
  21943924.173   -14637807.826 8 -11375662.74947  21943923.758    21943932.3644
  20612970.842   -22807961.684 9 -17752573.07947  20612970.248    20612976.5624
  22734153.977   -10788255.564 8  -7092801.47146  22734153.253    22734161.8004
  21095575.485   -22831588.255 9 -16886768.82647  21095574.848    21095582.0514
  23520091.799   -12851040.978 8 -10001801.10245  23520091.329    23520101.3714
  22773519.860   -10805096.073 8  -8395847.18246  22773519.180    22773528.2244
  21548446.445   -22181652.323 8 -16704526.11847  21548445.641    21548454.2074
  21958993.902   -17888097.571 8 -11582277.17947  21958993.365    21958999.9744
  20828395.469   -19631720.331 9 -15269738.94047  20828395.182    20828402.4194
 01  4 25  1 37  0.0000000  0 10 17 03 14 23 21 09 31 15 18 29
  22924589.238   -13363769.959 8 -10384233.83845  22924588.697    22924600.0714
  21951772.807   -14596563.250 8 -11343524.17447  21951772.384    21951781.0164
  20604364.317   -22853189.032 9 -17787815.09647  20604363.726    20604370.0294
  22744108.107   -10735946.321 8  -7052041.04846  22744107.362    22744115.9064
  21094377.944   -22837881.353 9 -16891672.53147  21094377.297    21094384.5124
  23525308.918   -12823624.997 8  -9980437.98945  23525308.478    23525318.4144
  22769593.945   -10825726.971 8  -8411923.18046  22769593.229    22769602.2854
  21561286.554   -22114177.402 8 -16651948.31047  21561285.742    21561294.3064
  21969520.764   -17832778.764 8 -11539171.64147  21969520.228    21969526.8224
  20818820.538   -19682036.447 9 -15308946.22147  20818820.261    20818827.5154
 01  4 25  1 37 30.0000000  0 10 17 03 14 23 21 09 31 15 18 29
  22941204.192   -13276458.205 8 -10316198.84045  22941203.625    22941214.9734
  21959712.468   -14554840.277 8 -11311012.82347  21959712.048    21959720.6754
  20595852.710   -22897917.486 9 -17822668.36847  20595852.108    20595858.3774
  22754070.881   -10683591.633 8  -7011245.20646  22754070.144    22754078.7154
  21093205.379   -22844043.251 9 -16896474.00147  21093204.738    21093211.9574
  23530634.201   -12795640.261 8  -9958631.67745  23530633.781    23530643.6354
  22765775.117   -10845795.029 8  -8427560.57846  22765774.382    22765783.3974
  21574196.251   -22046336.760 9 -16599085.52047  21574195.435    21574204.0184
  21980068.171   -17777351.863 8 -11495981.86847  21980067.636    21980074.2144
  20809330.152   -19731908.330 9 -15347807.34647  20809329.871    20809337.1334
 01  4 25  1 38  0.0000000  0 10 17 03 14 23 21 09 31 15 18 29
  22957875.197   -13188851.867 8 -10247934.30745  22957874.604    22957886.0594
  21967742.749   -14512640.998 8 -11278130.31747  21967742.348    21967750.9604
  20587436.208   -22942146.423 9 -17857132.40747  20587435.615    20587441.8394
  22764042.294   -10631191.545 8  -6970413.98846  22764041.582    22764050.1414
  21092057.856   -22850073.512 9 -16901172.89547  21092057.203    21092064.4294
  23536067.642   -12767087.372 8  -9936382.67245  23536067.249    23536077.0794
  22762063.505   -10865299.692 8  -8442758.98946  22762062.752    22762071.7854
  21587175.365   -21978131.161 8 -16545938.34947  21587174.560    21587183.1384
  21990636.048   -17721817.264 8 -11452708.18146  21990635.510    21990642.1114
  20799924.409   -19781335.317 9 -15386321.80447  20799924.132    20799931.3584
 01  4 25  1 38 30.0000000  0 10 17 03 14 23 21 09 31 15 18 29
  22974602.047   -13100952.034 8 -10179441.07345  22974601.524    22974612.9254
  21975863.271   -14469967.571 9 -11244878.35247  21975862.867    21975871.4864
  20579114.784   -22985875.365 9 -17891206.84147  20579114.186    20579120.3934
  22774022.337   -10578746.125 8  -6929547.44746  22774021.633    22774030.1744
  21090935.272   -22855972.432 9 -16905769.44447  21090934.630    21090941.8754
  23541609.091   -12737966.835 8  -9913691.32945  23541608.673    23541618.4494
  22758459.157   -10884240.812 8  -8457518.27546  22758458.357    22758467.3534
  21600223.806   -21909561.366 8 -16492507.38947  21600223.007    21600231.6014
  22001224.430   -17666175.209 8 -11409350.76447  22001223.899    22001230.5164
  20790603.478   -19830316.876 9 -15424489.17147  20790603.215    20790610.4174
 01  4 25  1 39  0.0000000  0 10 17 03 14 23 21 09 31 15 18 29
  22991384.568   -13012759.823 8 -10110720.00845  22991384.065    22991395.4014
  21984073.688   -14426821.945 8 -11211258.44347  21984073.282    21984081.9064
  20570888.662   -23029103.736 9 -17924891.22347  20570888.071    20570894.2544
  22784010.998   -10526255.473 8  -6888645.67246  22784010.268    22784018.8554
  21089837.687   -22861740.183 9 -16910263.78447  21089837.040    21089844.2904
  23547258.435   -12708279.352 8  -9890558.21145  23547258.033    23547267.7334
  22754962.030   -10902618.126 8  -8471838.21646  22754961.238    22754970.1784
  21613341.398   -21840628.163 8 -16438793.25847  21613340.575    21613349.2234
  22011833.103   -17610426.339 8 -11365910.12047  22011832.546    22011839.1894
  20781367.436   -19878852.339 9 -15462308.93847  20781367.169    20781374.3214
 01  4 25  1 39 30.0000000  0 10 17 03 14 23 21 09 31 15 18 29
  23008222.470   -12924276.259 8 -10041771.90745  23008221.999    23008233.2654
  21992373.484   -14383206.349 8 -11177272.32347  21992373.077    21992381.7304
  20562757.860   -23071831.017 9 -17958185.14147  20562757.269    20562763.4604
  22794008.190   -10473719.739 8  -6847708.76446  22794007.487    22794016.1034
  21088764.998   -22867377.102 9 -16914656.17547  21088764.362    21088771.6334
  23553015.530   -12678025.419 8  -9866983.70045  23553015.197    23553024.8254
  22751572.138   -10920431.655 8  -8485718.84746  22751571.335    22751580.3304
  21626528.023   -21771332.123 9 -16384796.39047  21626527.217    21626535.8874
  22022462.021   -17554571.026 8 -11322386.52047  22022461.457    22022468.1654
  20772216.330   -19926941.415 9 -15499780.86347  20772216.044    20772223.1834
 01  4 25  1 40  0.0000000  0 10 17 03 14 23 21 09 31 15 18 29
  23025115.725   -12835502.239 8  -9972597.47445  23025115.214    23025126.5834
  22000762.422   -14339122.420 9 -11142921.26647  22000762.009    22000770.7114
  20554722.575   -23114056.335 9 -17991087.92647  20554721.992    20554728.1674
  22804014.115   -10421138.485 8  -6806736.39546  22804013.410    22804022.0454
  21087717.308   -22872882.605 9 -16918946.16447  21087716.668    21087723.9384
  23558880.333   -12647205.144 8  -9842967.88745  23558880.107    23558889.6814
  22748289.638   -10937680.876 8  -8499159.76346  22748288.907    22748297.9154
  21639783.611   -21701673.712 8 -16330517.16047  21639782.810    21639791.4754
  22033111.211   -17498609.313 8 -11278780.02346  22033110.665    22033117.3884
  20763150.374   -19974583.012 9 -15536904.11347  20763150.091    20763157.2024
 01  4 25  1 40 30.0000000  0 10 17 03 14 23 21 09 31 15 18 29
  23042064.082   -12746438.768 8  -9903197.50645  23042063.551    23042074.9504
  22009240.063   -14294572.304 8 -11108206.95047  22009239.630    22009248.3644
  20546782.926   -23155779.306 9 -18023599.26747  20546782.349    20546788.5014
  22814028.669   -10368511.801 8  -6765728.62346  22814027.947    22814036.6074
  21086694.694   -22878256.464 9 -16923133.56947  21086694.056    21086701.3194
  23564852.879   -12615819.353 8  -9818511.41545  23564852.592    23564862.2374
  22745114.588   -10954365.523 8  -8512160.74946  22745113.885    22745122.9294
  21653108.023   -21631653.797 8 -16275956.23847  21653107.226    21653115.8894
  22043780.514   -17442541.830 8 -11235091.09146  22043779.969    22043786.6874
  20754169.636   -20021776.898 9 -15573678.49147  20754169.348    20754176.4374
 01  4 25  1 41  0.0000000  0 10 17 03 14 23 21 09 31 15 18 29
  23059067.171   -12657087.370 8  -9833573.16245  23059066.620    23059078.1544
  22017805.855   -14249558.754 8 -11073131.51547  22017805.440    22017814.2264
  20538938.870   -23196999.916 9 -18055719.16147  20538938.279    20538944.4244
  22824051.783   -10315839.935 8  -6724685.64746  22824051.029    22824059.7954
  21085696.999   -22883499.384 9 -16927218.94447  21085696.366    21085703.6154
  23570932.861   -12583869.143 8  -9793615.13545  23570932.513    23570942.1724
  22742046.983   -10970485.618 8  -8524721.83246  22742046.299    22742055.3664
  21666501.021   -21561273.389 9 -16221114.41847  21666500.204    21666508.8934
  22054469.850   -17386369.095 8 -11191320.15246  22054469.299    22054476.0034
  20745274.139   -20068522.826 9 -15610103.81647  20745273.856    20745280.9104
 01  4 25  1 41 30.0000000  0 10 17 03 14 23 21 09 31 15 18 29
  23076124.884   -12567449.141 8  -9763725.32245  23076124.351    23076135.9074
  22026459.503   -14204083.720 8 -11037696.48247  22026459.079    22026467.8864
  20531190.513   -23237717.457 9 -18087447.05647  20531189.923    20531196.0504
  22834083.540   -10263122.879 8  -6683607.46846  22834082.784    22834091.5554
  21084724.110   -22888611.758 9 -16931202.59747  21084723.480    21084730.7394
  23577120.087   -12551354.948 8  -9768279.38245  23577119.750    23577129.4724
  22739086.837   -10986041.103 8  -8536842.95946  22739086.118    22739095.1894
  21679962.490   -21490533.217 8 -16165992.25147  21679961.665    21679970.3374
  22065179.130   -17330091.479 8 -11147467.49646  22065178.595    22065185.2674
  20736463.969   -20114820.263 9 -15646179.67147  20736463.675    20736470.7244
 01  4 25  1 42  0.0000000  0 10 17 03 14 23 21 09 31 15 18 29
  23093236.978   -12477525.106 8  -9693654.77145  23093236.455    23093247.9554
  22035200.571   -14158149.261 8 -11001903.45347  22035200.148    22035208.9804
  20523537.981   -23277931.568 9 -18118782.66747  20523537.401    20523543.5164
  22844123.884   -10210360.577 8  -6642494.02546  22844123.143    22844131.8824
  21083776.250   -22893592.641 9 -16935083.79047  21083775.636    21083782.8694
  23583414.500   -12518277.293 8  -9742504.57245  23583414.152    23583423.9494
  22736234.149   -11001031.713 8  -8548523.92346  22736233.434    22736242.5734
  21693492.326   -21419433.755 8 -16110590.12247  21693491.508    21693500.1774
  22075908.318   -17273709.227 8 -11103533.30646  22075907.767    22075914.4854
  20727739.291   -20160668.427 9 -15681905.44147  20727738.995    20727746.0264
 01  4 25  1 42 30.0000000  0 10 17 03 14 23 21 09 31 15 18 29
  23110403.337   -12387316.092 8  -9623362.16345  23110402.700    23110414.2484
  22044028.680   -14111757.390 8 -10965754.00247  22044028.247    22044037.1024
  20515981.343   -23317641.663 9 -18149725.53847  20515980.752    20515986.8624
  22854172.894   -10157552.746 8  -6601345.10446  22854172.176    22854180.8464
  21082853.429   -22898442.210 9 -16938862.65747  21082852.795    21082860.0464
  23589815.985   -12484636.947 8  -9716291.31045  23589815.630    23589825.4624
  22733488.941   -11015457.398 8  -8559764.69846  22733488.244    22733497.4504
  21707090.409   -21347975.645 8 -16054908.52547  21707089.585    21707098.2774
  22086657.388   -17217222.616 8 -11059517.80046  22086656.846    22086663.5574
  20719100.158   -20206067.014 9 -15717280.89447  20719099.866    20719106.8824
 01  4 25  1 43  0.0000000  0 10 17 03 14 23 21 09 31 15 18 29
  23127623.571   -12296823.629 8  -9552848.69345  23127622.880    23127634.5114
  22052943.402   -14064910.619 8 -10929250.07447  22052942.975    22052951.8184
  20508520.680   -23356847.497 9 -18180275.47747  20508520.087    20508526.1724
  22864230.595   -10104699.513 8  -6560160.79446  22864229.843    22864238.5164
  21081955.443   -22903161.088 9 -16942539.68547  21081954.806    21081962.0584
  23596324.381   -12450434.708 8  -9689640.20945  23596324.065    23596333.8954
  22730851.261   -11029318.239 8  -8570565.32546  22730850.550    22730859.7794
  21720756.537   -21276159.855 8 -15998948.23447  21720755.714    21720764.4144
  22097426.199   -17160632.144 8 -11015421.36046  22097425.660    22097432.3994
  20710546.630   -20251015.712 9 -15752305.78447  20710546.337    20710553.3364
 01  4 25  1 43 30.0000000  0 10 17 03 14 23 21 09 31 15 18 29
  23144896.973   -12206051.931 8  -9482117.63045  23144896.212    23144907.9074
  22061943.641   -14017614.142 8 -10892395.73046  22061943.214    22061952.0654
  20501155.465   -23395551.832 9 -18210434.64148  20501154.876    20501160.9324
  22874296.287   -10051804.042 8  -6518943.58946  22874295.575    22874304.2064
  21081081.819   -22907752.050 9 -16946117.04047  21081081.181    21081088.4194
  23602939.068   -12415674.460 8  -9662554.29345  23602938.716    23602948.5194
  22728320.488   -11042617.508 8  -8580928.37046  22728319.772    22728328.9894
  21734490.001   -21203990.226 8 -15942712.21847  21734489.186    21734497.9084
  22108214.122   -17103941.328 8 -10971246.73746  22108213.592    22108220.3434
  20702078.234   -20295517.032 9 -15786982.06947  20702077.950    20702084.9264
 01  4 25  1 44  0.0000000  0 10 17 03 14 23 21 09 31 15 18 29
  23162224.100   -12114997.815 8  -9411166.50445  23162223.486    23162234.9734
  22071029.866   -13969865.920 8 -10855189.37246  22071029.424    22071038.2914
  20493886.531   -23433750.115 9 -18240199.47548  20493885.938    20493891.9804
  22884370.829    -9998862.004 8  -6477690.08346  22884370.141    22884378.7684
  21080233.325   -22912210.855 9 -16949591.41647  21080232.659    21080239.9214
  23609660.564   -12380352.614 8  -9635030.77745  23609660.222    23609669.9834
  22725897.422   -11055350.833 8  -8590850.43846  22725896.709    22725905.8734
  21748291.451   -21131463.411 8 -15886197.87047  21748290.622    21748299.3394
  22119021.935   -17047146.100 8 -10926990.75246  22119021.390    22119028.1694
  20693695.843   -20339566.593 9 -15821306.33647  20693695.563    20693702.4904
 01  4 25  1 44 30.0000000  0 10 17 03 14 23 21 09 31 15 18 29
  23179604.679   -12023662.764 8  -9339996.46845  23179604.044    23179615.5264
  22080201.632   -13921668.245 8 -10817632.79046  22080201.185    22080210.0194
  20486713.912   -23471442.220 9 -18269569.88448  20486713.324    20486719.3494
  22894454.271    -9945873.528 8  -6436400.39546  22894453.559    22894462.2104
  21079409.974   -22916537.606 9 -16952962.89047  21079409.319    21079416.5764
  23616488.797   -12344470.215 8  -9607070.46345  23616488.406    23616498.2274
  22723582.047   -11067518.248 8  -8600331.51946  22723581.352    22723590.4814
  21762160.641   -21058580.590 8 -15829406.11947  21762159.830    21762168.5464
  22129849.520   -16990246.918 8 -10882653.74746  22129848.984    22129855.7454
  20685399.510   -20383163.958 9 -15855278.23647  20685399.226    20685406.1364
 01  4 25  1 45  0.0000000  0 10 17 03 14 23 21 09 31 15 18 29
  23197038.364   -11932048.734 8  -9268609.04645  23197037.665    23197049.1834
  22089458.275   -13873024.504 8 -10779728.61846  22089457.836    22089466.6504
  20479637.591   -23508628.418 9 -18298546.08248  20479636.992    20479643.0194
  22904546.373    -9892839.346 8  -6395075.09346  22904545.643    22904554.3474
  21078611.576   -22920733.323 9 -16956232.26247  21078610.901    21078618.1614
  23623423.450   -12308028.543 8  -9578674.35845  23623423.035    23623432.7844
  22721374.215   -11079120.413 8  -8609372.16046  22721373.530    22721382.6414
  21776097.288   -20985343.234 8 -15772338.11247  21776096.482    21776105.2104
  22140696.633   -16933245.100 8 -10838236.78046  22140696.065    22140702.8554
  20677189.111   -20426309.698 9 -15888898.22347  20677188.820    20677195.7324
 01  4 25  1 45 30.0000000  0 10 17 03 14 23 21 09 31 15 18 29
  23214524.919   -11840156.835 8  -9197005.11645  23214524.240    23214535.8114
  22098799.369   -13823936.970 8 -10741478.62546  22098798.930    22098807.7074
  20472657.522   -23545308.622 9 -18327127.99748  20472656.915    20472662.9274
  22914647.163    -9839759.464 8  -6353714.17346  22914646.451    22914655.2004
  21077838.038   -22924798.174 9 -16959399.66047  21077837.377    21077844.6174
  23630464.253   -12271028.913 8  -9549843.46445  23630463.830    23630473.6514
  22719273.899   -11090157.585 8  -8617972.54946  22719273.214    22719282.3204
  21790101.212   -20911752.262 8 -15714994.55447  21790100.397    21790109.1584
  22151563.157   -16876141.130 8 -10793740.20746  22151562.593    22151569.4024
  20669064.707   -20469003.455 9 -15922166.01747  20669064.415    20669071.3144
 01  4 25  1 46  0.0000000  0 10 17 03 14 23 21 09 31 15 18 29
  23232064.084   -11747988.432 8  -9125185.72445  23232063.407    23232075.1114
  22108224.520   -13774407.866 8 -10702884.55946  22108224.075    22108232.8284
  20465773.819   -23581482.468 9 -18355315.35348  20465773.220    20465779.2224
  22924756.649    -9786633.685 8  -6312317.48846  22924755.942    22924764.7374
  21077089.477   -22928731.830 9 -16962464.83347  21077088.795    21077096.0454
  23637611.060   -12233472.091 8  -9520578.38645  23637610.613    23637620.5014
  22717281.016   -11100630.001 8  -8626132.86746  22717280.354    22717289.5054
  21804172.281   -20837808.447 8 -15657376.06147  21804171.466    21804180.2624
  22162449.064   -16818935.145 8 -10749164.14746  22162448.506    22162455.3494
  20661026.387   -20511244.874 9 -15955081.34147  20661026.109    20661032.9814
 01  4 25  1 46 30.0000000  0 10 17 03 14 23 21 09 31 15 18 29
  23249655.634   -11655544.680 8  -9053151.77745  23249654.978    23249666.7234
  22117733.183   -13724439.760 8 -10663948.41046  22117732.712    22117741.4874
  20458986.485   -23617149.949 9 -18383108.13948  20458985.889    20458991.8654
  22934874.889    -9733462.135 8  -6270885.13746  22934874.187    22934882.9694
  21076365.914   -22932534.017 9 -16965427.56447  21076365.246    21076372.4804
  23644863.729   -12195359.087 8  -9490879.92745  23644863.252    23644873.2504
  22715395.589   -11110537.908 8  -8633853.31646  22715394.899    22715404.0734
  21818310.294   -20763512.999 8 -15599483.57647  21818309.478    21818318.2814
  22173354.372   -16761627.443 8 -10704508.82546  22173353.826    22173360.6774
  20653074.199   -20553033.728 9 -15987644.02347  20653073.905    20653080.7534
 01  4 25  1 47  0.0000000  0 10 17 03 14 23 21 09 31 15 18 29
  23267299.383   -11562826.652 8  -8980904.10345  23267298.674    23267310.5054
  22127324.987   -13674034.620 8 -10624671.72446  22127324.512    22127333.3114
  20452295.680   -23652310.321 9 -18410505.77548  20452295.061    20452301.0224
  22945001.931    -9680244.436 8  -6229416.82846  22945001.206    22945010.0264
  21075667.354   -22936204.811 9 -16968287.90247  21075666.700    21075673.9424
  23652222.053   -12156690.613 8  -9460748.65245  23652221.628    23652231.5564
  22713617.662   -11119880.821 8  -8641133.50046  22713616.900    22713626.1444
  21832515.074   -20688866.492 8 -15541317.53347  21832514.265    21832523.0564
  22184279.009   -16704218.158 8 -10659774.33946  22184278.454    22184285.3224
  20645208.200   -20594369.479 9 -16019853.63847  20645207.910    20645214.7384
 01  4 25  1 47 30.0000000  0 10 17 03 14 23 21 09 31 15 18 29
  23284994.975   -11469836.056 8  -8908444.05245  23284994.334    23285006.1994
  22136999.406   -13623195.170 8 -10585056.61046  22136998.944    22137007.7464
  20445701.259   -23686964.182 9 -18437508.72548  20445700.636    20445706.5694
  22955137.673    -9626981.050 8  -6187912.88746  22955136.939    22955145.7364
  21074993.775   -22939744.490 9 -16971046.07447  21074993.116    21075000.3644
  23659685.761   -12117468.098 8  -9430185.64745  23659685.390    23659695.4204
  22711947.065   -11128659.720 8  -8647974.19546  22711946.307    22711955.5884
  21846786.467   -20613870.059 8 -15482878.82047  21846785.635    21846794.4734
  22195222.843   -16646708.091 8 -10614961.32546  22195222.287    22195229.1744
  20637428.429   -20635252.302 9 -16051710.31747  20637428.136    20637434.9504
 01  4 25  1 48  0.0000000  0 10 17 03 14 23 21 09 31 15 18 29
  23302742.243   -11376574.030 8  -8835772.48545  23302741.687    23302753.5344
  22146756.061   -13571923.819 8 -10545104.95546  22146755.560    22146764.4474
  20439203.276   -23721111.096 9 -18464116.65548  20439202.655    20439208.5684
  22965282.161    -9573671.607 8  -6146373.07946  22965281.426    22965290.1914
  21074345.177   -22943152.988 9 -16973702.02847  21074344.505    21074351.7494
  23667254.872   -12077692.276 8  -9399191.48445  23667254.450    23667264.4774
  22710383.803   -11136874.601 8  -8654375.40146  22710383.069    22710392.3314
  21861124.323   -20538524.359 8 -15424167.95446  21861123.499    21861132.3454
  22206185.853   -16589097.260 8 -10570069.80446  22206185.298    22206192.2214
  20629734.884   -20675681.815 9 -16083213.77347  20629734.592    20629741.3984
 01  4 25  1 48 30.0000000  0 10 17 03 14 23 21 09 31 15 18 29
  23320540.975   -11283041.674 8  -8762890.28445  23320540.345    23320552.2544
  22156594.453   -13520222.744 8 -10504818.44646  22156593.969    22156602.8654
  20432801.826   -23754750.753 9 -18490329.32148  20432801.206    20432807.0994
  22975435.405    -9520315.979 8  -6104797.27646  22975434.637    22975443.3714
  21073721.478   -22946430.444 9 -16976255.87247  21073720.807    21073728.0424
  23674929.059   -12037364.295 8  -9367767.07245  23674928.617    23674938.6294
  22708927.905   -11144525.374 8  -8660337.03346  22708927.177    22708936.3954
  21875528.468   -20462830.242 8 -15365185.59046  21875527.647    21875536.5004
  22217167.975   -16531385.955 8 -10525099.97846  22217167.405    22217174.3564
  20622127.650   -20715657.722 9 -16114363.76647  20622127.368    20622134.1624
 01  4 25  1 49  0.0000000  0 10 17 03 14 23 21 09 31 15 18 29
  23338390.867   -11189240.518 8  -8689798.62745  23338390.248    23338402.2784
  22166514.108   -13468094.458 8 -10464199.04846  22166513.652    22166522.6044
  20426496.867   -23787883.304 9 -18516146.83948  20426496.251    20426502.1284
  22985597.417    -9466914.337 8  -6063185.62746  22985596.652    22985605.3774
  21073122.693   -22949576.939 9 -16978707.67047  21073122.041    21073129.2864
  23682708.020   -11996485.475 8  -9335913.44445  23682707.572    23682717.6184
  22707579.245   -11151612.571 8  -8665859.51446  22707578.510    22707587.7594
  21889998.656   -20386789.181 8 -15305932.88346  21889997.830    21890006.7044
  22228169.064   -16473575.058 8 -10480052.54446  22228168.489    22228175.4394
  20614606.768   -20755180.015 9 -16145160.29747  20614606.495    20614613.2624
 01  4 25  1 49 30.0000000  0 10 17 03 14 23 21 09 31 15 18 29
  23356291.627   -11095171.893 8  -8616498.56045  23356290.975    23356303.0614
  22176514.615   -13415541.464 8 -10423248.71946  22176514.169    22176523.1694
  20420288.420   -23820508.593 9 -18541569.09148  20420287.809    20420293.6694
  22995768.148    -9413466.672 8  -6021538.11546  22995767.402    22995776.1444
  21072548.956   -22952591.910 9 -16981056.97947  21072548.278    21072555.5124
  23690591.684   -11955056.622 8  -9303631.21545  23690591.245    23690601.2074
  22706337.742   -11158136.674 8  -8670943.22046  22706337.020    22706346.2544
  21904534.594   -20310402.311 8 -15246410.72046  21904533.777    21904542.6714
  22239189.065   -16415664.583 8 -10434927.51346  22239188.500    22239195.4394
  20607172.216   -20794248.582 9 -16175603.27747  20607171.942    20607178.6794
 01  4 25  1 50  0.0000000  0 10 17 03 14 23 21 09 31 15 18 29
  23374243.017   -11000836.890 8  -8542990.91345  23374242.279    23374254.5214
  22186595.485   -13362566.140 8 -10381969.29846  22186595.050    22186604.0934
  20414176.625   -23852626.185 9 -18566595.73948  20414176.010    20414181.8364
  23005947.742    -9359972.598 8  -5979854.45246  23005947.024    23005955.7824
  21072000.265   -22955475.377 9 -16983303.81947  21071999.608    21072006.8224
  23698579.829   -11913078.726 8  -9270921.16145  23698579.395    23698589.3474
  22705203.392   -11164097.620 8  -8675588.09646  22705202.695    22705211.8994
  21919136.279   -20233670.140 8 -15186619.49346  21919135.458    21919144.3744
  22250228.049   -16357654.533 8 -10389724.89746  22250227.458    22250234.4064
  20599824.095   -20832862.988 9 -16205692.36647  20599823.819    20599830.5414
 01  4 25  1 50 30.0000000  0 10 17 03 14 23 21 09 31 15 18 29
  23392244.823   -10906236.943 7  -8469276.83045  23392244.096    23392256.3914
  22196756.241   -13309171.046 8 -10340362.79546  22196755.816    22196764.8804
  20408161.328   -23884236.527 9 -18591227.12348  20408160.724    20408166.5304
  23016136.155    -9306432.249 8  -5938134.72346  23016135.431    23016144.2174
  21071476.543   -22958227.413 9 -16985448.25047  21071475.891    21071483.0804
  23706672.180   -11870553.132 8  -9237784.34445  23706671.782    23706681.6994
  22704176.112   -11169495.962 8  -8679794.59046  22704175.446    22704184.6174
  21933803.455   -20156593.856 8 -15126560.12646  21933802.644    21933811.5864
  22261285.870   -16299545.465 8 -10344445.11646  22261285.283    22261292.2114
  20592562.396   -20871023.172 9 -16235427.51647  20592562.116    20592568.8264
 01  4 25  1 51  0.0000000  0 10 17 03 14 23 21 09 31 15 18 29
  23410296.877   -10811373.213 7  -8395357.21345  23410296.179    23410308.5474
  22206996.421   -13255358.468 8 -10298430.97346  22206995.996    22207005.1434
  20402242.683   -23915338.969 9 -18615462.73848  20402242.072    20402247.8854
  23026333.465    -9252845.079 8  -5896378.49946  23026332.791    23026341.5094
  21070977.855   -22960847.999 9 -16987490.24547  21070977.176    21070984.3864
  23714868.624   -11827480.632 8  -9204221.35145  23714868.168    23714878.0474
  22703255.956   -11174331.750 8  -8683562.71746  22703255.243    22703264.3674
  21948535.977   -20079174.117 8 -15066233.13246  21948535.155    21948544.1164
  22272362.500   -16241337.354 8 -10299088.15946  22272361.905    22272368.8064
  20585387.238   -20908728.766 9 -16264808.43747  20585386.963    20585393.6464
 01  4 25  1 51 30.0000000  0 10 17 03 14 23 21 09 31 15 18 29
  23428398.844   -10716247.214 8  -8321233.22345  23428398.157    23428410.7084
  22217315.579   -13201131.052 8 -10256175.91746  22217315.143    22217324.3294
  20396420.632   -23945933.870 9 -18639302.87448  20396420.022    20396425.8294
  23036539.630    -9199211.459 8  -5854586.09246  23036538.956    23036547.6854
  21070504.134   -22963337.321 9 -16989429.96647  21070503.474    21070510.6664
  23723168.839   -11783862.569 8  -9170233.26445  23723168.312    23723178.2594
  22702442.665   -11178605.848 8  -8686893.18246  22702441.906    22702450.9974
  21963333.629   -20001412.302 8 -15005639.58046  21963332.811    21963341.8174
  22283457.909   -16183030.785 8 -10253654.48746  22283457.324    22283464.2614
  20578298.518   -20945979.896 9 -16293835.23647  20578298.231    20578304.9184
 01  4 25  1 52  0.0000000  0 10 17 03 14 23 21 09 31 15 18 29
  23446550.509   -10620860.357 8  -8246905.96945  23446549.821    23446562.3374
  22227713.226   -13146491.213 8 -10213599.48946  22227712.804    22227722.0194
  20390695.157   -23976021.207 9 -18662747.49948  20390694.536    20390700.3444
  23046754.706    -9145530.979 8  -5812757.17446  23046753.984    23046762.7354
  21070055.542   -22965694.657 9 -16991266.83047  21070054.855    21070062.0674
  23731572.606   -11739700.250 8  -9135821.06645  23731572.145    23731582.1134
  22701736.180   -11182318.654 8  -8689786.25846  22701735.406    22701744.4444
  21978196.189   -19923309.233 8 -14944780.11846  21978195.372    21978204.4084
  22294572.001   -16124625.873 8 -10208144.17446  22294571.420    22294578.3594
  20571296.306   -20982776.633 9 -16322507.96047  20571296.008    20571302.6864
 01  4 25  1 52 30.0000000  0 10 17 03 14 23 21 09 31 15 18 29
  23464751.589   -10525213.848 7  -8172376.39645  23464750.911    23464763.4054
  22238188.858   -13091441.541 8 -10170703.71446  22238188.452    22238197.6864
  20385066.302   -24005600.847 9 -18685796.52348  20385065.673    20385071.4864
  23056978.702    -9091803.654 8  -5770891.75446  23056977.976    23056986.7724
  21069632.060   -22967919.951 9 -16993000.81047  21069631.388    21069638.5634
  23740079.783   -11694994.653 8  -9100985.54145  23740079.335    23740089.2034
  22701136.428   -11185470.463 8  -8692242.20746  22701135.681    22701144.6674
  21993123.479   -19844866.065 8 -14883655.64546  21993122.658    21993131.7204
  22305704.710   -16066122.895 8 -10162557.44846  22305704.132    22305711.1334
  20564380.620   -21019118.606 9 -16350826.32547  20564380.326    20564386.9954
 01  4 25  1 53  0.0000000  0 10 17 03 14 23 21 09 31 15 18 29
  23483001.867   -10429308.590 7  -8097645.19245  23483001.246    23483013.7714
  22248742.148   -13035984.076 8 -10127490.18246  22248741.736    22248750.9584
  20379534.084   -24034672.486 9 -18708449.69848  20379533.463    20379539.2594
  23067211.764    -9038028.818 8  -5728989.30446  23067211.012    23067219.8134
  21069233.713   -22970013.126 9 -16994631.83547  21069233.053    21069240.1814
  23748690.169   -11649746.696 7  -9065727.39645  23748689.675    23748699.7714
  22700643.383   -11188061.319 8  -8694261.03846  22700642.662    22700651.6304
  22008115.403   -19766083.183 8 -14822266.45646  22008114.579    22008123.6414
  22316856.171   -16007521.495 8 -10116894.03246  22316855.593    22316862.6244
  20557551.526   -21055005.413 9 -16378790.01347  20557551.243    20557557.9054
 01  4 25  1 53 30.0000000  0 10 17 03 14 23 21 09 31 15 18 29
  23501301.038   -10333146.501 7  -8022713.87545  23501300.358    23501312.8994
  22259372.430   -12980121.926 8 -10083961.30846  22259372.047    22259381.2304
  20374098.432   -24063236.679 9 -18730707.46648  20374097.816    20374103.6244
  23077453.749    -8984206.926 8  -5687050.20146  23077452.982    23077461.7874
  21068860.463   -22971974.432 9 -16996160.11347  21068859.802    21068866.9244
  23757403.404   -11603958.204 8  -9030048.04445  23757402.952    23757412.9684
  22700256.920   -11190092.247 8  -8695843.58146  22700256.169    22700265.1854
  22023171.698   -19686962.205 8 -14760613.81446  22023170.866    22023179.9634
  22328026.165   -15948822.822 8 -10071154.82246  22328025.600    22328032.5954
  20550809.031   -21090437.321 9 -16406399.23747  20550808.741    20550815.3924
 01  4 25  1 54  0.0000000  0 10 17 03 14 23 21 09 31 15 18 29
  23519648.848   -10236728.864 7  -7947583.42845  23519648.206    23519660.7664
  22270079.404   -12923857.098 8 -10040118.66346  22270078.985    22270088.1874
  20368759.402   -24091293.275 9 -18752569.69948  20368758.782    20368764.5924
  23087704.759    -8930337.630 8  -5645074.12946  23087703.965    23087712.8054
  21068512.384   -22973803.384 9 -16997585.25347  21068511.733    21068518.8924
  23766219.310   -11557630.069 8  -8993948.20145  23766218.928    23766228.9164
  22699976.980   -11191563.522 8  -8696990.01646  22699976.214    22699985.2464
  22038292.102   -19607504.194 8 -14698698.54346  22038291.258    22038300.3674
  22339214.720   -15890026.834 8 -10025339.76146  22339214.144    22339221.0974
  20544153.082   -21125414.330 9 -16433653.99247  20544152.789    20544159.4314
 01  4 25  1 54 30.0000000  0 10 17 03 14 23 21 09 31 15 18 29
  23538045.051   -10140056.894 7  -7872254.78745  23538044.310    23538057.0284
  22280862.455   -12867192.214 8  -9995964.28446  22280862.030    22280871.2384
  20363516.962   -24118842.221 9 -18774036.36548  20363516.341    20363522.1374
  23097964.786    -8876420.693 8  -5603060.94746  23097964.002    23097972.8724
  21068189.548   -22975499.810 9 -16998907.13047  21068188.896    21068196.0614
  23775137.663   -11510763.554 7  -8957428.83045  23775137.326    23775147.3214
  22699803.391   -11192475.536 8  -8697700.66446  22699802.693    22699811.7174
  22053476.525   -19527710.032 8 -14636521.33346  22053475.647    22053484.7884
  22350421.770   -15831133.583 8  -9979448.92446  22350421.175    22350428.0674
  20537583.709   -21159936.218 9 -16460554.11047  20537583.427    20537590.0824
 01  4 25  1 55  0.0000000  0 10 17 03 14 23 21 09 31 15 18 29
  23556489.392   -10043132.121 7  -7796729.19345  23556488.752    23556501.4144
  22291721.082   -12810129.995 8  -9951500.28946  22291720.623    22291729.8814
  20358371.072   -24145883.819 9 -18795107.69448  20358370.463    20358376.2294
  23108233.917    -8822456.093 8  -5561010.61646  23108233.113    23108242.0044
  21067891.923   -22977063.887 9 -17000125.87647  21067891.252    21067898.4224
  23784158.184   -11463360.260 8  -8920491.19545  23784157.920    23784167.8714
  22699736.178   -11192828.754 8  -8697975.90846  22699735.480    22699744.4754
  22068724.668   -19447580.802 8 -14574083.03646  22068723.820    22068732.9474
  22361647.222   -15772143.401 8  -9933482.54846  22361646.654    22361653.5364
  20531100.938   -21194003.133 9 -16487099.70247  20531100.655    20531107.3004
 01  4 25  1 55 30.0000000  0 11 17 03 14 23 21 09 31 25 15 18 29
  23574979.822    -9945965.304 7  -7721014.97145  23574979.171    23574991.8234
  22302653.077   -12752682.330 8  -9906735.95246  22302652.625    22302661.9204
  20353319.954   -24172427.433 9 -18815790.98448  20353319.330    20353325.0764
  23118510.374    -8768452.966 8  -5518930.27546  23118509.609    23118518.5104
  21067617.772   -22978504.520 9 -17001248.42647  21067617.102    21067624.2514
  23793278.860   -11415430.687 8  -8883143.48445  23793278.546    23793288.5704
  22699773.370   -11192633.223 8  -8697823.55146  22699772.645    22699781.6804
  24605487.335    -3382678.433 7  -2324097.07045  24605487.146    24605506.5104
  22084034.556   -19367127.048 8 -14511391.85646  22084033.731    22084042.8384
  22372889.299   -15713065.926 8  -9887448.16246  22372888.712    22372895.6164
  20524702.965   -21227624.435 9 -16513298.06747  20524702.684    20524709.3184
 01  4 25  1 56  0.0000000  0 11 17 03 14 23 21 09 31 25 15 18 29
  23593518.597    -9848544.050 7  -7645102.49545  23593517.947    23593530.6764
  22313660.480   -12694838.212 8  -9861662.68646  22313660.054    22313669.3494
  20348366.170   -24198459.709 9 -18836075.82848  20348365.550    20348371.2774
  23128796.818    -8714397.427 8  -5476809.09346  23128796.038    23128804.9744
  21067369.771   -22979807.776 9 -17002263.92547  21067369.094    21067376.2264
  23802502.051   -11366962.338 8  -8845375.92245  23802501.710    23802511.7924
  22699917.500   -11191875.796 8  -8697233.34846  22699916.784    22699925.7954
  24586844.111    -3480646.796 7  -2400435.39945  24586843.993    24586863.0844
  22099408.620   -19286336.094 8 -14448437.92746  22099407.808    22099416.9194
  22384150.555   -15653887.607 8  -9841335.18946  22384149.986    22384156.9024
  20518392.447   -21260786.330 9 -16539138.44847  20518392.153    20518398.7684
 01  4 25  1 56 30.0000000  0 11 17 03 14 23 21 09 31 25 15 18 29
  23612105.203    -9750871.615 7  -7568994.30145  23612104.490    23612117.2234
  22324742.511   -12636602.184 8  -9816284.03946  22324742.072    22324751.3914
  20343509.305   -24223982.545 9 -18855963.70948  20343508.702    20343514.3964
  23139092.881    -8660291.263 8  -5434648.47446  23139092.140    23139101.0304
  21067147.474   -22980975.872 9 -17003174.10947  21067146.798    21067153.9224
  23811827.118   -11317958.843 7  -8807191.39045  23811826.885    23811836.8174
  22700168.071   -11190559.131 8  -8696207.37546  22700167.262    22700176.3014
  24568188.594    -3578679.401 8  -2476823.79445  24568188.429    24568207.3444
  22114846.241   -19205210.913 8 -14385223.56046  22114845.411    22114854.5584
  22395430.571   -15594610.775 8  -9795145.45446  22395429.996    22395436.9394
  20512168.955   -21293490.846 9 -16564622.43347  20512168.651    20512175.2484
 01  4 25  1 57  0.0000000  0 11 17 03 14 23 21 09 31 25 15 18 29
  23630739.107    -9652950.452 7  -7492692.28245  23630738.380    23630751.1264
  22335898.440   -12577977.754 8  -9770602.73446  22335897.999    22335907.3254
  20338749.156   -24248997.112 9 -18875455.53248  20338748.547    20338754.2254
  23149398.454    -8606135.201 8  -5392448.96946  23149397.715    23149406.5634
  21066950.869   -22982008.913 9 -17003979.05847  21066950.184    21066957.3224
  23821253.620   -11268422.268 8  -8768591.45545  23821253.280    23821263.2974
  22700524.741   -11188684.856 8  -8694746.91246  22700523.984    22700532.9764
  24549521.207    -3676774.496 7  -2553260.89045  24549521.101    24549539.7024
  22130347.123   -19123753.611 8 -14321750.40546  22130346.310    22130355.4304
  22406729.243   -15535236.034 8  -9748879.43746  22406728.664    22406735.5994
  20506032.282   -21325738.878 9 -16589750.71647  20506031.980    20506038.5554
 01  4 25  1 57 30.0000000  0 11 17 03 14 23 21 09 31 25 15 18 29
  23649419.955    -9554782.870 7  -7416198.26145  23649419.157    23649432.0204
  22347127.637   -12518968.134 8  -9724621.29246  22347127.195    22347136.5144
  20334085.618   -24273504.051 9 -18894551.80648  20334084.996    20334090.6474
  23159713.386    -8551929.932 8  -5350211.11346  23159712.645    23159721.5054
  21066779.845   -22982907.555 9 -17004679.28447  21066779.192    21066786.3234
  23830781.191   -11218354.900 8  -8729577.91945  23830780.854    23830790.8074
  22700987.259   -11186254.415 8  -8692853.07846  22700986.474    22700995.4974
  24530842.230    -3774930.374 7  -2629745.32845  24530842.113    24530860.8334
  22145910.849   -19041965.896 8 -14258019.78146  22145910.035    22145919.1584
  22418046.322   -15475764.496 8  -9702538.00346  22418045.730    22418052.6974
  20499982.353   -21357531.249 9 -16614523.94347  20499982.048    20499988.6164
 01  4 25  1 58  0.0000000  0 11 17 03 14 23 21 09 31 25 15 18 29
  23668147.307    -9456370.564 7  -7339513.54445  23668146.542    23668159.2754
  22358429.566   -12459576.475 8  -9678342.14946  22358429.101    22358438.4374
  20329518.521   -24297504.145 9 -18913253.13248  20329517.898    20329523.5324
  23170037.693    -8497675.486 8  -5307934.94746  23170036.947    23170045.7944
  21066634.319   -22983672.216 9 -17005275.10247  21066633.663    21066640.7894
  23840409.425   -11167758.588 8  -8690152.22945  23840409.098    23840418.9184
  22701555.448   -11183268.662 8  -8690526.52146  22701554.660    22701563.6934
  24512152.090    -3873145.130 7  -2706275.65045  24512151.842    24512170.6934
  22161537.127   -18959849.562 8 -14194033.09046  22161536.297    22161545.4474
  22429381.720   -15416196.853 8  -9656121.67346  22429381.123    22429388.0884
  20494019.022   -21388868.560 9 -16638942.56947  20494018.716    20494025.2504
 01  4 25  1 58 30.0000000  0 11 17 03 14 23 21 09 31 25 15 18 29
  23686921.022    -9357714.519 7  -7262638.89545  23686920.296    23686933.1164
  22369803.775   -12399804.981 8  -9631767.03346  22369803.297    22369812.6264
  20325047.889   -24320997.260 9 -18931559.40848  20325047.273    20325052.8944
  23180371.439    -8443371.307 8  -5265620.00946  23180370.733    23180379.5104
  21066514.377   -22984302.440 9 -17005766.16547  21066513.706    21066520.8524
  23850138.046   -11116634.410 8  -8650315.23845  23850137.723    23850147.4754
  22702229.213   -11179728.013 8  -8687767.58446  22702228.434    22702237.4604
  24493451.354    -3971415.496 7  -2782849.30245  24493451.047    24493469.4794
  22177225.761   -18877405.317 8 -14129790.88946  22177224.926    22177234.1154
  22440735.401   -15356532.946 8  -9609630.34046  22440734.832    22440741.7354
  20488142.389   -21419750.457 9 -16663006.32947  20488142.074    20488148.5774
 01  4 25  1 59  0.0000000  0 11 17 03 14 23 21 09 31 25 15 18 29
  23705740.669    -9258817.293 7  -7185576.32145  23705739.917    23705753.0044
  22381249.591   -12339657.107 8  -9584898.63846  22381249.114    22381258.4844
  20320673.464   -24343984.641 9 -18949471.61148  20320672.851    20320678.4654
  23190714.571    -8389018.101 8  -5223266.88846  23190713.843    23190722.5864
  21066419.910   -22984798.837 9 -17006152.94447  21066419.221    21066426.3674
  23859966.734   -11064984.723 8  -8610068.73245  23859966.419    23859976.0294
  22703008.219   -11175634.258 8  -8684577.66046  22703007.465    22703016.4634
  24474740.277    -4069740.289 8  -2859465.35945  24474739.872    24474758.3944
  22192976.506   -18794634.948 8 -14065294.56646  22192975.643    22192984.8654
  22452107.232   -15296773.784 8  -9563064.78246  22452106.640    22452113.5544
  20482352.217   -21450177.859 9 -16686715.94047  20482351.913    20482358.3734
 01  4 25  1 59 30.0000000  0 11 17 03 14 23 21 09 31 25 15 18 29
  23724606.097    -9159679.737 7  -7108326.45445  23724605.347    23724618.6464
  22392766.547   -12279135.326 8  -9537738.89746  22392766.051    22392775.4924
  20316395.363   -24366466.087 9 -18966989.57748  20316394.753    20316400.3484
  23201067.182    -8334615.100 8  -5180874.96346  23201066.416    23201075.1424
  21066350.956   -22985160.939 9 -17006435.08047  21066350.279    21066357.4394
  23869895.153   -11012810.523 8  -8569413.52345  23869894.796    23869904.4154
  22703892.478   -11170987.540 8  -8680956.86046  22703891.733    22703900.6974
  24456019.343    -4168116.630 7  -2936121.57345  24456018.831    24456037.3784
  22208789.116   -18711539.485 8 -14000544.92946  22208788.255    22208797.4624
  22463497.178   -15236919.282 8  -9516424.93346  22463496.565    22463503.4944
  20476648.543   -21480150.615 9 -16710071.28147  20476648.242    20476654.6764
 01  4 25  2  0  0.0000000  0 11 17 03 14 23 21 09 31 25 15 18 29
  23743516.950    -9060303.519 7  -7030890.64645  23743516.275    23743529.5604
  22404354.128   -12218242.435 8  -9490289.96946  22404353.659    22404363.1064
  20312213.460   -24388441.976 9 -18984113.60448  20312212.848    20312218.4454
  23211429.191    -8280162.407 8  -5138444.32346  23211428.442    23211437.1944
  21066307.599   -22985388.732 9 -17006612.56247  21066306.919    21066314.0824
  23879923.071   -10960113.564 8  -8528350.96345  23879922.683    23879932.3884
  22704881.763   -11165788.806 8  -8676905.90946  22704881.048    22704889.9734
  24437289.070    -4266542.134 7  -3012816.08445  24437288.529    24437307.0474
  22224663.292   -18628120.408 8 -13935543.12546  22224662.426    22224671.6454
  22474905.216   -15176969.588 8  -9469710.90846  22474904.627    22474911.5374
  20471031.321   -21509669.001 9 -16733072.56247  20471031.030    20471037.4594
 01  4 25  2  0 30.0000000  0 11 17 03 14 23 21 09 31 25 15 18 29
  23762472.846    -8960690.365 7  -6953270.19145  23762472.232    23762485.4614
  22416011.822   -12156981.148 8  -9442553.98446  22416011.358    22416020.8234
  20308127.621   -24409912.995 9 -19000844.22548  20308127.006    20308132.5784
  23221800.705    -8225659.800 8  -5095974.77946  23221799.952    23221808.6904
  21066289.905   -22985481.585 9 -17006684.89647  21066289.201    21066296.3854
  23890050.081   -10906895.532 8  -8486882.36445  23890049.743    23890059.5254
  22705975.913   -11160039.250 8  -8672425.75646  22705975.210    22705984.0794
  24418549.900    -4365014.355 8  -3089547.01545  24418549.462    24418567.6184
  22240598.802   -18544379.054 8 -13870290.20646  22240597.924    22240607.1504
  22486331.336   -15116925.012 8  -9422922.96046  22486330.737    22486337.6514
  20465500.497   -21538733.364 9 -16755720.06447  20465500.199    20465506.6324
 01  4 25  2  1  0.0000000  0 11 17 03 14 23 21 09 31 25 15 18 29
  23781473.551    -8860841.473 7  -6875466.04945  23781472.919    23781486.2274
  22427739.167   -12095353.852 8  -9394532.80346  22427738.709    22427748.1304
  20304137.945   -24430878.775 9 -19017181.16148  20304137.328    20304142.8764
  23232181.803    -8171106.838 8  -5053466.00346  23232181.066    23232189.7564
  21066298.013   -22985439.015 9 -17006651.70647  21066297.326    21066304.4754
  23900276.112   -10853157.398 8  -8445008.50045  23900275.734    23900285.5344
  22707174.743   -11153739.294 8  -8667516.72446  22707174.031    22707182.9224
  24399802.403    -4463530.379 8  -3166312.07545  24399801.830    24399819.9954
  22256595.538   -18460316.083 8 -13804786.67646  22256594.680    22256603.8964
  22497775.527   -15056785.402 8  -9376060.95746  22497774.945    22497781.9024
  20460056.131   -21567343.527 9 -16778013.64647  20460055.828    20460062.2624
 01  4 25  2  1 30.0000000  0 11 17 03 14 23 21 09 31 25 15 18 29
  23800518.795    -8760758.594 7  -6797479.57745  23800518.103    23800531.5454
  22439535.614   -12033363.467 8  -9346228.70246  22439535.173    22439544.5854
  20300244.278   -24451340.074 9 -19033124.98848  20300243.654    20300249.2054
  23242572.454    -8116503.648 8  -5010918.08346  23242571.722    23242580.4034
  21066331.702   -22985261.963 9 -17006513.71647  21066331.003    21066338.1344
  23910600.721   -10798901.224 8  -8402730.96145  23910600.326    23910610.1464
  22708478.134   -11146890.122 8  -8662179.71846  22708477.378    22708486.2964
  24381046.999    -4562088.095 7  -3243109.61045  24381046.424    24381064.5284
  22272653.113   -18375933.066 8 -13739033.74946  22272652.263    22272661.5104
  22509237.722   -14996551.284 8  -9329125.31046  22509237.129    22509244.0824
  20454698.090   -21595500.027 9 -16799953.72547  20454697.777    20454704.2124
 01  4 25  2  2  0.0000000  0 11 17 03 14 23 21 09 31 25 15 18 29
  23819608.359    -8660443.025 7  -6719311.78145  23819607.799    23819621.2034
  22451400.613   -11971012.888 8  -9297643.91746  22451400.159    22451409.5844
  20296446.492   -24471297.333 9 -19048676.06348  20296445.873    20296451.4164
  23252972.782    -8061849.780 8  -4968330.68046  23252972.062    23252980.7494
  21066391.124   -22984949.600 9 -17006270.29747  21066390.441    21066397.5284
  23921023.654   -10744128.547 8  -8360050.95345  23921023.260    23921033.0534
  22709885.884   -11139492.365 8  -8656415.25546  22709885.164    22709894.0934
  24362284.156    -4660684.798 8  -3319937.54745  24362283.673    24362301.5234
  22288771.438   -18291231.076 8 -13673032.27946  22288770.575    22288779.8594
  22520717.854   -14936222.925 8  -9282116.23246  22520717.282    22520724.2234
  20449426.408   -21623202.769 9 -16821540.22947  20449426.077    20449432.5284
 01  4 25  2  2 30.0000000  0 11 17 03 14 23 21 09 31 25 15 18 29
  23838741.858    -8559896.456 7  -6640963.98545  23838741.302    23838754.8274
  22463333.669   -11908304.616 8  -9248780.43246  22463333.228    22463342.6694
  20292744.584   -24490750.968 9 -19063834.70148  20292743.956    20292749.4944
  23263382.792    -8007145.031 8  -4925703.62646  23263382.006    23263390.7484
  21066476.353   -22984501.613 9 -17005921.20047  21066475.662    21066482.7574
  23931544.536   -10688841.079 8  -8316969.82345  23931544.098    23931553.8934
  22711397.815   -11131547.030 8  -8650224.09546  22711397.076    22711406.0634
  24343514.378    -4759318.081 8  -3396793.98445  24343514.017    24343531.6454
  22304950.170   -18206211.376 8 -13606783.24346  22304949.315    22304958.6394
  22532215.943   -14875800.175 8  -9235033.60046  22532215.372    22532222.3094
  20444240.941   -21650452.324 9 -16842773.59747  20444240.617    20444247.0724
 01  4 25  2  3  0.0000000  0 11 17 03 14 23 21 09 31 25 15 18 29
  23857918.960    -8459120.680 7  -6562437.57745  23857918.397    23857931.9734
  22475334.271   -11845241.433 8  -9199640.38946  22475333.830    22475343.2724
  20289138.414   -24509701.324 9 -19078601.17748  20289137.792    20289143.3154
  23273802.504    -7952389.334 8  -4883036.85346  23273801.702    23273810.4344
  21066587.451   -22983917.606 9 -17005466.12047  21066586.756    21066593.8564
  23942163.026   -10633040.591 8  -8273488.94345  23942162.596    23942172.4294
  22713013.699   -11123055.480 8  -8643607.31946  22713012.948    22713021.9654
  24324738.130    -4857985.512 8  -3473677.03945  24324737.766    24324755.4084
  22321189.065   -18120875.715 8 -13540288.01146  22321188.203    22321197.6104
  22543731.968   -14815283.423 8  -9187877.72046  22543731.370    22543738.3674
  20439141.666   -21677248.959 9 -16863654.04347  20439141.347    20439147.8034
 01  4 25  2  3 30.0000000  0 11 17 03 14 23 21 09 31 25 15 18 29
  23877139.540    -8358116.673 7  -6483733.33245  23877138.940    23877152.4884
  22487401.921   -11781826.000 8  -9150225.87146  22487401.456    22487410.8904
  20285627.966   -24528148.616 9 -19092975.65448  20285627.332    20285632.8544
  23284231.977    -7897582.083 8  -4840329.92346  23284231.172    23284239.9284
  21066724.524   -22983197.284 9 -17004904.82347  21066723.821    21066730.9364
  23952878.871   -10576728.412 8  -8229609.32845  23952878.497    23952888.3734
  22714733.429   -11114018.161 8  -8636565.28246  22714732.678    22714741.7454
  24305955.930    -4956684.283 7  -3550584.54345  24305955.699    24305973.1864
  22337487.918   -18035224.755 8 -13473547.08746  22337487.049    22337496.5214
  22555265.850   -14754672.556 8  -9140648.51046  22555265.265    22555272.2544
  20434128.574   -21703592.679 9 -16884181.57647  20434128.257    20434134.6944
 01  4 25  2  4  0.0000000  0 11 17 03 14 23 21 09 31 25 15 18 29
  23896403.186    -8256886.202 7  -6404852.62545  23896402.575    23896416.2264
  22499536.010   -11718061.471 8  -9100539.32546  22499535.525    22499545.0034
  20282213.113   -24546093.586 9 -19106958.70948  20282212.497    20282218.0154
  23294671.238    -7842723.311 8  -4797582.84946  23294670.495    23294679.2214
  21066887.562   -22982340.506 9 -17004237.19247  21066886.858    21066893.9684
  23963691.722   -10519906.601 8  -8185332.60445  23963691.331    23963701.1934
  22716556.810   -11104436.202 8  -8629098.84046  22716556.036    22716565.2044
  24287168.081    -5055412.442 7  -3627514.92845  24287167.824    24287185.1644
  22353846.533   -17949259.900 8 -13406561.57846  22353845.625    22353855.1644
  22566817.632   -14693967.744 8  -9093346.08646  22566817.038    22566824.0004
  20429201.599   -21729483.945 9 -16904356.54247  20429201.278    20429207.7094
 01  4 25  2  4 30.0000000  0 11 17 03 14 23 21 09 31 25 15 18 29
  23915709.673    -8155430.657 7  -6325796.52045  23915708.939    23915722.9074
  22511736.058   -11653949.994 8  -9050582.43646  22511735.569    22511745.1124
  20278893.811   -24563536.339 9 -19120550.42648  20278893.184    20278898.7074
  23305120.362    -7787812.649 8  -4754795.33346  23305119.632    23305128.4384
  21067076.614   -22981347.082 9 -17003463.08747  21067075.907    21067082.9894
  23974601.362   -10462576.171 8  -8140659.57945  23974600.949    23974610.9024
  22718483.673   -11094310.466 8  -8621208.66146  22718482.931    22718492.0944
  24268375.367    -5154166.397 8  -3704465.44545  24268375.115    24268392.2284
  22370264.691   -17862982.047 8 -13339332.16246  22370263.809    22370273.3764
  22578387.312   -14633168.818 8  -9045970.32246  22578386.738    22578393.6624
  20424360.707   -21754922.844 9 -16924179.01447  20424360.380    20424366.7934
 01  4 25  2  5  0.0000000  0 11 17 03 14 23 21 09 31 25 15 18 29
  23935058.661    -8053751.913 7  -6246566.51045  23935057.804    23935071.9414
  22524001.583   -11589494.603 8  -9000357.56946  22524001.098    22524010.6374
  20275669.971   -24580477.576 9 -19133751.35648  20275669.336    20275674.8644
  23315579.415    -7732849.950 8  -4711967.26945  23315578.671    23315587.4854
  21067291.771   -22980216.549 9 -17002582.14647  21067291.058    21067298.1464
  23985607.382   -10404739.201 8  -8095591.81745  23985606.959    23985616.9784
  22720513.733   -11083642.294 8  -8612895.82246  22720512.996    22720522.1654
  24249578.074    -5252944.176 8  -3781434.52545  24249577.718    24249594.7504
  22386742.140   -17776392.720 8 -13271860.03446  22386741.262    22386750.8834
  22589974.790   -14572276.292 8  -8998521.62446  22589974.196    22589981.1064
  20419605.802   -21779909.838 9 -16943649.35647  20419605.481    20419611.8884
 01  4 25  2  5 30.0000000  0 11 17 03 14 23 21 09 31 25 15 18 29
  23954449.851    -7951851.234 7  -6167163.55445  23954449.030    23954463.1324
  22536332.025   -11524698.323 8  -8949867.06446  22536331.522    22536341.0804
  20272541.481   -24596917.719 9 -19146561.81948  20272540.852    20272546.3824
  23326048.425    -7677834.927 8  -4669098.43945  23326047.723    23326056.5204
  21067533.075   -22978948.307 9 -17001593.89147  21067532.381    21067539.4784
  23996709.450   -10346397.547 8  -8050130.82445  23996709.024    23996719.0334
  22722646.883   -11072432.629 8  -8604161.03646  22722646.159    22722655.3114
  24230776.736    -5351743.402 8  -3858420.33045  24230776.374    24230793.2254
  22403278.594   -17689493.397 8 -13204146.35646  22403277.713    22403287.3674
  22601580.003   -14511290.444 8  -8951000.20346  22601579.382    22601586.3144
  20414936.822   -21804445.186 9 -16962767.76647  20414936.514    20414942.9034
 01  4 25  2  6  0.0000000  0 11 17 03 14 23 21 09 31 25 15 18 29
  23973883.050    -7849730.094 7  -6087588.82045  23973882.277    23973896.3014
  22548726.861   -11459563.428 8  -8899112.71646  22548726.371    22548735.9334
  20269508.328   -24612856.966 9 -19158981.97548  20269507.702    20269513.2144
  23336527.515    -7622766.956 8  -4626188.36445  23336526.818    23336535.6014
  21067800.596   -22977542.210 9 -17000498.22947  21067799.916    21067807.0274
  24007907.265   -10287552.547 8  -8004277.59045  24007906.891    24007916.8604
  22724882.928   -11060682.134 8  -8595004.82946  22724882.202    22724891.3424
  24211971.857    -5450561.310 8  -3935420.70945  24211971.472    24211988.3024
  22419873.824   -17602285.032 8 -13136191.86646  22419872.945    22419882.5934
  22613203.068   -14450210.794 8  -8903405.68146  22613202.476    22613209.3604
  20410353.797   -21828528.998 9 -16981534.32647  20410353.476    20410359.8544
 01  4 25  2  6 30.0000000  0 11 17 03 14 23 21 09 31 25 15 18 29
  23993357.686    -7747390.980 7  -6007844.21645  23993356.875    23993370.8824
  22561185.391   -11394093.935 8  -8848097.63946  22561184.897    22561194.4884
  20266570.159   -24628296.918 9 -19171013.06948  20266569.516    20266575.0384
  23347016.528    -7567646.874 8  -4583237.67245  23347015.837    23347024.6054
  21068094.244   -22975998.983 9 -16999295.71647  21068093.552    21068100.6914
  24019200.299   -10228207.264 8  -7958034.53545  24019199.924    24019209.8464
  22727221.531   -11048392.812 8  -8585428.76046  22727220.793    22727229.9564
  24193163.752    -5549395.942 8  -4012434.12945  24193163.492    24193179.9924
  22436527.477   -17514769.933 8 -13067998.35746  22436526.606    22436536.1994
  22624843.785   -14389038.493 8  -8855738.96046  22624843.197    22624850.0664
  20405856.468   -21852162.635 9 -16999950.10447  20405856.140    20405862.5004
 01  4 25  2  7  0.0000000  0 11 17 03 14 23 21 09 31 25 15 18 29
  24012873.672    -7644834.452 7  -5927930.22145  24012872.964    24012887.0534
  22573707.296   -11328291.144 8  -8796822.84346  22573706.788    22573716.4374
  20263727.139   -24643236.956 9 -19182654.61848  20263726.504    20263732.0164
  23357515.781    -7512473.134 8  -4540245.17845  23357515.089    23357523.8064
  21068414.166   -22974317.762 9 -16997985.67647  21068413.471    21068420.6234
  24030588.450   -10168362.297 8  -7911402.10545  24030588.050    24030598.0254
  22729662.657   -11035564.636 8  -8575432.79746  22729661.883    22729671.0984
  24174353.100    -5648243.924 8  -4089457.93845  24174352.925    24174369.1784
  22453239.398   -17426948.455 8 -12999566.10146  22453238.516    22453248.1854
  22636502.353   -14327772.533 8  -8807999.25646  22636501.766    22636508.6424
  20401444.884   -21875345.441 9 -17018014.58447  20401444.564    20401450.9314
 01  4 25  2  7 30.0000000  0 11 17 03 14 23 21 09 31 25 15 18 29
  24032430.709    -7542062.495 7  -5847848.32845  24032429.765    24032443.9394
  22586291.975   -11262158.487 8  -8745291.01646  22586291.485    22586301.1934
  20260979.029   -24657678.317 9 -19193907.58748  20260978.387    20260983.8864
  23368025.175    -7457246.083 8  -4497211.14345  23368024.433    23368033.2094
  21068760.465   -22972497.953 9 -16996567.64647  21068759.771    21068766.9224
  24042071.312   -10108019.600 7  -7864381.84045  24042070.820    24042080.8984
  22732206.000   -11022199.441 8  -8565018.37646  22732205.201    22732214.4864
  24155540.477    -5747102.751 8  -4166490.22345  24155540.199    24155556.2714
  22470009.325   -17338822.210 8 -12930896.37346  22470008.466    22470018.1484
  22648178.603   -14266413.489 8  -8760187.03446  22648178.023    22648184.9284
  20397118.963   -21898078.139 9 -17035728.32847  20397118.639    20397124.9844
 01  4 25  2  8  0.0000000  0 11 17 03 14 23 21 09 31 25 15 18 29
  24052028.405    -7439076.671 7  -5767599.81145  24052027.507    24052041.5094
  22598938.869   -11195698.736 8  -8693504.30946  22598938.380    22598948.1714
  20258325.748   -24671621.233 9 -19204772.15748  20258325.113    20258330.5894
  23378544.777    -7401965.194 8  -4454135.16245  23378543.981    23378552.8514
  21069133.205   -22970539.251 9 -16995041.39247  21069132.503    21069139.6514
  24053648.434   -10047181.257 8  -7816975.35545  24053647.985    24053658.1614
  22734851.330   -11008298.170 8  -8554186.23946  22734850.510    22734859.8294
  24136726.239    -5845970.044 8  -4243529.12045  24136725.883    24136741.8594
  22486836.990   -17250392.512 8 -12861990.19746  22486836.137    22486845.7794
  22659872.579   -14204961.342 8  -8712302.25046  22659871.997    22659878.8914
  20392878.653   -21920361.012 9 -17053091.56247  20392878.324    20392884.6474
 01  4 25  2  8 30.0000000  0 11 17 03 14 23 21 09 31 25 15 18 29
  24071666.479    -7335878.427 7  -5687185.76945  24071665.582    24071679.6924
  22611647.496   -11128914.626 8  -8641464.85546  22611647.022    22611656.8894
  20255767.253   -24685066.193 9 -19215248.71048  20255766.625    20255772.0584
  23389074.699    -7346630.075 8  -4411016.92946  23389073.941    23389082.8274
  21069532.440   -22968441.345 9 -16993406.66147  21069531.747    21069538.8714
  24065319.616    -9985848.993 8  -7769183.97445  24065319.137    24065329.1244
  22737598.454   -10993861.953 8  -8542937.25346  22737597.629    22737607.0194
  24117910.898    -5944843.064 8  -4320572.48745  24117910.569    24117926.5084
  22503722.163   -17161660.567 8 -12792848.49646  22503721.328    22503730.9964
  22671584.228   -14143416.200 8  -8664345.02046  22671583.659    22671590.5724
  20388723.837   -21942194.470 9 -17070104.60148  20388723.521    20388729.8284
 01  4 25  2  9  0.0000000  0 11 17 03 14 23 21 09 31 25 15 18 29
  24091344.720    -7232469.384 7  -5606607.44245  24091343.870    24091358.0404
  22624417.329   -11061809.045 8  -8589174.90046  22624416.862    22624426.7574
  20253303.391   -24698013.882 9 -19225337.78248  20253302.750    20253308.1544
  23399614.990    -7291240.400 8  -4367856.18046  23399614.224    23399623.1634
  21069958.213   -22966203.996 9 -16991663.27347  21069957.502    21069964.6364
  24077084.502    -9924024.469 8  -7721009.03845  24077083.971    24077093.8934
  22740447.113   -10978892.020 8  -8531272.39646  22740446.336    22740455.7224
  24099094.979    -6043719.019 8  -4397618.13945  24099094.615    24099110.3334
  22520664.640   -17072627.732 8 -12723472.34146  22520663.769    22520673.4614
  22683313.566   -14081778.056 8  -8616315.30346  22683312.959    22683319.9394
  20384654.496   -21963578.968 9 -17086767.80248  20384654.168    20384660.4714
 01  4 25  2  9 30.0000000  0 11 17 03 14 23 21 09 31 25 15 18 29
  24111062.722    -7128851.445 7  -5525866.36445  24111061.929    24111075.9904
  22637247.797   -10994384.841 8  -8536636.66346  22637247.320    22637257.2344
  20250933.934   -24710465.315 9 -19235040.15548  20250933.301    20250938.6734
  23410165.690    -7235796.259 8  -4324652.98046  23410164.900    23410173.9114
  21070410.596   -22963826.671 9 -16989810.81247  21070409.899    21070416.9934
  24088942.525    -9861709.871 7  -7672452.22345  24088942.102    24088951.9314
  22743397.057   -10963389.910 8  -8519192.84046  22743396.265    22743405.6154
  24080278.938    -6142595.765 8  -4474664.43445  24080278.611    24080294.1384
  22537664.015   -16983295.819 8 -12653863.13746  22537663.100    22537672.8294
  22695060.568   -14020047.139 8  -8568213.30746  22695059.947    22695066.9584
  20380670.431   -21984515.098 9 -17103081.62248  20380670.106    20380676.4114
 01  4 25  2 10  0.0000000  0 11 17 03 14 23 21 09 31 25 15 18 29
  24130820.133    -7025026.290 7  -5444963.80845  24130819.420    24130833.3274
  22650138.402   -10926644.779 8  -8483852.30746  22650137.886    22650147.9084
  20248658.808   -24722420.967 9 -19244356.21748  20248658.176    20248663.5424
  23420726.825    -7180297.298 8  -4281407.08646  23420726.078    23420735.0954
  21070889.671   -22961309.198 9 -16987849.14647  21070888.957    21070896.0634
  24100893.555    -9798906.907 7  -7623514.85445  24100893.149    24100903.0554
  22746448.110   -10947356.808 8  -8506699.53146  22746447.342    22746456.6294
  24061463.136    -6241471.163 8  -4551709.67245  24061462.828    24061478.1364
  22554720.063   -16893665.858 8 -12584021.68446  22554719.183    22554728.9144
  22706825.218   -13958223.457 8  -8520039.00846  22706824.592    22706831.6234
  20376771.578   -22005003.546 9 -17119046.60448  20376771.235    20376777.5334
 01  4 25  2 10 30.0000000  0 11 17 03 14 23 21 09 31 25 15 18 29
  24150616.784    -6920995.212 7  -5363900.79645  24150616.046    24150629.7514
  22663088.525   -10858591.810 8  -8430824.11846  22663088.011    22663098.0694
  20246477.935   -24733881.419 9 -19253286.40348  20246477.306    20246482.6564
  23431298.475    -7124743.041 8  -4238118.07946  23431297.720    23431306.7474
  21071395.441   -22958651.348 9 -16985778.09147  21071394.747    21071401.8254
  24112937.073    -9735617.575 8  -7574198.49745  24112936.601    24112946.6654
  22749599.959   -10930793.847 8  -8493793.34546  22749599.210    22749608.4474
  24042648.230    -6340341.854 8  -4628751.25445  24042647.882    24042663.1344
  22571832.544   -16803739.343 8 -12513949.15046  22571831.686    22571841.4004
  22718607.508   -13896307.158 8  -8471792.54446  22718606.906    22718613.8644
  20372957.831   -22025044.558 9 -17134662.93548  20372957.505    20372963.7924
 01  4 25  2 11  0.0000000  0 11 17 03 14 23 21 09 31 25 15 18 29
  24170452.224    -6816760.054 7  -5282678.74745  24170451.524    24170465.1914
  22676097.607   -10790229.195 8  -8377554.65146  22676097.055    22676107.1214
  20244391.137   -24744847.496 9 -19261831.36648  20244390.500    20244395.8654
  23441880.662    -7069133.365 8  -4194785.89345  23441879.895    23441888.9184
  21071927.982   -22955852.714 9 -16983597.33847  21071927.288    21071934.3644
  24125072.775    -9671844.014 7  -7524504.83945  24125072.240    24125082.4294
  22752852.370   -10913702.639 8  -8480475.54246  22752851.569    22752860.8004
  24023834.717    -6439205.365 8  -4705787.25845  24023834.377    24023849.4134
  22589001.256   -16713517.789 8 -12443646.71646  22589000.360    22589010.0944
  22730407.347   -13834298.515 8  -8423474.12546  22730406.727    22730413.6374
  20369229.160   -22044638.745 9 -17149931.09348  20369228.826    20369235.1024
 01  4 25  2 11 30.0000000  0 11 17 03 14 23 21 09 31 25 15 18 29
  24190326.149    -6712322.652 7  -5201299.11645  24190325.436    24190339.1894
  22689165.136   -10721559.481 8  -8324045.88546  22689164.618    22689174.6344
  20242398.262   -24755319.853 9 -19269991.61348  20242397.630    20242402.9954
  23452473.440    -7013467.799 8  -4151410.16145  23452472.701    23452481.7674
  21072487.474   -22952912.611 9 -16981306.34347  21072486.771    21072493.8414
  24137300.237    -9607588.056 7  -7474435.27045  24137299.895    24137309.8844
  22756205.046   -10896084.199 8  -8466746.90546  22756204.277    22756213.4624
  24005023.025    -6538059.270 8  -4782815.77945  24005022.660    24005037.7204
  22606225.756   -16623002.740 8 -12373115.59846  22606224.916    22606234.6114
  22742224.881   -13772197.202 8  -8375083.49946  22742224.226    22742231.1584
  20365585.424   -22063786.589 9 -17164851.45548  20365585.099    20365591.3534
 01  4 25  2 12  0.0000000  0 11 17 03 14 23 21 09 31 25 15 18 29
  24210238.245    -6607684.401 7  -5119762.97745  24210237.441    24210251.3384
  22702290.569   -10652585.370 8  -8270299.91846  22702290.061    22702300.0524
  20240499.232   -24765299.204 9 -19277767.69348  20240498.595    20240503.9624
  23463076.938    -6957745.954 8  -4107990.56145  23463076.250    23463085.2744
  21073073.976   -22949830.593 9 -16978904.75647  21073073.275    21073080.3574
  24149619.211    -9542851.452 7  -7423991.16345  24149618.857    24149628.7854
  22759657.823   -10877939.780 8  -8452608.40946  22759657.058    22759666.2644
  23986213.727    -6636900.647 8  -4859834.55645  23986213.360    23986228.2764
  22623505.954   -16532195.129 8 -12302356.48946  22623505.124    22623514.8204
  22754060.004   -13710003.294 8  -8326620.72146  22754059.352    22754066.2724
  20362026.548   -22082488.462 9 -17179424.29948  20362026.213    20362032.4644
 01  4 25  2 12 30.0000000  0 11 17 03 14 23 21 09 31 25 15 18 29
  24230188.277    -6502847.178 7  -5038071.78945  24230187.519    24230201.4444
  22715473.343   -10583310.002 8  -8216319.21346  22715472.835    22715482.7894
  20238693.886   -24774786.295 9 -19285160.20548  20238693.234    20238698.6094
  23473691.139    -6901967.767 8  -4064527.05645  23473690.423    23473699.5464
  21073687.483   -22946606.490 9 -16976392.46247  21073686.770    21073693.8514
  24162029.231    -9477636.336 7  -7373174.19045  24162028.895    24162038.8644
  22763210.372   -10859271.173 8  -8438061.46346  22763209.568    22763218.7804
  23967407.312    -6735726.970 8  -4936841.61145  23967406.961    23967421.7384
  22640841.509   -16441096.561 8 -12231370.68446  22640840.642    22640850.4084
  22765912.724   -13647717.111 8  -8278086.05646  22765912.067    22765919.0284
  20358552.413   -22100744.992 9 -17193650.13248  20358552.078    20358558.3204
 01  4 25  2 13  0.0000000  0 11 17 03 14 23 21 09 31 25 15 18 29
  24250175.885    -6397812.336 7  -4956226.62645  24250175.173    24250189.2114
  22728712.969   -10513736.110 8  -8162105.89146  22728712.469    22728722.3684
  20236982.061   -24783781.802 9 -19292169.66548  20236981.409    20236986.7834
  23484316.177    -6846132.690 8  -4021019.21745  23484315.517    23484324.6124
  21074328.164   -22943239.617 9 -16973768.91747  21074327.457    21074334.5384
  24174529.874    -9411944.700 7  -7321985.92445  24174529.462    24174539.5154
  22766862.428   -10840079.393 8  -8423106.84746  22766861.630    22766870.8284
  23948604.228    -6834535.548 8  -5013834.84245  23948603.918    23948618.5824
  22658232.180   -16349708.383 8 -12160159.19146  22658231.273    22658241.0734
  22777782.969   -13585338.545 8  -8229479.40046  22777782.309    22777789.3364
  20355162.909   -22118556.856 9 -17207529.47348  20355162.564    20355168.7894
 01  4 25  2 13 30.0000000  0 11 17 03 14 23 21 09 31 25 15 18 29
  24270200.726    -6292581.604 7  -4874228.82045  24270200.010    24270214.0854
  22742008.790   -10443866.647 8  -8107662.25746  22742008.275    22742018.1774
  20235363.635   -24792286.472 9 -19298796.65048  20235362.990    20235368.3464
  23494952.178    -6790240.370 8  -3977466.76845  23494951.474    23494960.6294
  21074996.097   -22939729.524 9 -16971033.76247  21074995.384    21075002.4694
  24187120.948    -9345778.173 7  -7270427.57745  24187120.634    24187130.5414
  22770613.757   -10820365.970 8  -8407745.76146  22770613.013    22770622.1774
  23929805.023    -6933323.823 8  -5090812.26045  23929804.672    23929819.2524
  22675677.619   -16258032.141 8 -12088723.24646  22675676.766    22675686.5814
  22789670.797   -13522867.446 8  -8180800.63746  22789670.160    22789677.2294
  20351857.993   -22135924.245 9 -17221062.46348  20351857.642    20351863.8424
 01  4 25  2 14  0.0000000  0 11 17 03 14 23 21 09 31 25 15 18 29
  24290262.484    -6187156.939 7  -4792079.90145  24290261.641    24290275.8224
  22755360.365   -10373704.217 8  -8052990.34246  22755359.862    22755369.7654
  20233838.458   -24800301.286 9 -19305041.93548  20233837.816    20233843.1774
  23505599.051    -6734290.689 8  -3933869.62145  23505598.333    23505607.4884
  21075691.242   -22936076.512 9 -16968187.24847  21075690.523    21075697.6144
  24199801.992    -9279139.167 7  -7218501.07845  24199801.566    24199811.4644
  22774464.075   -10800132.457 8  -8391979.39846  22774463.327    22774472.4734
  23911010.194    -7032089.203 8  -5167771.84845  23911009.894    23911024.3814
  22693177.512   -16166069.708 8 -12017064.29446  22693176.621    22693186.5474
  22801576.158   -13460304.090 8  -8132050.00846  22801575.537    22801582.6384
  20348637.448   -22152848.220 9 -17234249.94248  20348637.102    20348643.2844
 01  4 25  2 14 30.0000000  0 11 17 03 14 23 21 09 31 25 15 18 29
  24310360.873    -6081539.741 7  -4709780.94745  24310360.018    24310374.2744
  22768767.057   -10303251.930 8  -7998092.55246  22768766.571    22768776.4954
  20232406.363   -24807826.874 9 -19310906.00148  20232405.717    20232411.0574
  23516256.965    -6678283.137 8  -3890227.39445  23516256.224    23516265.4044
  21076413.632   -22932280.190 9 -16965229.06047  21076412.923    21076420.0014
  24212572.520    -9212029.679 7  -7166207.95945  24212572.065    24212582.0914
  22778413.160   -10779380.146 8  -8375808.78246  22778412.403    22778421.5514
  23892220.256    -7130829.137 8  -5244711.59245  23892219.861    23892234.3224
  22710731.704   -16073822.180 8 -11945183.18646  22710730.808    22710740.7024
  22813499.097   -13397648.418 8  -8083227.42346  22813498.503    22813505.6294
  20345501.203   -22169329.066 9 -17247092.12448  20345500.863    20345507.0424
 01  4 25  2 15  0.0000000  0 11 17 03 14 23 21 09 31 25 15 18 29
  24330495.555    -5975731.838 7  -4627333.39145  24330494.829    24330509.0534
  22782228.346   -10232512.877 8  -7942971.32146  22782227.841    22782237.7924
  20231067.192   -24814864.164 9 -19316389.57348  20231066.554    20231071.8704
  23526925.998    -6622217.295 8  -3846539.71945  23526925.238    23526934.4074
  21077163.452   -22928339.802 9 -16962158.60847  21077162.734    21077169.8494
  24225432.122    -9144451.891 7  -7113549.94045  24225431.612    24225441.7134
  22782460.602   -10758110.685 8  -8359235.19846  22782459.821    22782469.0024
  23873435.686    -7229540.973 8  -5321629.46545  23873435.216    23873449.6504
  22728339.869   -15981290.952 8 -11873081.01946  22728338.988    22728348.8904
  22825439.621   -13334900.632 8  -8034333.05746  22825439.017    22825446.1654
  20342449.158   -22185367.569 9 -17259589.62448  20342448.806    20342454.9854
 01  4 25  2 15 30.0000000  0 11 17 03 14 23 21 09 31 25 15 18 29
  24350666.203    -5869734.924 7  -4544738.55345  24350665.314    24350679.6334
  22795743.664   -10161489.918 8  -7887628.85146  22795743.135    22795753.1144
  20229820.831   -24821413.887 9 -19321493.22248  20229820.177    20229825.4864
  23537606.102    -6566092.907 8  -3802806.43145  23537605.345    23537614.5574
  21077940.676   -22924255.323 9 -16958975.87147  21077939.966    21077947.0604
  24238380.467    -9076407.668 7  -7060528.45745  24238379.989    24238390.1004
  22786606.186   -10736325.454 8  -8342259.70646  22786605.421    22786614.6324
  23854657.000    -7328221.741 8  -5398523.13245  23854656.535    23854670.8594
  22746001.768   -15888477.497 8 -11800758.93446  22746000.871    22746010.8074
  22837397.663   -13272060.667 8  -7985366.86646  22837397.059    22837404.2274
  20339481.193   -22200964.211 9 -17271742.81548  20339480.840    20339487.0034
 01  4 25  2 16  0.0000000  0 11 17 03 14 23 21 09 31 25 15 18 29
  24370872.424    -5763550.687 7  -4461997.75645  24370871.767    24370886.0254
  22809312.405   -10090186.024 8  -7832067.48446  22809311.891    22809321.8634
  20228667.047   -24827476.851 9 -19326217.57748  20228666.406    20228671.7044
  23548297.427    -6509909.601 8  -3759027.23745  23548296.723    23548305.8474
  21078745.577   -22920025.602 9 -16955679.96247  21078744.869    21078751.9594
  24251417.216    -9007899.082 7  -7007145.14145  24251416.654    24251426.7744
  22790849.701   -10714025.775 8  -8324883.35646  22790848.913    22790858.1724
  23835884.720    -7426868.995 8  -5475390.68445  23835884.321    23835898.4674
  22763717.091   -15795383.053 8 -11728217.90546  22763716.177    22763726.1464
  22849373.294   -13209128.479 8  -7936328.80846  22849372.708    22849379.8024
  20336597.153   -22216119.733 9 -17283552.28148  20336596.807    20336602.9504
 01  4 25  2 16 30.0000000  0 10 03 14 23 21 09 31 25 15 18 29
  22822934.127   -10018603.624 8  -7776289.09546  22822933.572    22822943.6404
  20227605.783   -24833053.589 9 -19330563.05648  20227605.140    20227610.4304
  23559000.181    -6453666.511 8  -3715201.45445  23558999.454    23559008.6454
  21079578.180   -22915650.032 9 -16952270.40647  21079577.472    21079584.5554
  24264541.923    -8938927.957 7  -6953401.41745  24264541.268    24264551.4204
  22795190.938   -10691212.682 8  -8307106.93946  22795190.148    22795199.3964
  23817119.448    -7525479.400 8  -5552229.51345  23817119.062    23817133.0644
  22781485.606   -15702009.048 8 -11655459.03446  22781484.746    22781494.7154
  22861366.572   -13146103.463 8  -7887218.40246  22861365.965    22861373.0184
  20333797.041   -22230834.302 9 -17295018.14848  20333796.696    20333802.8304
 01  4 25  2 17  0.0000000  0 10 03 14 23 21 09 31 25 15 18 29
  22836608.183    -9946746.155 8  -7720296.37046  22836607.686    22836617.7784
  20226636.775   -24838145.574 9 -19334530.80348  20226636.131    20226641.4244
  23569714.277    -6397363.806 8  -3671329.23745  23569713.537    23569722.7584
  21080438.580   -22911128.589 9 -16948747.18147  21080437.857    21080444.9504
  24277754.114    -8869497.179 7  -6899299.50545  24277753.531    24277763.7514
  22799629.412   -10667888.303 8  -8288932.11646  22799628.626    22799637.9404
  23798361.613    -7624050.922 8  -5629038.05045  23798361.208    23798375.0474
  22799306.933   -15608357.468 8 -11582483.87146  22799306.069    22799316.1124
  22873377.373   -13082986.159 8  -7838036.10546  22873376.761    22873383.8544
  20331080.604   -22245109.078 9 -17306141.31448  20331080.256    20331086.3934
 01  4 25  2 17 30.0000000  0 10 03 14 23 21 09 31 25 15 18 29
  22850333.970    -9874616.808 8  -7664091.79346  22850333.483    22850343.6034
  20225759.799   -24842753.964 9 -19338121.71848  20225759.138    20225764.4364
  23580439.666    -6341001.637 8  -3627410.67745  23580438.912    23580448.1364
  21081326.718   -22906461.131 9 -16945110.17947  21081326.012    21081333.1114
  24291053.307    -8799609.031 7  -6844841.22845  24291052.713    24291062.9474
  22804164.803   -10644054.844 8  -8270360.61146  22804164.006    22804173.3664
  23779611.510    -7722581.600 8  -5705814.78645  23779611.138    23779624.8414
  22817180.761   -15514430.214 8 -11509293.89546  22817179.904    22817189.9764
  22885405.586   -13019777.284 8  -7788782.46946  22885404.974    22885412.1314
  20328447.633   -22258945.139 9 -17316922.62248  20328447.289    20328453.4424
 01  4 25  2 18  0.0000000  0 10 03 14 23 21 09 31 25 15 18 29
  22864111.051    -9802217.977 8  -7607677.21846  22864110.556    22864120.7814
  20224974.755   -24846879.361 9 -19341336.27748  20224974.102    20224979.3914
  23591176.465    -6284579.293 8  -3583445.22645  23591175.659    23591184.9244
  21082242.840   -22901646.852 9 -16941358.77147  21082242.148    21082249.2654
  24304439.344    -8729264.935 7  -6790027.66345  24304438.838    24304448.9534
  22808796.771   -10619713.599 8  -8251393.42546  22808795.959    22808805.3464
  23760869.841    -7821068.293 8  -5782557.23645  23760869.513    23760882.9024
  22835106.878   -15420228.307 8 -11435889.89846  22835105.995    22835116.1214
  22897451.322   -12956476.293 8  -7739457.03846  22897450.695    22897457.9044
  20325898.128   -22272342.725 9 -17327362.26248  20325897.784    20325903.9464
 01  4 25  2 18 30.0000000  0 11 03 14 23 21 09 31 25 11 15 18 29
  22877938.866    -9729552.662 8  -7551055.00146  22877938.383    22877948.6664
  20224281.432   -24850522.619 9 -19344175.14648  20224280.762    20224286.0524
  23601924.786    -6228096.359 8  -3539432.55945  23601923.998    23601933.2674
  21083186.985   -22896685.334 9 -16937492.63647  21083186.254    21083193.3914
  24317911.628    -8658467.155 7  -6734860.54745  24317911.091    24317921.2724
  22813525.080   -10594866.115 8  -8232031.77046  22813524.305    22813533.7024
  23742137.064    -7919508.180 8  -5859263.21145  23742136.662    23742149.8334
  24615580.095    -1020605.24844                  24615579.849    24615592.9464
  22853084.942   -15325753.429 8 -11362273.20046  22853084.089    22853094.2314
  22909514.659   -12893083.155 8  -7690059.80746  22909514.033    22909521.2684
  20323431.869   -22285302.825 9 -17337461.00348  20323431.521    20323437.6864
 01  4 25  2 19  0.0000000  0 11 03 14 23 21 09 31 25 11 15 18 29
  22891816.633    -9656624.830 8  -7494228.22446  22891816.165    22891826.4824
  20223679.490   -24853685.662 9 -19346639.82348  20223678.819    20223684.1164
  23612684.577    -6171553.259 8  -3495373.01045  23612683.809    23612693.0454
  21084158.978   -22891577.210 9 -16933512.26147  21084158.261    21084165.3964
  24331469.729    -8587218.957 7  -6679342.47445  24331469.124    24331479.5474
  22818349.233   -10569514.957 8  -8212277.63546  22818348.456    22818357.9014
  23723413.603    -8017898.922 8  -5935930.91245  23723413.223    23723426.2564
  24596247.777    -1441394.13717  -1099776.38744  24596245.993    24596258.5864
  22871114.491   -15231008.018 8 -11288445.71046  22871113.638    22871123.7624
  22921595.365   -12829598.668 8  -7640591.40446  22921594.750    22921601.9994
  20321048.586   -22297826.898 9 -17347219.98248  20321048.251    20321054.3944
 01  4 25  2 19 30.0000000  0 11 03 14 23 21 09 31 25 11 15 18 29
  22905743.657    -9583438.382 8  -7437199.92846  22905743.134    22905753.4814
  20223168.583   -24856370.418 9 -19348731.80548  20223167.912    20223173.1994
  23623455.712    -6114950.774 8  -3451267.19445  23623454.952    23623464.1374
  21085158.798   -22886322.974 9 -16929418.02747  21085158.079    21085165.2114
  24345112.935    -8515523.609 7  -6623475.97645  24345112.319    24345122.6884
  22823268.755   -10543662.815 8  -8192133.12246  22823267.951    22823277.4504
  23704699.683    -8116239.459 8  -6012559.48445  23704699.339    23704712.2374
  24576926.019    -1542928.820 7  -1178894.15145  24576924.189    24576936.5084
  22889195.042   -15135994.539 8 -11214409.32346  22889194.151    22889204.2914
  22933693.239   -12766024.073 8  -7591052.77746  22933692.654    22933699.8794
  20318747.959   -22309916.714 9 -17356640.57748  20318747.614    20318753.7414
 01  4 25  2 20  0.0000000  0 11 03 14 23 21 09 31 25 11 15 18 29
  22919719.617    -9509994.966 8  -7379971.39046  22919719.089    22919729.4444
  20222748.758   -24858576.419 9 -19350450.73348  20222748.083    20222753.3754
  23634238.490    -6058287.035 8  -3407113.63945  23634237.718    23634246.9234
  21086186.803   -22880920.725 9 -16925208.46447  21086186.097    21086193.2414
  24358841.107    -8443381.647 7  -6567261.47545  24358840.646    24358850.8784
  22828283.563   -10517309.722 8  -8171598.25646  22828282.779    22828292.2564
  23685996.099    -8214525.732 8  -6089145.77945  23685995.737    23686008.5764
  24557618.170    -1644391.363 8  -1257955.71645  24557616.856    24557628.4064
  22907326.580   -15040713.101 8 -11140164.14246  22907325.699    22907335.8524
  22945808.565   -12702357.929 8  -7541442.80946  22945807.967    22945815.1844
  20316530.100   -22321571.449 9 -17365722.14748  20316529.749    20316535.8784
 01  4 25  2 20 30.0000000  0 11 03 14 23 21 09 31 25 11 15 18 29
  22933744.011    -9436296.895 8  -7322544.43246  22933743.450    22933753.8224
  20222420.018   -24860303.799 9 -19351796.70948  20222419.340    20222424.6334
  23645033.189    -6001560.773 8  -3362911.38545  23645032.365    23645041.5344
  21087243.263   -22875368.887 9 -16920882.33747  21087242.546    21087249.6884
  24372653.983    -8370794.634 7  -6510700.15045  24372653.663    24372663.7404
  22833393.580   -10490456.739 8  -8150673.86346  22833392.771    22833402.2354
  23667303.527    -8312754.231 8  -6165687.06145  23667303.108    23667315.8784
  24538324.626    -1745778.846 8  -1336958.78445  24538323.532    24538335.0424
  22925508.929   -14945164.557 8 -11065710.83346  22925508.071    22925518.2054
  22957941.426   -12638599.404 8  -7491760.83946  22957940.838    22957948.0234
  20314394.970   -22332791.309 9 -17374464.85448  20314394.637    20314400.7594
 01  4 25  2 21  0.0000000  0 11 03 14 23 21 09 31 25 11 15 18 29
  22947816.432    -9362346.137 8  -7264920.56046  22947815.907    22947826.2734
  20222182.245   -24861553.092 9 -19352770.15548  20222181.575    20222186.8624
  23655839.904    -5944770.948 8  -3318659.59345  23655839.103    23655848.2784
  21088328.366   -22869666.540 9 -16916438.92947  21088327.645    21088334.7684
  24386551.202    -8297764.000 7  -6453793.12645  24386550.873    24386561.1004
  22838598.507   -10463104.856 8  -8129360.71146  22838597.678    22838607.1334
  23648622.636    -8410921.525 8  -6242180.65445  23648622.219    23648634.9894
  24519045.834    -1847088.734 8  -1415901.38845  24519044.559    24519056.0824
  22943741.917   -14849349.757 8 -10991050.04546  22943741.029    22943751.2324
  22970092.036   -12574747.528 8  -7442006.13946  22970091.427    22970098.6114
  20312342.623   -22343576.273 9 -17382868.68148  20312342.278    20312348.4154
 01  4 25  2 21 30.0000000  0 11 03 14 23 21 09 31 25 11 15 18 29
  22961936.307    -9288146.150 8  -7207102.49346  22961935.782    22961946.1874
  20222035.121   -24862325.922 9 -19353372.33048  20222034.457    20222039.7394
  23666658.720    -5887917.847 8  -3274358.51045  23666657.953    23666667.1644
  21089442.089   -22863813.799 9 -16911878.33647  21089441.373    21089448.5014
  24400532.388    -8224292.520 7  -6396542.61145  24400532.003    24400542.3224
  22843897.919   -10435256.332 8  -8107660.56946  22843897.119    22843906.5504
  23629953.819    -8509025.399 8  -6318624.83645  23629953.444    23629966.0094
  24499782.215    -1948319.009 8  -1494781.97145  24499781.184    24499792.5584
  22962025.221   -14753270.772 8 -10916183.39646  22962024.401    22962034.5144
  22982260.272   -12510803.127 8  -7392179.33146  22982259.693    22982266.8244
  20310372.764   -22353927.828 9 -17390934.79048  20310372.412    20310378.5384
 01  4 25  2 22  0.0000000  0 11 03 14 23 21 09 31 25 11 15 18 29
  22976102.982    -9213700.119 8  -7149092.70346  22976102.435    22976112.9754
  20221978.557   -24862623.104 9 -19353603.87648  20221977.896    20221983.1684
  23677489.632    -5831000.947 8  -3230007.68945  23677488.866    23677498.0994
  21090584.608   -22857809.677 9 -16907199.78947  21090583.883    21090591.0134
  24414596.973    -8150382.673 7  -6338950.52145  24414596.646    24414606.8084
  22849291.446   -10406913.058 8  -8085574.91046  22849290.625    22849300.0994
  23611297.589    -8607063.078 8  -6395017.44745  23611297.160    23611309.6364
  24480534.132    -2049467.917 8  -1573599.15645  24480533.170    24480544.6124
  22980358.484   -14656929.145 8 -10841112.10146  22980357.619    22980367.8244
  22994446.099   -12446766.068 8  -7342280.33646  22994445.487    22994452.6404
  20308485.259   -22363846.645 9 -17398663.70148  20308484.908    20308491.0094
 01  4 25  2 22 30.0000000  0 11 03 14 23 21 09 31 25 11 15 18 29
  22990315.805    -9139011.492 8  -7090893.87946  22990315.296    22990325.8434
  20222012.263   -24862445.828 9 -19353465.72148  20222011.593    20222016.8754
  23688332.733    -5774020.128 8  -3185607.07645  23688331.969    23688341.1604
  21091755.922   -22851654.261 9 -16902403.35147  21091755.192    21091762.2974
  24428744.566    -8076036.845 7  -6281018.70745  24428744.163    24428754.2354
  22854778.773   -10378077.171 8  -8063105.40246  22854777.947    22854787.3924
  23592654.391    -8705032.310 8  -6471356.71645  23592653.976    23592666.4104
  24461301.877    -2150533.435 8  -1652351.34645  24461300.933    24461312.3204
  22998741.359   -14560326.899 8 -10765837.72346  22998740.483    22998750.6864
  23006649.538   -12382636.475 8  -7292309.23546  23006648.879    23006656.0784
  20306679.869   -22373333.861 9 -17406056.29948  20306679.508    20306685.6154
 01  4 25  2 23  0.0000000  0 11 03 14 23 21 09 31 25 11 15 18 29
  23004574.257    -9064083.033 8  -7032508.17646  23004573.765    23004584.3294
  20222135.949   -24861795.724 9 -19352959.12648  20222135.287    20222140.5624
  23699188.023    -5716975.287 8  -3141156.56145  23699187.254    23699196.4464
  21092956.104   -22845347.270 9 -16897488.80147  21092955.371    21092962.4474
  24442974.556    -8001257.706 7  -6222749.26145  24442974.141    24442984.2774
  22860359.475   -10348750.290 8  -8040253.30446  22860358.643    22860368.1224
  23574024.702    -8802930.478 8  -6547640.62745  23574024.303    23574036.5834
  24442085.785    -2251513.794 8  -1731037.19145  24442084.906    24442096.0964
  23017173.523   -14463465.673 8 -10690361.54046  23017172.643    23017182.8604
  23018870.497   -12318414.694 8  -7242266.31446  23018869.888    23018877.0754
  20304956.419   -22382390.399 9 -17413113.30748  20304956.071    20304962.1724
 01  4 25  2 23 30.0000000  0 11 03 14 23 21 09 31 25 11 15 18 29
  23018877.830    -8988917.545 8  -6973937.78246  23018877.323    23018887.9374
  20222349.451   -24860673.584 9 -19352084.71048  20222348.789    20222354.0644
  23710055.632    -5659866.047 8  -3096655.88745  23710054.850    23710063.9514
  21094185.222   -22838888.218 9 -16892455.76947  21094184.500    21094191.5634
  24457286.615    -7926047.258 7  -6164143.72345  24457286.123    24457296.3544
  22866033.264   -10318934.294 8  -8017020.06746  22866032.495    22866041.8994
  23555409.057    -8900754.920 8  -6623867.08445  23555408.670    23555420.8494
  24422886.444    -2352406.524 8  -1809654.74845  24422885.618    24422896.8864
  23035654.652   -14366347.145 8 -10614684.85546  23035653.748    23035664.0324
  23031109.077   -12254100.427 8  -7192151.29646  23031108.496    23031115.7434
  20303314.768   -22391017.205 9 -17419835.46448  20303314.398    20303320.5244
 01  4 25  2 24  0.0000000  0 10 03 14 23 21 31 25 11 15 18 29
  23033225.943    -8913518.089 8  -6915185.05446  23033225.470    23033236.1324
  20222652.609   -24859080.500 9 -19350843.32448  20222651.939    20222657.2234
  23720935.506    -5602691.838 8  -3052104.57445  23720934.788    23720943.8654
  21095443.394   -22832276.392 9 -16887303.68847  21095442.669    21095449.7254
  22871799.797   -10288631.099 8  -7993407.20146  22871799.013    22871808.4054
  23536808.034    -8998502.529 8  -6700033.67545  23536807.608    23536819.7164
  24403704.175    -2453209.400 8  -1888202.27545  24403703.318    24403714.5674
  23054184.458   -14268972.613 8 -10538808.69646  23054183.610    23054193.8924
  23043365.296   -12189693.659 8  -7141964.22446  23043364.680    23043371.9774
  20301754.741   -22399214.929 9 -17426223.27048  20301754.378    20301760.5074
 01  4 25  2 24 30.0000000  0 10 03 14 23 21 31 25 11 15 18 29
  23047617.970    -8837887.875 8  -6856252.53146  23047617.487    23047628.1084
  20223045.123   -24857017.734 9 -19349235.95348  20223044.458    20223049.7384
  23731827.877    -5545452.197 8  -3007502.27745  23731827.177    23731836.2394
  21096730.752   -22825511.224 9 -16882032.12147  21096730.028    21096737.1004
  22877658.689   -10257842.502 8  -7969416.10646  22877657.906    22877667.2434
  23518222.107    -9096170.924 8  -6776138.55345  23518221.634    23518233.6854
  24384539.432    -2553920.187 8  -1966678.03645  24384538.615    24384549.6194
  23072762.642   -14171344.116 8 -10462734.64846  23072761.789    23072772.0784
  23055639.089   -12125194.380 8  -7091705.05946  23055638.494    23055645.7814
  20300276.193   -22406984.590 9 -17432277.52348  20300275.832    20300281.9574
 01  4 25  2 25  0.0000000  0 10 03 14 23 21 31 25 11 15 18 29
  23062053.270    -8762030.283 8  -6797142.82246  23062052.783    23062063.3674
  20223526.710   -24854486.807 9 -19347263.78248  20223526.044    20223531.2914
  23742732.602    -5488147.445 8  -2962849.23245  23742731.888    23742741.0494
  21098047.349   -22818592.359 9 -16876640.79147  21098046.636    21098053.6834
  22883609.470   -10226570.916 8  -7945048.64746  22883608.698    22883618.0154
  23499651.670    -9193757.856 8  -6852179.95046  23499651.191    23499663.1874
  24365392.478    -2654537.466 8  -2045080.92545  24365391.680    24365402.8594
  23091388.753   -14073463.663 8 -10386464.25046  23091387.865    23091398.2354
  23067930.463   -12060603.058 8  -7041374.17846  23067929.835    23067937.1534
  20298878.873   -22414327.512 9 -17437999.25348  20298878.509    20298884.6124
 01  4 25  2 25 30.0000000  0 10 03 14 23 21 31 25 11 15 18 29
  23076531.310    -8685948.120 8  -6737858.12346  23076530.761    23076541.3794
  20224097.266   -24851488.409 9 -19344927.34548  20224096.599    20224101.8304
  23753649.880    -5430776.759 8  -2918144.82545  23753649.141    23753658.3104
  21099393.242   -22811519.556 9 -16871129.51247  21099392.544    21099399.5654
  22889651.835   -10194818.000 8  -7920306.13946  22889651.075    22889660.4064
  23481097.263    -9291260.329 8  -6928155.56146  23481096.866    23481108.7114
  24346263.738    -2755058.723 8  -2123408.98945  24346263.163    24346274.0634
  23110062.608   -13975332.445 8 -10309998.46046  23110061.697    23110072.1054
  23080239.387   -11995919.405 8  -6990971.36146  23080238.743    23080246.0874
  20297562.575   -22421244.419 9 -17443389.02548  20297562.200    20297568.3044
 01  4 25  2 26  0.0000000  0 10 03 14 23 21 31 25 11 15 18 29
  23091051.534    -8609644.318 8  -6678400.72846  23091050.968    23091061.6324
  20224756.514   -24848023.911 9 -19342227.71848  20224755.843    20224761.0854
  23764579.772    -5373339.733 8  -2873388.72345  23764578.994    23764588.2094
  21100768.661   -22804291.929 9 -16865497.59847  21100767.942    21100774.9754
  22895785.455   -10162585.837 8  -7895190.19246  22895784.668    22895794.0204
  23462559.474    -9388675.658 8  -7004063.26846  23462559.029    23462570.7964
  24327153.699    -2855481.819 8  -2201660.53845  24327153.023    24327164.1154
  23128783.760   -13876952.410 8 -10233338.79746  23128782.877    23128793.3414
  23092565.848   -11931143.500 8  -6940496.65946  23092565.259    23092572.5454
  20296327.234   -22427736.084 9 -17448447.43848  20296326.855    20296332.9484
 01  4 25  2 26 30.0000000  0 10 03 14 23 21 31 25 11 15 18 29
  23105613.410    -8533121.657 8  -6618772.79746  23105612.847    23105623.4984
  20225504.206   -24844094.640 9 -19339165.92248  20225503.545    20225508.7674
  23775522.285    -5315836.230 8  -2828580.81945  23775521.519    23775530.8114
  21102173.608   -22796908.795 9 -16859744.49247  21102172.890    21102179.9154
  22902009.868   -10129876.336 8  -7869702.29246  22902009.078    22902018.4024
  23444038.757    -9486001.303 8  -7079901.10246  23444038.350    23444050.0284
  24308062.808    -2955804.734 8  -2279834.02145  24308062.089    24308073.1034
  23147551.980   -13778325.087 8 -10156486.42946  23147551.094    23147561.5914
  23104909.897   -11866275.254 8  -6889949.98646  23104909.304    23104916.5874
  20295172.609   -22433803.665 9 -17453175.39348  20295172.225    20295178.2974
 01  4 25  2 27  0.0000000  0 10 03 14 23 21 31 25 11 15 18 29
  23120216.404    -8456383.104 8  -6558976.62046  23120215.848    23120226.4464
  20226340.158   -24839701.549 9 -19335742.70648  20226339.487    20226344.7174
  23786477.670    -5258265.434 8  -2783720.47445  23786476.925    23786486.2164
  21103608.180   -22789370.001 9 -16853870.09447  21103607.457    21103614.4944
  22908324.818   -10096691.185 8  -7843843.75746  22908324.037    22908333.3434
  23425535.656    -9583234.295 8  -7155666.75546  23425535.259    23425546.8414
  24288991.344    -3056024.983 8  -2357927.49845  24288990.682    24289001.6944
  23166366.988   -13679451.888 8 -10079442.46846  23166366.089    23166376.6384
  23117271.578   -11801314.376 8  -6839331.15246  23117270.966    23117278.2514
  20294098.520   -22439447.869 9 -17457573.44048  20294098.138    20294104.1954
 01  4 25  2 27 30.0000000  0 10 03 14 23 21 31 25 11 15 18 29
  23134859.784    -8379432.077 8  -6499014.90146  23134859.220    23134869.8174
  20227264.124   -24834845.968 9 -19331959.10848  20227263.457    20227268.6844
  23797445.897    -5200627.226 8  -2738807.60145  23797445.171    23797454.3784
  21105072.496   -22781674.859 9 -16847873.87447  21105071.773    21105078.8094
  22914729.833   -10063032.567 8  -7817616.28246  22914729.043    22914738.3434
  23407050.622    -9680372.204 8  -7231358.30946  23407050.257    23407061.7794
  24269939.828    -3156140.673 8  -2435939.49345  24269939.211    24269950.1024
  23185228.382   -13580334.944 8 -10002208.59146  23185227.491    23185238.0514
  23129650.865   -11736261.147 8  -6788640.33646  23129650.216    23129657.5044
  20293104.796   -22444669.816 9 -17461642.45648  20293104.426    20293110.4674
 01  4 25  2 28  0.0000000  0 10 03 14 23 21 31 25 11 15 18 29
  23149543.036    -8302271.588 8  -6438889.94846  23149542.515    23149553.1214
  20228275.874   -24829529.115 9 -19327816.07448  20228275.206    20228280.4304
  23808427.006    -5142921.161 8  -2693841.84145  23808426.280    23808435.5014
  21106566.767   -22773822.398 9 -16841755.06247  21106566.028    21106573.0584
  22921224.566   -10028902.483 8  -7791021.43546  22921223.807    22921233.0754
  23388584.283    -9777411.928 8  -7306973.37546  23388583.902    23388595.3924
  24250908.650    -3256149.277 8  -2513868.04245  24250908.066    24250918.9214
  23204135.882   -13480975.680 8  -9924785.86746  23204134.991    23204145.5664
  23142047.708   -11671115.393 8  -6737877.42446  23142047.034    23142054.3474
  20292191.189   -22449470.522 9 -17465383.23548  20292190.829    20292196.8654
 01  4 25  2 28 30.0000000  0 10 03 14 23 21 31 25 11 15 18 29
  23164265.576    -8224904.436 8  -6378603.96446  23164265.073    23164275.6934
  20229375.115   -24823752.345 9 -19323314.66848  20229374.436    20229379.6824
  23819421.106    -5085146.886 8  -2648822.93345  23819420.249    23819429.5974
  21108091.025   -22765812.284 9 -16835513.40247  21108090.303    21108097.3104
  22927808.664    -9994302.989 8  -7764060.82646  22927807.889    22927817.1214
  23370137.170    -9874350.765 8  -7382509.83846  23370136.762    23370148.2224
  24231898.238    -3356048.889 8  -2591711.67145  24231897.696    24231908.4914
  23223089.181   -13381375.855 8  -9847175.70946  23223088.261    23223098.8824
  23154462.158   -11605876.991 8  -6687042.32546  23154461.540    23154468.8054
  20291357.600   -22453850.940 9 -17468796.52148  20291357.236    20291363.2624
 01  4 25  2 29  0.0000000  0 10 03 14 23 21 31 25 11 15 18 29
  23179026.925    -8147333.457 8  -6318159.16446  23179026.384    23179037.0664
  20230561.722   -24817516.460 9 -19318455.50548  20230561.054    20230566.3044
  23830428.324    -5027303.631 8  -2603750.28045  23830427.458    23830436.8024
  21109645.424   -22757643.843 9 -16829148.37247  21109644.717    21109651.7044
  22934481.733    -9959235.876 8  -7736735.82146  22934480.929    22934490.2394
  23351709.740    -9971186.257 8  -7457965.76346  23351709.319    23351720.6944
  24212908.969    -3455837.015 8  -2669468.42645  24212908.393    24212919.2324
  23242087.974   -13281536.934 8  -9769379.24046  23242087.038    23242097.6484
  23166894.288   -11540545.898 8  -6636135.00046  23166893.613    23166900.8754
  20290603.850   -22457811.834 9 -17471882.89548  20290603.488    20290609.4864
 01  4 25  2 29 30.0000000  0 10 03 14 23 21 31 25 11 15 18 29
  23193826.421    -8069562.047 8  -6257558.18546  23193825.858    23193836.5764
  20231835.376   -24810823.236 9 -19313239.97948  20231834.702    20231839.9514
  23841448.636    -4969391.446 8  -2558623.92245  23841447.739    23841457.0414
  21111230.041   -22749316.652 9 -16822659.64647  21111229.300    21111236.3144
  22941243.311    -9923703.538 8  -7709048.31646  22941242.499    22941251.8434
  23333302.462   -10067915.692 8  -7533339.07146  23333302.111    23333313.3294
  24193941.327    -3555511.712 8  -2747136.81945  24193940.704    24193951.5884
  23261131.908   -13181460.977 8  -9691398.06846  23261130.983    23261141.5594
  23179344.093   -11475121.942 8  -6585155.31946  23179343.434    23179350.6304
  20289929.682   -22461354.484 9 -17474643.37248  20289929.314    20289935.3044
 01  4 25  2 30  0.0000000  0 10 03 14 23 21 31 25 11 15 18 29
  23208663.573    -7991592.753 8  -6196803.00446  23208662.997    23208673.8224
  20233195.897   -24803673.593 9 -19307668.80048  20233195.230    20233200.4594
  23852482.203    -4911409.609 8  -2513443.28845  23852481.381    23852490.7804
  21112844.971   -22740830.076 9 -16816046.72047  21112844.222    21112851.2464
  22948093.186    -9887707.433 8  -7680999.41746  22948092.376    22948101.6954
  23314915.985   -10164536.195 8  -7608627.48246  23314915.651    23314926.7764
  24174995.758    -3655070.329 8  -2824714.75245  24174995.080    24175005.9624
  23280220.633   -13081149.501 8  -9613233.37045  23280219.719    23280230.2754
  23191811.557   -11409605.279 8  -6534103.40046  23191810.954    23191818.0884
  20289334.947   -22464479.748 9 -17477078.60948  20289334.586    20289340.5504
 01  4 25  2 30 30.0000000  0 10 03 14 23 21 31 25 11 15 18 29
  23223537.793    -7913428.563 8  -6135895.94946  23223537.210    23223548.0994
  20234643.027   -24796068.979 9 -19301743.10048  20234642.359    20234647.5624
  23863529.043    -4853357.889 8  -2468208.20945  23863528.303    23863537.7104
  21114490.274   -22732183.892 9 -16809309.42447  21114489.533    21114496.5714
  22955030.806    -9851250.012 8  -7652591.07346  22955030.033    22955039.3014
  23296550.651   -10261045.274 8  -7683829.08446  23296550.295    23296561.4014
  24156072.691    -3754511.061 8  -2902200.83945  24156071.950    24156082.8774
  23299353.831   -12980604.312 8  -9534886.56745  23299352.954    23299363.4744
  23204296.630   -11343995.943 8  -6482979.26346  23204296.020    23204303.1724
  20288819.412   -22467188.773 9 -17479189.50248  20288819.063    20288824.9974
 01  4 25  2 31  0.0000000  0 10 03 14 23 21 31 25 11 15 18 29
  23238448.467    -7835072.925 8  -6074839.71546  23238447.877    23238458.8314
  20236176.453   -24788010.736 9 -19295463.91848  20236175.767    20236180.9544
  23874589.275    -4795235.876 8  -2422918.34845  23874588.476    23874597.9644
  21116166.152   -22723376.963 9 -16802446.87047  21116165.423    21116172.4574
  22962055.824    -9814333.477 8  -7623824.96746  22962055.000    22962064.2904
  23278207.124   -10357439.899 8  -7758941.49346  23278206.773    23278217.8054
  24137172.492    -3853831.451 8  -2979593.16445  24137171.674    24137182.5924
  23318531.118   -12879827.285 8  -9456359.10345  23318530.207    23318540.8434
  23216799.391   -11278293.748 8  -6431782.77146  23216798.785    23216805.9044
  20288382.893   -22469482.616 9 -17480976.87848  20288382.545    20288388.4764
 01  4 25  2 31 30.0000000  0 10 03 14 23 21 31 25 11 15 18 29
  23253395.041    -7756528.522 8  -6013636.40146  23253394.490    23253405.4054
  20237795.900   -24779500.249 9 -19288832.34848  20237795.236    20237800.3944
  23885662.994    -4737043.123 8  -2377573.36245  23885662.290    23885671.6434
  21117872.692   -22714408.966 9 -16795458.81047  21117871.962    21117879.0114
  22969167.778    -9776960.201 8  -7594702.96346  22969166.956    22969176.1894
  23259885.899   -10453717.623 8  -7833962.82046  23259885.527    23259896.4904
  24118295.579    -3953029.493 8  -3056890.17245  24118294.832    24118305.5254
  23337752.132   -12778820.318 8  -9377652.48945  23337751.271    23337761.8334
  23229319.819   -11212498.547 8  -6380513.81946  23229319.217    23229326.3184
  20288025.196   -22471362.284 9 -17482441.52348  20288024.853    20288030.7854
 01  4 25  2 32  0.0000000  0 10 03 14 23 21 31 25 11 15 18 29
  23268376.955    -7677798.513 8  -5952288.44946  23268376.419    23268387.3134
  20239501.194   -24770538.720 9 -19281849.31148  20239500.525    20239505.6764
  23896750.275    -4678779.193 8  -2332172.92245  23896749.534    23896758.8684
  21119610.070   -22705278.910 9 -16788344.47547  21119609.339    21119616.4034
  22976366.263    -9739132.013 8  -7565226.47446  22976365.443    22976374.6574
  23241587.482   -10549875.501 8  -7908890.75746  23241587.124    23241597.9694
  24099442.396    -4052102.751 8  -3134089.94745  24099441.773    24099452.2874
  23357016.694   -12677584.766 8  -9298767.74045  23357015.804    23357026.4654
  23241857.964   -11146610.317 8  -6329172.35846  23241857.337    23241864.4884
  20287746.083   -22472828.850 9 -17483584.27348  20287745.736    20287751.6664
 01  4 25  2 32 30.0000000  0 10 03 14 23 21 31 25 11 15 18 29
  23283393.582    -7598885.917 8  -5890798.21546  23283393.012    23283403.9544
  20241292.095   -24761127.299 9 -19274515.71848  20241291.426    20241296.5764
  23907851.191    -4620443.588 8  -2286716.61345  23907850.449    23907859.8764
  21121378.342   -22695986.525 9 -16781103.64647  21121377.605    21121384.6684
  22983650.901    -9700851.058 8  -7535397.18646  22983650.120    22983659.3774
  23223312.368   -10645910.655 8  -7983723.06246  23223312.026    23223322.8054
  24080613.455    -4151048.808 8  -3211190.62145  24080612.799    24080623.3224
  23376324.381   -12576122.459 8  -9219706.30745  23376323.498    23376334.1374
  23254413.804   -11080628.928 8  -6277758.30346  23254413.195    23254420.3254
  20287545.414   -22473883.199 9 -17484405.81048  20287545.065    20287551.0024
 01  4 25  2 33  0.0000000  0 10 03 14 23 21 31 25 11 15 18 29
  23298444.350    -7519793.920 8  -5829168.20046  23298443.783    23298454.7234
  20243168.361   -24751267.372 9 -19266832.63948  20243167.707    20243172.8164
  23918965.793    -4562036.137 8  -2241204.33445  23918965.026    23918974.4704
  21123177.617   -22686531.249 9 -16773735.89047  21123176.879    21123183.9554
  22991021.246    -9662119.638 8  -7505216.89046  22991020.448    22991029.7644
  23205061.136   -10741820.304 8  -8058457.57746  23205060.781    23205071.5194
  24061809.127    -4249865.583 8  -3288190.55745  24061808.447    24061818.9044
  23395674.924   -12474435.019 8  -9140469.46345  23395674.102    23395684.7074
  23266987.400   -11014554.330 8  -6226271.64046  23266986.800    23266993.9064
  20287422.907   -22474526.715 9 -17484907.22348  20287422.560    20287428.5044
 01  4 25  2 33 30.0000000  0 10 03 14 23 21 31 25 11 15 18 29
  23313528.791    -7440525.089 8  -5767400.37845  23313528.270    23313539.2734
  20245129.726   -24740960.440 9 -19258801.24248  20245129.059    20245134.1574
  23930094.169    -4503556.197 8  -2195635.56545  23930093.341    23930102.8794
  21125008.029   -22676912.320 9 -16766240.61347  21125007.302    21125014.3674
  22998476.959    -9622939.750 8  -7474687.15046  22998476.216    22998485.4724
  23186834.305   -10837601.921 8  -8133092.31746  23186833.910    23186844.6214
  24043029.865    -4348550.582 8  -3365087.79745  24043029.187    24043039.5894
  23415068.034   -12372524.128 8  -9061058.47845  23415067.116    23415077.7934
  23279578.756   -10948386.410 8  -6174712.25746  23279578.113    23279585.2564
  20287378.477   -22474760.136 9 -17485089.07848  20287378.120    20287384.0594
 01  4 25  2 34  0.0000000  0 10 03 14 23 21 31 25 11 15 18 29
  23328646.252    -7361082.594 8  -5705497.24845  23328645.734    23328656.7374
  20247175.836   -24730208.027 9 -19250422.71248  20247175.152    20247180.2614
  23941236.414    -4445003.400 8  -2150010.02745  23941235.617    23941245.1634
  21126869.673   -22667129.327 9 -16758617.49147  21126868.933    21126875.9984
  23006017.597    -9583313.619 8  -7443809.67446  23006016.846    23006026.1564
  23168632.348   -10933252.783 8  -8207625.17846  23168631.911    23168642.6104
  24024276.072    -4447101.799 8  -3441880.81745  24024275.390    24024285.7894
  23434503.236   -12270391.858 8  -8981475.00645  23434502.342    23434513.0054
  23292187.896   -10882124.973 8  -6123079.99146  23292187.265    23292194.4384
  20287411.787   -22474584.874 9 -17484952.47748  20287411.437    20287417.3624
 01  4 25  2 34 30.0000000  0 10 03 14 23 21 31 25 11 15 18 29
  23343796.168    -7281469.745 8  -5643461.36645  23343795.626    23343806.7114
  20249306.478   -24719011.372 9 -19241698.02648  20249305.787    20249310.8974
  23952392.555    -4386377.411 8  -2104327.45645  23952391.814    23952401.3244
  21128762.641   -22657181.707 9 -16750866.09147  21128761.893    21128768.9514
  23013642.686    -9543243.480 8  -7412586.23946  23013641.997    23013651.2724
  23150455.714   -11028770.474 8  -8282054.28646  23150455.293    23150465.9754
  24005548.209    -4545516.747 8  -3518567.64645  24005547.545    24005557.8254
  23453980.224   -12168039.922 8  -8901720.36745  23453979.278    23453990.0124
  23304814.810   -10815770.110 8  -6071374.94546  23304814.162    23304821.4194
  20287522.676   -22474002.012 9 -17484498.27348  20287522.321    20287528.2444
 01  4 25  2 35  0.0000000  0 10 03 14 23 21 31 25 11 15 18 29
  23358977.974    -7201689.306 8  -5581294.91045  23358977.367    23358988.5044
  20251521.368   -24707371.847 9 -19232628.24448  20251520.694    20251525.8054
  23963562.774    -4327677.719 8  -2058587.45245  23963562.001    23963571.5454
  21130687.131   -22647068.385 9 -16742985.56847  21130686.390    21130693.4424
  23021351.872    -9502731.557 8  -7381018.54746  23021351.150    23021360.5154
  23132304.942   -11124152.143 8  -8356377.38746  23132304.499    23132315.1424
  23986846.666    -4643793.326 8  -3595146.64045  23986845.952    23986856.2844
  23473498.651   -12065470.078 8  -8821795.92745  23473497.716    23473508.4784
  23317459.504   -10749321.950 8  -6019597.18046  23317458.889    23317466.1224
  20287710.920   -22473012.717 9 -17483727.36148  20287710.560    20287716.4884
 01  4 25  2 35 30.0000000  0 10 03 14 23 21 31 25 11 15 18 29
  23374191.032    -7121744.577 8  -5519000.43345  23374190.435    23374201.5024
  20253820.236   -24695290.988 9 -19223214.56748  20253819.552    20253824.6934
  23974747.070    -4268903.956 8  -2012789.73745  23974746.319    23974755.7564
  21132643.337   -22636788.541 9 -16734975.29747  21132642.576    21132649.6644
  23029144.714    -9461780.257 8  -7349108.49246  23029143.945    23029153.2814
  23114180.604   -11219394.846 8  -8430592.22046  23114180.197    23114190.7704
  23968171.935    -4741929.058 8  -3671615.88345  23968171.211    23968181.4864
  23493058.246   -11962684.171 8  -8741703.12645  23493057.335    23493068.1064
  23330121.954   -10682780.340 8  -5967746.60946  23330121.322    23330128.6064
  20287976.267   -22471618.152 9 -17482640.66048  20287975.897    20287981.8364
 01  4 25  2 36  0.0000000  0 10 03 14 23 21 31 25 11 15 18 29
  23389434.809    -7041638.439 8  -5456580.17945  23389434.171    23389445.3244
  20256202.855   -24682770.234 9 -19213458.11048  20256202.163    20256207.3144
  23985945.519    -4210055.777 8  -1966934.03145  23985944.687    23985954.2784
  21134631.259   -22626341.834 9 -16726834.99647  21134630.510    21134637.5894
  23037020.725    -9420391.657 8  -7316857.67046  23037019.973    23037029.2914
  23096083.298   -11314495.848 8  -8504696.64746  23096082.925    23096093.3754
  23949524.440    -4839921.762 8  -3747973.66045  23949523.770    23949533.9444
  23512658.619   -11859683.834 8  -8661443.22845  23512657.705    23512668.5754
  23342802.306   -10616144.826 8  -5915822.85946  23342801.694    23342808.9524
  20288318.521   -22469819.411 9 -17481239.00848  20288318.150    20288324.1054
 01  4 25  2 36 30.0000000  0 10 03 14 23 21 31 25 11 15 18 29
  23404708.757    -6961373.796 8  -5394036.42845  23404708.137    23404719.2504
  20258668.889   -24669810.979 9 -19203359.97548  20258668.216    20258673.3584
  23997158.192    -4151132.629 8  -1921019.91045  23997157.423    23997166.9314
  21136651.037   -22615727.769 9 -16718564.29247  21136650.292    21136657.3814
  23044979.467    -9378568.230 8  -7284268.04746  23044978.713    23044988.0274
  23078013.410   -11409452.547 8  -8578688.62746  23078013.075    23078023.4634
  23930904.582    -4937769.164 8  -3824218.22145  23930903.870    23930914.0434
  23532299.488   -11756470.836 8  -8581017.63545  23532298.519    23532309.4254
  23355500.529   -10549415.602 8  -5863826.09946  23355499.883    23355507.1114
  20288737.455   -22467617.670 9 -17479523.34348  20288737.080    20288743.0304
 01  4 25  2 37  0.0000000  0 10 03 14 23 21 31 25 11 15 18 29
  23420012.201    -6880954.087 8  -5331371.84145  23420011.583    23420022.7714
  20261218.071   -24656414.760 9 -19192921.34448  20261217.381    20261222.5134
  24008385.268    -4092134.223 8  -1875047.14745  24008384.551    24008393.9594
  21138702.786   -22604945.841 9 -16710162.78047  21138702.041    21138709.1234
  23053020.563    -9336312.192 8  -7251341.31046  23053019.796    23053029.1144
  23059971.532   -11504262.176 8  -8652566.00846  23059971.184    23059981.4874
  23912312.777    -5035468.983 8  -3900347.77445  23912312.081    23912322.2814
  23551980.389   -11653047.331 8  -8500427.98845  23551979.434    23551990.3794
  23368216.489   -10482592.875 8  -5811756.45846  23368215.831    23368223.0574
  20289232.820   -22465014.391 9 -17477494.78448  20289232.447    20289238.3874
 01  4 25  2 37 30.0000000  0 10 03 14 23 21 31 25 11 15 18 29
  23435344.610    -6800382.038 8  -5268588.55145  23435344.029    23435355.2504
  20263850.224   -24642582.739 9 -19182143.12248  20263849.539    20263854.6484
  24019626.760    -4033059.922 8  -1829015.26245  24019625.920    24019635.4854
  21140786.713   -22593994.648 9 -16701629.37147  21140785.978    21140793.0404
  23061143.567    -9293625.697 8  -7218079.15946  23061142.813    23061152.1084
  23041958.102   -11598922.191 8  -8726326.81446  23041957.765    23041967.9664
  23893749.577    -5133018.694 8  -3976360.33745  23893748.842    23893759.0144
  23571701.066   -11549414.835 8  -8419675.51645  23571700.122    23571711.1004
  23380950.338   -10415676.037 8  -5759613.50446  23380949.685    23380956.8964
  20289804.444   -22462010.384 9 -17475153.97348  20289804.081    20289809.9964
 01  4 25  2 38  0.0000000  0 10 03 14 23 21 31 25 11 15 18 29
  23450705.492    -6719660.309 8  -5205688.61145  23450704.985    23450716.1984
  20266564.993   -24628316.552 9 -19171026.59148  20266564.300    20266569.3904
  24030882.728    -3973909.422 8  -1782923.99845  24030881.916    24030891.3944
  21142902.875   -22582874.039 9 -16692963.94547  21142902.143    21142909.2064
  23069347.989    -9250511.350 8  -7184483.60746  23069347.233    23069356.5414
  23023973.749   -11693429.605 8  -8799968.73146  23023973.425    23023983.5444
  23875215.315    -5230415.963 8  -4052254.12045  23875214.634    23875224.8104
  23591461.123   -11445575.397 8  -8338761.77545  23591460.162    23591471.2754
  23393702.114   -10348665.074 8  -5707397.20146  23393701.437    23393708.7534
  20290452.101   -22458606.931 9 -17472501.90348  20290451.732    20290457.6284
 01  4 25  2 38 30.0000000  0 10 03 14 23 21 31 25 11 15 18 29
  23466094.411    -6638791.543 8  -5142674.12245  23466093.901    23466105.1474
  20269362.145   -24613617.473 9 -19159572.74348  20269361.443    20269366.5084
  24042153.340    -3914681.993 8  -1736772.78245  24042152.563    24042161.9134
  21145051.511   -22571582.944 9 -16684165.67547  21145050.786    21145057.8294
  23077633.515    -9206971.042 8  -7150556.13946  23077632.707    23077641.9884
  23006019.036   -11787781.470 8  -8873489.42646  23006018.675    23006028.7264
  23856710.569    -5327658.395 8  -4128027.23645  23856709.943    23856720.0544
  23611260.227   -11341530.670 8  -8257688.09345  23611259.275    23611270.3344
  23406471.826   -10281559.847 8  -5655107.45146  23406471.157    23406478.5064
  20291175.546   -22454805.005 9 -17469539.33248  20291175.182    20291181.0634
 01  4 25  2 39  0.0000000  0 10 03 14 23 21 31 25 11 15 18 29
  23481510.447    -6557780.063 8  -5079548.42845  23481509.918    23481521.2984
  20272241.176   -24598487.850 9 -19147783.40248  20272240.480    20272245.5254
  24053438.515    -3855378.175 8  -1690562.03345  24053437.811    24053447.0984
  21147232.440   -22560121.975 9 -16675235.03447  21147231.696    21147238.7524
  23085999.355    -9163008.389 8  -7116299.57146  23085998.555    23086007.8304
  22988094.159   -11881976.253 8  -8946887.72746  22988093.804    22988103.7884
  23838235.547    -5424744.499 8  -4203678.54445  23838234.934    23838244.9824
  23631097.943   -11237283.337 8  -8176456.49845  23631096.982    23631108.0434
  23419259.335   -10214361.160 8  -5602744.87046  23419258.675    23419266.0424
  20291974.452   -22450606.768 9 -17466267.94648  20291974.089    20291979.9424
 01  4 25  2 39 30.0000000  0 10 03 14 23 21 31 25 11 15 18 29
  23496953.208    -6476628.073 8  -5016313.24145  23496952.678    23496964.0644
  20275202.091   -24582928.214 9 -19135658.98648  20275201.400    20275206.4134
  24064738.492    -3795996.695 8  -1644290.77845  24064737.719    24064747.0364
  21149446.030   -22548489.525 9 -16666170.77447  21149445.274    21149452.3224
  23094445.392    -9118624.244 8  -7081714.56946  23094444.589    23094453.9334
  22970199.930   -11976009.968 8  -9020160.52646  22970199.592    22970209.5154
  23819790.902    -5521670.975 8  -4279205.46745  23819790.272    23819800.3154
  23650974.079   -11132834.017 8  -8095067.53445  23650973.082    23650984.2774
  23432064.797   -10147067.954 8  -5550308.65146  23432064.170    23432071.4734
  20292848.692   -22446012.541 9 -17462688.00048  20292848.323    20292854.1474
 01  4 25  2 40  0.0000000  0 10 03 14 23 21 31 25 11 15 18 29
  23512422.154    -6395338.657 8  -4952970.98445  23512421.609    23512433.0574
  20278244.495   -24566940.176 9 -19123200.75148  20278243.794    20278248.7924
  24076053.297    -3736537.234 8  -1597958.75945  24076052.436    24076061.8294
  21151692.413   -22536684.646 9 -16656972.15047  21151691.659    21151698.6894
  23102971.108    -9073821.533 8  -7046803.40346  23102970.287    23102979.6424
  22952336.860   -12069880.034 8  -9093305.80846  22952336.509    22952346.4014
  23801377.029    -5618435.768 8  -4354606.41545  23801376.351    23801386.3804
  23670888.290   -11028184.873 8  -8013522.85145  23670887.316    23670898.4454
  23444888.307   -10079680.174 8  -5497798.72346  23444887.692    23444894.9594
  20293798.053   -22441023.530 9 -17458800.43348  20293797.686    20293803.4764
 01  4 25  2 40 30.0000000  0 10 03 14 23 21 31 25 11 15 18 29
  23527916.731    -6313914.539 8  -4889523.77045  23527916.213    23527927.6574
  20281368.109   -24550525.481 9 -19110410.05848  20281367.392    20281372.4024
  24087383.046    -3676999.132 8  -1551565.46445  24087382.261    24087391.5584
  21153971.700   -22524706.835 9 -16647638.76747  21153970.951    21153977.9504
  23111576.041    -9028602.605 8  -7011567.91946  23111575.200    23111584.5524
  22934505.433   -12163583.830 8  -9166321.53346  22934505.083    22934514.9384
  23782994.406    -5715036.276 8  -4429879.34845  23782993.827    23783003.7194
  23690840.187   -10923337.542 8  -7931823.74345  23690839.213    23690850.3234
  23457729.820   -10012197.684 8  -5445215.00046  23457729.222    23457736.4454
  20294822.284   -22435641.100 9 -17454606.30248  20294821.917    20294827.6814
 01  4 25  2 41  0.0000000  0 10 03 14 23 21 31 25 11 15 18 29
  23543436.335    -6232359.131 8  -4825974.24545  23543435.769    23543447.2184
  20284572.542   -24533685.856 9 -19097288.25148  20284571.833    20284576.8534
  24098727.774    -3617382.337 8  -1505110.84345  24098726.869    24098736.1794
  21156283.930   -22512555.663 9 -16638170.30347  21156283.200    21156290.1774
  23120259.711    -8982969.755 8  -6976009.89546  23120258.887    23120268.2354
  22916706.151   -12257118.783 8  -9239205.69246  22916705.776    22916715.6004
  23764643.434    -5811470.503 8  -4505022.72945  23764642.791    23764652.7364
  23710829.270   -10818294.443 8  -7849972.07845  23710828.315    23710839.5394
  23470589.273    -9944620.884 8  -5392557.78146  23470588.699    23470595.9524
  20295921.127   -22429866.729 9 -17450106.76648  20295920.736    20295926.5194
 01  4 25  2 41 30.0000000  0 10 03 14 23 21 31 25 11 15 18 29
  23558980.401    -6150675.155 8  -4762324.54845  23558979.847    23558991.2394
  20287857.588   -24516422.560 9 -19083836.30948  20287856.889    20287861.9264
  24110087.544    -3557686.286 8  -1458594.46545  24110086.625    24110096.1034
  21158629.368   -22500230.196 9 -16628566.01547  21158628.626    21158635.6344
  23129021.662    -8936925.693 8  -6940131.45246  23129020.782    23129030.1914
  22898939.469   -12350482.108 8  -9311956.10746  22898939.095    22898948.8764
  23746324.590    -5907736.042 8  -4580034.65845  23746323.903    23746333.7684
  23730855.376   -10713057.247 8  -7767969.17745  23730854.410    23730865.6584
  23483466.720    -9876949.572 8  -5339826.91346  23483466.075    23483473.4694
  20297094.285   -22423701.534 9 -17445302.69048  20297093.894    20297099.6834
 01  4 25  2 42  0.0000000  0 10 03 14 23 21 31 25 11 15 18 29
  23574548.338    -6068865.923 8  -4698577.24545  23574547.800    23574559.1944
  20291222.948   -24498737.339 9 -19070055.59948  20291222.249    20291227.2874
  24121462.416    -3497910.764 8  -1412016.16745  24121461.529    24121471.0954
  21161008.121   -22487729.659 9 -16618825.31247  21161007.379    21161014.3964
  23137861.352    -8890473.010 8  -6903934.59846  23137860.503    23137869.8674
  22881205.979   -12443671.264 8  -9384570.82546  22881205.582    22881215.3434
  23728038.267    -6003830.616 8  -4654913.40045  23728037.632    23728047.4374
  23750917.993   -10607627.842 8  -7685816.50545  23750917.033    23750928.2634
  23496362.169    -9809183.549 8  -5287022.24046  23496361.557    23496368.9584
  20298341.574   -22417146.922 9 -17440195.17648  20298341.171    20298346.9704
 01  4 25  2 42 30.0000000  0 10 03 14 23 21 31 25 11 15 18 29
  23590139.568    -5986934.279 8  -4634734.57045  23590138.927    23590150.3984
  20294668.355   -24480631.502 9 -19055947.13448  20294667.664    20294672.7054
  24132852.582    -3438055.058 8  -1365375.39045  24132851.724    24132861.2894
  21163420.385   -22475053.062 9 -16608947.42347  21163419.649    21163426.6714
  23146778.269    -8843614.416 8  -6867421.44046  23146777.410    23146786.7724
  22863506.194   -12536683.252 8  -9457047.48746  22863505.795    22863515.5614
  23709785.019    -6099751.360 8  -4729656.70045  23709784.368    23709794.0634
  23771016.903   -10502007.779 8  -7603515.26145  23771015.929    23771027.2344
  23509275.706    -9741322.364 8  -5234143.41846  23509275.087    23509282.5204
  20299662.726   -22410203.986 9 -17434785.07348  20299662.326    20299668.1214
 01  4 25  2 43  0.0000000  0 10 03 14 23 21 31 25 11 15 18 29
  23605753.448    -5904883.353 8  -4570798.94145  23605752.907    23605764.3224
  20298193.454   -24462106.846 9 -19041512.31548  20298192.754    20298197.7684
  24144258.085    -3378118.897 8  -1318671.91445  24144257.158    24144266.8174
  21165866.278   -22462199.710 9 -16598931.80047  21165865.536    21165872.5474
  23155772.145    -8796351.714 8  -6830593.39846  23155771.243    23155780.6274
  22845840.658   -12629515.412 8  -9529384.02346  22845840.275    22845849.9964
  23691565.241    -6195496.283 8  -4804262.99845  23691564.671    23691574.1824
  23791151.719   -10396199.117 8  -7521067.04845  23791150.759    23791161.9694
  23522207.348    -9673366.185 8  -5181190.57746  23522206.735    23522214.1634
  20301057.503   -22402874.151 9 -17429073.48848  20301057.121    20301062.9004
 01  4 25  2 43 30.0000000  0 10 03 14 23 21 31 25 11 15 18 29
  23621389.434    -5822716.087 8  -4506772.66245  23621388.892    23621400.4444
  20301797.977   -24443164.993 9 -19026752.41148  20301797.278    20301802.2734
  24155678.998    -3318101.913 8  -1271905.45845  24155678.082    24155687.6934
  21168345.817   -22449169.575 9 -16588778.42247  21168345.070    21168352.0794
  23164842.391    -8748687.604 8  -6793452.57946  23164841.514    23164850.8164
  22828209.829   -12722165.075 8  -9601578.35646  22828209.440    22828219.1484
  23673379.374    -6291063.120 8  -4878730.53845  23673378.811    23673388.2214
  23811322.046   -10290203.786 8  -7438473.39945  23811321.055    23811332.3154
  23535157.059    -9605315.073 8  -5128163.75246  23535156.440    23535163.8784
  20302525.662   -22395158.850 9 -17423061.53748  20302525.264    20302531.0444
 01  4 25  2 44  0.0000000  0 10 03 14 23 21 31 25 11 15 18 29
  23637047.028    -5740435.393 8  -4442658.00345  23637046.523    23637058.1164
  20305481.583   -24423807.376 9 -19011668.53448  20305480.888    20305485.8734
  24167115.385    -3258003.540 8  -1225075.58245  24167114.504    24167124.0364
  21170859.191   -22435961.620 9 -16578486.48747  21170858.450    21170865.4564
  23173988.495    -8700624.528 8  -6756000.86846  23173987.583    23173996.9254
  22810614.289   -12814629.469 8  -9673628.32646  22810613.861    22810623.5074
  23655227.902    -6386449.248 8  -4953057.28545  23655227.288    23655236.7104
  23831527.552   -10184023.635 8  -7355735.72745  23831526.557    23831537.7524
  23548124.860    -9537168.602 8  -5075062.62545  23548124.253    23548131.7064
  20304066.965   -22387059.144 9 -17416750.04748  20304066.557    20304072.3324
 01  4 25  2 44 30.0000000  0 10 03 14 23 21 31 25 11 15 18 29
  23652725.707    -5658044.090 8  -4378457.13345  23652725.160    23652736.7584
  20309244.038   -24404035.423 9 -18996261.79748  20309243.324    20309248.3364
  24178567.310    -3197823.243 8  -1178181.85945  24178566.367    24178575.9454
  21173406.480   -22422575.391 9 -16568055.63847  21173405.726    21173412.7324
  23183210.054    -8652165.008 8  -6718240.23446  23183209.148    23183218.5514
  22793054.519   -12906905.879 8  -9745531.82046  22793054.087    22793063.6624
  23637111.269    -6481652.152 8  -5027241.26445  23637110.629    23637119.9724
  23851767.947   -10077660.463 8  -7272855.43045  23851766.925    23851778.1294
  23561110.901    -9468926.665 8  -5021887.10645  23561110.323    23561117.7814
  20305681.188   -22378576.216 9 -17410139.94848  20305680.800    20305686.5674
 01  4 25  2 45  0.0000000  0 10 03 14 23 21 31 25 11 15 18 29
  23668424.793    -5575545.536 8  -4314172.71345  23668424.161    23668435.8944
  20313084.982   -24383851.072 9 -18980533.71348  20313084.274    20313089.2884
  24190034.899    -3137560.860 8  -1131224.17445  24190034.018    24190043.5564
  21175987.832   -22409010.014 9 -16557485.19347  21175987.099    21175994.1064
  23192506.551    -8603311.693 8  -6680172.76046  23192505.662    23192515.0644
  22775531.028   -12998991.584 8  -9817286.71246  22775530.609    22775540.1194
  23619029.936    -6576669.826 8  -5101280.90345  23619029.306    23619038.4914
  23872042.718    -9971116.461 8  -7189834.24545  23872041.669    23872052.8654
  23574115.028    -9400589.554 8  -4968637.41445  23574114.410    23574121.8994
  20307368.032   -22369711.716 9 -17403232.52348  20307367.642    20307373.4164
 01  4 25  2 45 30.0000000  0 10 03 14 23 21 31 25 11 15 18 29
  23684143.707    -5492942.628 8  -4249806.97145  23684143.109    23684154.8454
  20317004.106   -24363255.769 9 -18964485.40648  20317003.401    20317008.4274
  24201518.216    -3077215.919 8  -1084202.15445  24201517.338    24201526.7924
  21178603.538   -22395264.361 9 -16546774.28047  21178602.808    21178609.8084
  23201877.482    -8554067.093 8  -6641800.37546  23201876.625    23201886.0264
  22758044.355   -13090883.928 8  -9888890.93946  22758043.944    22758053.4084
  23600984.347    -6671499.753 8  -5175174.25545  23600983.639    23600992.9064
  23892351.527    -9864393.232 8  -7106673.41545  23892350.530    23892361.7564
  23587137.343    -9332156.946 8  -4915313.31445  23587136.755    23587144.2594
  20309127.242   -22360466.901 9 -17396028.74948  20309126.844    20309132.6204
 01  4 25  2 46  0.0000000  0 10 03 14 23 21 31 25 11 15 18 29
  23699881.887    -5410238.339 8  -4185362.22945  23699881.324    23699893.2814
  20321001.148   -24342251.120 9 -18948118.12548  20321000.454    20321005.4594
  24213017.247    -3016787.967 7  -1037115.45645  24213016.278    24213025.8204
  21181253.525   -22381338.354 9 -16535922.83447  21181252.804    21181259.8004
  23211322.410    -8504433.693 8  -6603125.04946  23211321.547    23211331.0194
  22740594.920   -13182580.410 8  -9960342.54946  22740594.504    22740603.8994
  23582974.999    -6766139.326 8  -5248919.28545  23582974.257    23582983.4584
  23912694.043    -9757492.849 8  -7023374.54545  23912693.107    23912704.3064
  23600177.837    -9263628.671 8  -4861914.65745  23600177.217    23600184.6994
  20310958.553   -22350843.065 9 -17388529.63348  20310958.166    20310963.9394
 01  4 25  2 46 30.0000000  0 10 03 14 23 21 31 25 11 15 18 29
  23715638.827    -5327435.475 8  -4120840.68445  23715638.255    23715650.2894
  20325075.811   -24320838.698 9 -18931433.09848  20325075.113    20325080.1154
  24224532.228    -2956276.478 8   -989963.65745  24224531.206    24224540.8604
  21183938.182   -22367230.376 9 -16524929.59047  21183937.455    21183944.4634
  23220840.868    -8454413.782 8  -6564148.53646  23220840.007    23220849.5184
  22723183.427   -13274077.779 8 -10031638.99946  22723183.058    22723192.3434
  23565002.338    -6860586.026 8  -5322514.01845  23565001.580    23565010.7414
  23933069.983    -9650416.954 8  -6939938.89445  23933068.990    23933080.1914
  23613236.605    -9195004.490 8  -4808441.27645  23613235.916    23613243.4824
  20312861.772   -22340841.521 9 -17380736.19948  20312861.379    20312867.1504
 01  4 25  2 47  0.0000000  0 10 03 14 23 21 31 25 11 15 18 29
  23731413.991    -5244536.891 8  -4056244.55045  23731413.454    23731425.6224
  20329227.671   -24299020.367 9 -18914431.78048  20329226.969    20329231.9744
  24236063.098    -2895681.254 7   -942746.61345  24236062.173    24236071.7754
  21186657.491   -22352940.306 9 -16513794.45647  21186656.763    21186663.7584
  23230432.322    -8404010.360 8  -6524873.17346  23230431.437    23230441.0084
  22705810.231   -13365373.659 8 -10102778.45246  22705809.885    22705819.1364
  23547066.751    -6954837.806 8  -5395956.85345  23547065.975    23547075.1354
  23953478.893    -9543167.837 8  -6856368.27045  23953477.932    23953489.1734
  23626313.517    -9126284.693 8  -4754893.38245  23626312.874    23626320.4094
  20314836.578   -22330463.770 9 -17372649.61748  20314836.182    20314841.9364
 01  4 25  2 47 30.0000000  0 10 03 14 23 21 31 25 11 15 18 29
  23747206.821    -5161545.781 8  -3991576.32845  23747206.280    23747218.4154
  20333456.477   -24276797.588 9 -18897115.31048  20333455.772    20333460.7774
  24247610.054    -2835001.612 7   -895463.79545  24247609.040    24247618.6574
  21189411.557   -22338467.471 9 -16502516.91347  21189410.816    21189417.8024
  23240096.250    -8353225.953 8  -6485300.97346  23240095.387    23240105.0844
  22688475.967   -13456465.253 8 -10173758.71846  22688475.606    22688484.8174
  23529168.759    -7048892.017 8  -5469245.74345  23529168.026    23529177.0634
  23973920.422    -9435747.308 8  -6772664.09445  23973919.461    23973930.7264
  23639408.757    -9057468.833 8  -4701270.62045  23639408.119    23639415.6684
  20316882.756   -22319710.968 9 -17364270.78248  20316882.355    20316888.1044
